GFSGL_sfc_thetae_000.txt.gz
Theta_e
351 353 351 347 348 350 348 348 349 352 351 349 347 345 344 342 344 342 342 342 337 339 340 337 336 334 330 329 328 327 325 324 323 328 334 339 340 338 341 347 346 344 349
349 352 350 349 349 349 348 348 350 349 350 348 347 345 344 342 342 340 339 340 338 336 337 336 334 330 330 328 325 323 323 323 323 325 331 335 338 340 339 343 343 344 343
347 343 347 348 347 348 349 349 349 348 346 346 346 343 342 342 341 341 339 338 338 337 337 334 333 331 327 326 325 322 321 321 321 321 327 334 337 339 340 342 340 342 343
341 342 346 347 348 347 349 350 348 348 347 347 345 344 342 341 341 339 338 337 336 336 336 334 332 330 328 325 324 322 320 318 319 319 321 328 334 337 339 336 339 344 343
343 345 347 349 349 349 348 348 347 347 346 347 344 343 343 341 336 341 338 338 336 334 335 333 332 332 330 327 324 322 320 316 317 317 317 321 325 332 333 335 337 340 343
341 343 347 348 347 346 348 348 347 347 348 345 343 342 342 337 329 332 333 336 335 333 331 332 332 331 330 327 326 326 322 318 315 315 317 316 319 327 335 335 334 335 334
346 346 346 347 346 347 347 347 347 348 346 345 343 342 340 340 324 326 330 331 332 331 332 332 329 330 328 328 326 325 323 322 322 319 318 319 320 324 332 334 334 335 335
345 345 345 346 345 347 347 346 347 347 345 342 341 341 340 336 322 321 325 331 331 332 333 331 329 329 330 328 325 323 322 319 321 322 321 322 324 328 329 336 336 335 340
343 344 345 345 345 346 345 345 347 346 343 342 341 340 337 337 321 319 322 330 329 329 333 331 331 328 324 319 321 320 317 318 321 320 320 320 321 322 325 331 334 332 331
342 344 346 347 347 346 346 344 342 347 341 336 336 339 333 339 319 318 323 322 322 325 330 331 323 321 315 311 317 318 316 317 318 319 319 323 321 321 323 325 331 333 330
345 346 347 348 350 350 350 344 343 338 336 338 338 337 338 335 330 320 317 324 323 326 323 323 329 314 308 308 309 319 314 315 319 318 318 319 328 327 326 328 335 339 332
351 349 351 352 343 341 349 347 341 342 338 335 335 332 330 329 318 318 317 316 319 322 323 325 327 306 305 307 312 311 311 315 317 317 316 315 316 327 332 338 338 340 343
354 353 353 351 347 348 345 340 340 338 334 336 330 326 325 326 329 318 315 313 314 317 325 319 311 307 308 310 310 311 313 315 314 315 315 316 316 320 328 339 341 339 340
351 352 351 347 347 341 341 338 332 335 331 329 323 328 327 328 318 315 317 320 318 320 317 319 318 313 310 311 312 313 313 313 314 314 315 318 319 317 317 322 336 338 336
348 347 347 342 340 337 320 318 326 311 312 321 318 320 316 318 309 301 301 309 311 309 303 318 324 318 311 310 310 312 311 311 311 315 315 316 317 315 315 317 321 325 333
342 338 337 336 326 331 324 317 301 300 297 296 297 305 309 301 297 296 296 296 297 298 311 317 313 312 310 308 308 308 310 310 309 310 314 313 316 316 314 315 317 316 316
338 338 333 326 331 330 330 330 322 308 301 299 299 299 299 298 297 296 297 298 302 304 314 311 309 309 307 306 305 306 306 308 311 309 310 311 311 316 316 314 314 314 313
334 317 329 330 329 328 327 325 324 323 319 318 301 302 299 299 298 297 298 303 313 311 310 307 306 305 304 304 304 304 304 305 307 309 310 309 310 311 316 315 314 313 313
329 327 329 329 326 322 323 321 320 318 317 315 315 305 304 299 299 299 302 311 309 306 305 302 300 298 296 297 298 298 302 301 302 306 307 307 307 307 308 316 317 312 312
327 318 321 328 322 323 320 319 317 316 314 313 311 308 307 308 308 308 308 307 306 305 302 299 297 296 295 295 295 296 297 301 301 302 305 306 307 306 306 309 314 313 314
322 323 317 324 321 319 317 315 315 315 313 311 308 304 296 307 306 306 306 306 305 305 306 305 304 303 300 299 297 296 296 298 300 302 302 302 303 306 307 306 308 310 308
320 322 321 322 320 319 318 318 315 313 312 309 308 304 298 306 305 304 306 307 307 309 307 306 304 302 301 299 296 294 294 296 298 299 300 300 300 302 304 307 305 305 305
320 320 318 313 312 309 311 314 313 313 312 310 309 306 305 305 304 303 304 307 308 305 304 302 301 299 299 297 295 293 292 291 294 296 295 299 299 300 299 302 302 303 303
314 313 312 312 312 312 311 312 311 306 307 308 308 306 305 306 305 304 304 305 304 302 302 301 299 296 295 294 293 291 289 287 291 291 294 300 297 298 299 299 299 299 301
313 313 313 312 311 310 310 309 309 309 307 306 305 304 304 304 303 302 302 301 301 301 299 299 299 296 294 292 290 288 285 284 288 285 292 298 299 297 298 298 299 299 299
311 311 310 310 309 309 307 307 306 307 306 305 304 303 303 302 301 300 300 299 299 298 298 299 298 297 295 291 288 285 283 283 285 284 288 299 295 296 296 297 298 297 299

GFSGL_sfc_thetae_003.txt.gz
Theta_e
343 340 339 337 336 336 334 333 334 336 336 335 335 334 333 333 334 332 330 331 330 329 329 327 327 324 321 322 320 318 317 316 315 318 321 325 330 332 336 342 343 341 343
342 341 333 331 334 334 333 333 333 332 333 333 332 332 334 334 333 332 329 331 329 327 326 325 325 327 322 321 319 317 316 317 317 312 317 320 324 330 334 335 338 342 341
339 338 334 334 333 332 333 333 333 332 331 331 332 332 331 332 332 332 332 331 328 329 326 326 325 323 320 320 320 318 317 319 316 315 314 319 322 325 330 335 335 337 341
339 337 334 336 335 334 334 334 334 333 332 334 334 332 332 332 331 332 331 329 328 328 329 327 325 324 321 321 319 318 317 314 314 312 313 315 318 321 325 328 331 336 336
335 334 335 336 336 336 335 336 334 333 334 334 333 332 332 334 334 329 329 328 327 327 327 327 326 327 330 324 320 320 316 315 312 312 312 315 316 316 318 323 327 333 338
333 335 339 339 337 336 335 335 333 333 333 334 330 330 330 333 326 329 327 323 325 324 323 324 325 330 327 328 327 328 325 317 313 314 314 314 316 318 320 319 323 327 328
335 335 337 337 336 336 336 336 336 334 331 329 330 331 329 329 325 324 327 321 321 322 323 323 323 327 326 322 323 325 325 324 323 318 316 317 317 319 320 320 321 324 329
333 335 336 336 336 336 336 335 335 332 330 330 330 328 329 330 325 322 324 320 321 323 323 324 323 322 322 321 319 317 318 318 319 320 319 319 320 320 320 321 322 325 332
333 334 336 336 335 335 336 335 334 333 331 331 331 329 328 327 319 319 319 320 321 319 322 323 323 320 318 316 313 313 314 317 320 320 319 320 320 321 321 320 320 322 323
335 337 338 337 336 336 337 335 334 332 331 328 324 328 327 323 320 318 318 319 313 316 320 321 319 316 313 311 312 313 314 314 315 317 317 319 321 320 323 321 320 318 325
337 337 339 339 338 339 338 335 331 330 322 322 326 327 327 322 321 316 314 316 319 318 316 316 315 310 307 308 309 313 313 313 315 315 316 317 319 319 320 322 322 322 324
337 337 339 339 341 341 332 332 330 330 325 324 323 324 322 322 318 317 315 314 318 314 312 316 309 306 306 307 308 309 310 313 315 314 315 315 316 316 317 321 324 323 327
336 338 340 340 335 332 329 330 328 325 325 324 321 319 318 320 317 314 312 313 313 313 313 313 307 305 306 308 310 311 311 312 311 312 312 314 316 318 318 318 330 325 328
323 327 335 332 331 330 327 324 322 317 318 320 318 315 316 313 307 307 309 309 311 309 308 306 311 310 308 309 309 311 312 311 310 309 311 314 314 317 317 317 316 318 331
321 335 333 334 326 315 309 311 317 305 308 313 310 309 309 306 304 300 301 304 303 302 300 308 313 309 305 304 306 309 309 309 308 308 309 310 311 313 316 317 316 316 315
333 330 326 326 320 317 310 305 300 300 297 297 298 304 302 301 298 297 296 295 296 298 304 304 303 303 302 303 303 305 305 306 306 308 309 309 308 310 313 316 316 315 314
328 325 321 318 320 319 313 310 305 303 299 297 297 298 300 299 297 296 297 296 300 304 303 300 299 299 300 301 299 301 300 301 304 307 308 307 306 308 309 314 315 314 313
324 318 319 318 321 321 319 320 318 310 307 305 299 300 298 297 297 296 298 304 305 302 298 296 295 294 296 296 296 296 298 300 301 302 306 306 307 305 307 310 312 312 313
322 320 319 319 319 318 317 314 313 312 310 309 307 302 300 298 298 298 301 302 300 298 295 294 292 291 291 293 295 296 297 298 301 301 302 302 303 306 304 306 309 306 307
317 317 317 319 317 316 314 312 311 309 307 306 304 302 302 303 302 302 302 301 300 299 297 294 292 291 292 292 292 294 296 296 298 298 298 299 299 303 305 304 304 305 304
319 317 319 317 315 313 311 310 309 308 307 304 301 299 296 300 300 300 300 299 298 299 299 298 297 294 293 292 290 289 291 293 294 294 294 296 297 298 301 303 303 304 303
318 315 316 318 315 313 312 312 310 308 305 303 300 298 298 299 299 298 300 303 299 299 298 295 294 293 291 288 287 286 287 289 290 290 291 293 295 296 296 299 299 302 302
318 315 311 309 310 309 310 312 311 311 309 307 303 300 299 299 298 297 298 299 298 295 294 293 292 290 289 287 285 285 285 284 285 288 288 291 293 293 295 294 295 296 299
309 309 307 307 307 307 309 307 304 306 305 304 304 302 301 300 299 298 298 297 294 293 293 291 290 288 286 285 284 284 282 282 284 285 286 289 292 292 294 294 294 295 296
307 308 307 307 306 304 305 303 303 305 305 302 300 299 300 301 299 299 297 293 293 292 292 292 289 288 286 285 283 282 282 284 285 285 286 290 291 292 291 292 292 293 294
305 308 304 303 303 305 303 301 300 301 300 300 299 298 297 296 294 293 293 292 292 291 292 291 291 289 287 285 284 284 282 283 283 284 286 291 288 289 289 290 291 292 293

GFSGL_sfc_thetae_006.txt.gz
Theta_e
337 334 333 334 332 331 330 330 330 330 332 333 332 332 330 330 331 330 329 328 327 326 327 326 325 323 320 320 318 316 314 314 312 312 313 316 316 317 321 325 331 336 340
339 337 336 336 333 331 330 330 330 331 330 329 330 330 330 331 330 329 329 329 327 325 325 324 324 326 320 319 318 316 315 314 315 311 313 315 315 317 319 322 326 333 337
341 337 331 329 329 330 330 330 330 329 328 328 327 326 328 328 328 329 328 329 327 327 325 323 323 323 320 319 318 317 316 317 315 315 315 315 316 316 317 320 322 325 334
340 337 330 328 328 330 330 330 330 329 328 328 327 329 330 329 328 328 328 328 327 326 325 324 324 322 322 320 318 318 317 315 313 315 315 314 314 316 317 316 316 321 323
338 335 332 331 331 330 330 331 330 330 330 329 330 330 329 329 331 330 328 327 325 323 325 325 325 326 328 325 321 320 317 315 316 316 314 313 313 313 314 317 317 318 320
336 335 334 333 332 332 333 332 330 330 329 330 330 329 327 329 328 327 325 322 322 321 321 321 322 328 327 328 328 327 323 316 316 314 314 312 313 315 316 316 316 315 313
335 334 333 334 333 334 334 331 330 330 328 329 330 327 327 327 325 323 328 320 318 318 318 319 321 325 326 323 323 325 323 324 323 316 314 314 315 317 317 315 316 315 314
333 332 334 334 333 334 332 331 330 330 331 330 327 327 327 326 323 322 324 319 318 318 319 320 319 320 320 319 316 314 314 315 315 316 316 317 318 318 318 317 317 317 318
331 332 333 335 333 332 330 330 332 330 328 327 328 326 324 326 321 318 319 318 317 316 315 318 319 318 318 316 312 311 311 312 318 318 318 318 318 319 320 318 316 314 312
332 333 334 334 333 331 332 332 333 331 330 329 326 325 323 324 319 316 317 317 313 315 316 317 317 314 312 311 310 309 311 313 313 313 315 316 318 318 320 319 316 315 314
333 332 332 334 333 332 333 333 330 328 324 323 325 325 325 322 321 314 313 314 316 314 313 313 312 310 307 307 307 306 309 311 312 314 314 315 316 316 317 319 319 319 316
325 325 326 328 334 336 334 331 327 325 323 322 323 321 319 316 313 313 313 313 315 311 311 312 307 306 306 306 307 308 309 311 312 311 311 311 313 314 315 317 319 322 321
322 322 326 322 322 327 330 328 325 322 320 319 320 316 314 313 310 309 310 310 311 308 308 307 307 305 305 307 309 310 311 310 309 307 307 308 312 313 314 317 319 320 323
321 321 325 321 320 327 327 326 323 320 316 316 314 313 310 307 306 306 307 306 309 308 305 302 308 309 308 307 305 306 308 308 308 307 307 309 311 311 312 315 316 317 321
322 322 321 322 325 319 314 312 315 305 309 311 309 310 312 305 305 300 300 303 305 302 300 306 307 307 304 301 300 302 306 305 303 304 307 307 307 308 310 313 315 316 314
317 319 323 325 320 313 308 306 301 299 297 297 300 303 302 301 298 297 295 295 295 296 301 300 300 299 298 297 296 297 299 300 300 302 305 306 306 306 307 311 313 313 313
323 324 322 320 318 311 307 307 306 304 300 297 296 298 299 298 296 295 295 295 296 300 298 296 295 294 293 292 293 293 294 299 299 301 303 304 305 305 306 307 309 309 311
322 317 318 316 317 313 310 308 307 306 303 302 299 298 297 297 297 296 298 299 298 296 294 293 292 291 290 290 291 292 294 297 299 298 299 299 299 304 304 304 305 305 306
321 319 319 317 319 317 315 314 311 308 307 304 302 300 298 298 297 296 298 301 295 293 292 291 291 291 290 290 290 291 292 293 295 294 295 296 297 299 302 303 303 303 304
318 317 317 315 314 312 310 310 309 307 306 303 302 301 301 301 300 299 299 300 297 295 294 292 292 290 290 290 288 288 290 291 291 291 292 293 295 295 297 300 302 302 303
320 317 318 314 312 311 310 309 308 306 304 302 301 300 297 299 298 298 297 296 297 297 295 294 292 291 289 286 285 285 287 288 288 288 290 291 293 293 294 296 299 302 302
315 316 316 314 312 311 310 308 308 307 305 302 299 299 296 298 297 297 297 298 297 296 293 291 289 286 285 283 284 284 284 284 285 286 287 290 292 292 294 294 295 298 300
316 314 314 313 311 310 310 310 312 309 306 305 302 301 298 297 296 296 297 297 293 292 290 289 287 285 284 283 283 282 282 282 283 285 285 289 290 291 292 292 293 294 296
310 308 308 307 306 305 305 305 304 306 308 307 303 301 298 298 297 296 296 294 292 291 289 288 286 284 283 282 281 280 280 281 283 283 286 289 290 289 291 291 292 293 294
305 308 305 305 305 304 303 303 302 302 302 304 304 300 299 298 297 297 296 292 290 290 289 287 286 285 283 282 281 280 282 284 284 285 287 288 288 289 289 289 290 292 292
301 304 304 304 304 303 302 301 300 300 300 298 297 297 300 298 297 295 292 290 289 289 289 287 286 285 284 283 282 283 282 283 284 284 287 287 287 287 288 288 289 290 290

GFSGL_sfc_thetae_009.txt.gz
Theta_e
334 331 328 328 330 330 329 328 328 328 327 328 327 328 329 328 327 327 327 327 325 324 324 324 324 323 320 318 317 315 312 312 311 309 312 314 314 314 317 318 320 321 324
335 332 330 330 330 329 328 328 327 327 329 331 330 329 328 328 328 328 327 328 326 324 324 324 324 325 321 318 317 315 314 312 311 310 311 312 313 317 316 315 318 321 322
336 333 331 331 331 330 330 329 328 328 328 327 327 326 325 325 327 326 327 327 326 326 325 323 322 321 319 319 318 317 316 316 313 313 314 318 315 316 314 315 316 318 321
337 335 332 332 333 332 332 330 329 328 327 327 326 325 326 327 327 327 326 325 325 326 325 323 322 321 321 320 319 319 318 315 314 312 316 316 315 315 314 313 313 317 316
339 336 333 333 332 332 332 331 330 330 330 329 327 327 328 329 330 327 326 327 325 324 323 323 323 325 329 325 321 319 317 317 315 314 315 315 313 312 311 313 313 315 315
340 337 335 332 330 330 331 330 330 330 330 330 327 328 327 330 327 328 330 324 322 321 319 319 319 325 324 327 328 327 323 317 315 314 314 312 312 312 313 314 313 312 310
340 337 333 333 331 331 332 331 330 330 330 329 327 327 327 327 324 324 328 322 319 317 316 316 318 322 323 320 323 323 324 324 324 316 312 312 310 313 314 313 313 313 312
336 334 334 333 333 332 331 331 330 330 329 328 327 328 326 328 321 322 325 323 318 317 317 318 316 315 317 318 316 313 312 312 313 315 314 314 314 315 315 315 315 315 316
334 333 334 334 332 331 329 330 332 329 329 328 327 325 326 328 323 320 321 319 317 316 315 315 316 315 317 317 312 310 309 310 316 318 317 317 317 318 319 317 313 312 310
334 332 333 333 331 329 330 331 330 330 329 328 327 327 324 325 319 316 316 317 314 312 315 317 316 313 313 311 308 306 307 308 309 311 312 314 316 316 319 318 315 311 310
331 331 331 331 331 330 330 329 330 328 325 324 325 324 324 322 320 314 313 314 313 314 313 312 311 312 307 307 307 305 305 307 308 310 311 312 313 313 315 316 316 314 311
327 325 323 326 326 325 325 324 326 327 324 322 322 321 321 316 312 312 310 311 316 310 309 309 308 306 304 306 307 308 308 310 307 309 308 307 308 310 313 314 315 316 319
325 322 322 323 324 325 323 320 320 324 322 320 319 318 315 313 310 308 308 309 310 307 307 307 306 303 305 306 308 308 307 303 304 304 305 306 308 310 312 313 315 316 319
322 321 322 322 321 322 322 322 323 323 320 319 318 316 311 308 306 306 306 305 307 306 305 305 306 307 307 306 305 301 301 302 302 301 303 306 308 308 309 312 311 313 315
323 324 322 320 320 319 312 313 317 310 311 314 313 312 310 306 305 301 301 302 301 300 301 306 303 301 300 298 296 297 298 298 298 299 301 303 305 306 307 309 311 310 311
320 321 321 320 320 315 310 304 300 299 297 297 300 305 301 301 299 297 295 295 294 296 303 299 297 295 294 292 292 292 294 296 296 298 299 301 300 302 304 306 308 308 308
317 318 319 318 316 310 310 306 305 302 297 294 295 297 298 298 297 295 294 294 295 299 297 295 293 292 291 291 290 290 291 293 294 295 296 297 298 298 303 303 305 306 306
317 314 318 318 316 311 310 310 309 305 302 301 296 297 297 298 296 296 297 298 298 297 293 292 290 289 288 288 288 289 290 291 292 292 293 294 294 295 298 300 302 303 304
319 318 315 316 315 312 311 310 309 304 303 301 301 299 296 296 297 297 297 298 295 295 291 290 289 289 288 288 287 287 289 289 290 289 290 291 293 293 294 297 299 302 303
315 316 315 315 315 313 314 312 308 308 304 302 302 302 300 300 299 298 297 297 294 293 292 291 290 289 289 287 285 285 287 287 287 287 288 289 291 292 293 294 296 300 302
313 314 316 313 311 310 309 310 309 307 306 304 302 300 298 300 298 297 296 295 295 295 293 292 291 289 284 283 283 284 285 285 285 286 287 288 290 290 292 293 295 298 299
314 313 312 311 310 310 311 308 307 306 305 304 302 300 295 300 298 296 296 296 295 295 292 289 286 284 282 283 283 283 283 283 284 284 286 288 289 289 291 292 293 295 297
312 312 312 310 310 309 308 308 307 306 305 304 303 301 299 300 296 296 296 295 293 291 289 287 285 283 282 282 282 282 282 281 282 283 285 287 288 288 289 289 291 291 292
311 311 311 310 309 308 307 307 307 304 304 304 303 300 301 299 296 296 296 293 291 289 288 286 285 283 281 281 280 280 280 281 282 283 285 287 287 288 288 288 289 290 291
306 306 306 305 304 304 303 303 302 302 304 303 302 301 299 299 296 296 295 291 290 288 287 285 284 283 281 280 280 280 282 283 284 285 286 286 287 287 287 287 288 289 290
301 305 307 305 302 302 301 301 301 300 300 300 301 298 298 298 297 295 294 290 289 288 287 285 284 284 283 282 281 283 282 283 284 284 285 285 286 286 287 287 288 288 288

GFSGL_sfc_thetae_012.txt.gz
Theta_e
343 338 334 328 328 329 330 332 330 330 331 332 332 332 332 332 333 332 331 332 331 331 330 330 329 330 328 326 324 322 320 318 315 318 318 321 322 323 324 325 324 323 324
344 337 333 330 330 330 331 332 331 331 330 331 332 332 332 333 333 332 332 333 332 330 331 330 330 330 328 328 324 324 322 320 318 317 321 319 321 325 325 322 321 322 323
343 335 332 330 330 331 332 331 330 331 330 332 333 333 332 332 331 332 332 331 331 331 331 330 329 328 326 326 325 324 324 324 320 318 319 322 322 324 322 323 322 322 322
341 336 333 331 331 332 332 331 331 330 330 331 332 331 330 329 330 332 332 331 330 330 331 330 329 327 327 327 326 326 325 323 322 319 319 320 321 324 321 318 317 320 320
339 336 335 334 333 333 332 332 331 330 331 332 332 330 330 330 331 332 332 331 331 331 330 329 328 328 328 328 327 327 324 323 322 319 317 319 319 319 318 319 316 317 320
340 338 338 335 334 334 334 333 332 331 331 330 330 330 330 331 328 328 332 332 332 329 328 328 326 325 326 326 327 328 328 324 322 320 319 316 319 320 320 316 315 314 312
341 340 337 332 333 333 333 332 332 331 332 331 331 331 331 332 325 324 327 332 329 326 325 324 323 325 325 323 323 323 324 323 325 324 317 318 319 319 319 316 316 314 314
341 339 334 333 332 332 333 333 332 331 331 330 330 331 330 332 322 321 325 329 328 326 324 323 322 322 322 322 322 320 319 319 319 318 318 318 319 320 319 318 315 314 316
338 336 335 334 333 334 333 331 332 332 331 331 333 330 328 330 321 320 323 328 325 325 323 322 320 322 319 318 318 317 316 316 316 316 316 316 316 317 318 317 313 313 310
336 336 336 336 337 334 333 332 332 332 332 332 329 329 325 330 322 318 320 325 323 321 320 322 318 318 313 311 315 313 312 313 312 313 314 315 316 316 317 318 317 311 310
334 335 335 335 333 332 331 333 332 330 328 328 328 328 329 329 327 316 313 323 321 319 319 318 318 312 308 307 308 313 311 312 311 310 310 310 311 312 313 316 317 313 310
331 331 331 332 333 331 328 329 329 328 325 325 326 324 329 326 314 315 310 312 317 319 317 315 314 306 306 305 309 308 308 309 310 309 308 307 309 310 312 313 314 314 315
325 324 325 326 327 327 325 325 324 325 324 326 326 325 324 319 315 307 308 309 311 313 313 311 307 303 304 307 307 306 306 308 307 305 304 305 308 310 312 311 314 313 315
322 323 323 323 323 325 324 322 323 324 324 324 322 321 320 316 314 313 312 311 309 310 307 310 309 309 307 306 305 304 305 306 305 303 303 305 308 308 307 310 308 310 310
323 323 323 324 323 320 308 313 322 316 318 321 321 320 315 313 312 306 307 309 309 305 305 310 310 308 305 302 301 301 302 302 301 302 301 302 304 303 303 307 308 308 307
324 324 322 322 320 315 312 309 300 298 298 297 298 310 308 304 298 297 296 294 293 295 306 308 305 302 301 299 298 298 299 299 299 299 299 300 299 300 301 304 307 306 306
323 322 322 319 317 316 314 311 309 303 296 294 296 297 299 298 296 295 294 293 294 299 306 303 302 299 298 297 296 296 296 297 298 297 297 297 297 298 299 301 304 304 305
323 312 321 321 320 315 315 313 312 310 308 305 297 298 295 295 295 294 294 298 303 302 302 299 298 296 295 295 295 294 295 296 295 295 295 296 296 296 297 299 300 301 303
320 320 321 320 318 314 314 313 312 309 307 306 305 300 296 295 295 295 296 304 303 301 299 297 296 296 296 296 293 292 294 294 294 293 294 294 295 296 296 298 299 299 302
322 317 316 318 314 314 313 312 311 310 307 307 307 308 306 305 306 304 303 302 301 299 298 298 297 297 296 293 291 291 294 293 293 293 293 294 295 296 296 297 298 299 300
318 319 317 317 315 315 314 313 312 311 309 308 309 307 300 307 306 304 303 302 302 301 300 299 298 297 292 290 292 293 292 292 292 292 293 293 294 294 297 297 298 299 299
318 317 317 317 316 315 314 313 313 313 311 310 308 306 296 306 305 304 303 302 303 303 302 298 295 292 290 291 292 292 291 291 292 292 292 293 294 295 296 296 297 297 298
317 316 316 316 315 312 314 314 312 311 310 309 308 305 303 304 302 303 303 303 303 300 297 294 292 290 289 290 290 291 291 291 291 290 292 293 294 294 295 296 296 296 296
316 316 315 314 314 313 313 312 312 306 310 309 307 306 305 305 303 303 303 302 299 297 295 293 292 290 289 289 289 289 289 290 291 291 292 293 294 294 295 295 295 296 295
313 313 313 313 312 311 311 312 311 311 310 309 308 307 306 305 303 302 302 300 298 296 294 293 291 290 288 287 287 287 286 284 289 287 293 294 294 294 294 295 295 295 295
308 309 309 309 309 309 308 308 308 307 307 308 308 307 306 304 304 303 301 299 297 295 294 292 291 289 288 288 288 286 283 283 288 284 293 294 293 294 294 294 294 294 294

GFSGL_sfc_thetae_015.txt.gz
Theta_e
356 358 358 353 351 347 347 344 340 345 344 344 344 343 343 343 343 343 343 342 340 342 342 341 341 343 338 337 337 335 332 329 324 325 328 331 332 332 333 335 334 334 330
355 357 355 351 343 347 334 341 343 341 342 343 343 342 342 341 343 342 341 339 340 340 340 341 340 339 340 341 339 337 334 335 328 326 331 329 332 333 333 333 333 331 330
355 353 351 348 342 340 341 338 340 341 339 340 340 340 339 340 342 343 341 340 340 339 340 340 339 340 339 338 336 334 333 333 332 326 325 328 329 331 331 332 332 332 330
352 352 352 349 346 342 336 336 333 334 336 337 337 339 340 341 342 341 339 340 341 340 340 340 340 339 338 338 336 335 334 332 331 327 326 325 327 331 329 326 325 327 326
354 353 350 349 347 343 339 336 334 332 333 334 335 337 339 336 337 339 339 340 341 340 340 340 341 339 335 333 332 333 334 330 327 325 325 325 324 324 324 325 324 324 326
354 351 351 348 343 342 341 340 337 333 335 335 334 335 335 335 329 328 335 340 341 340 339 340 341 334 332 328 327 328 330 329 328 327 325 324 325 325 325 323 322 319 316
352 352 350 347 342 342 341 339 337 331 331 336 336 337 337 340 326 325 329 338 340 340 341 339 337 333 330 332 327 325 325 324 325 327 322 323 324 325 324 321 320 319 318
352 351 349 345 343 342 342 339 338 338 330 333 337 337 338 340 325 322 326 336 339 334 336 337 335 334 332 328 328 328 329 328 328 325 325 324 324 324 321 319 318 317 318
350 350 347 345 343 341 340 336 335 337 336 339 337 337 340 341 321 320 326 336 335 334 336 334 332 331 322 318 325 325 325 326 321 317 316 316 316 317 317 316 314 314 314
349 349 348 346 344 341 337 336 339 340 338 336 338 339 333 340 323 317 327 335 334 329 336 332 319 323 314 313 324 324 322 323 321 320 320 319 320 320 318 319 316 312 312
349 349 346 344 342 337 337 338 340 338 336 333 336 338 340 335 333 317 314 334 330 330 329 328 328 313 310 308 310 323 319 315 317 317 317 317 318 319 319 321 321 318 314
345 344 342 342 342 339 337 338 338 339 337 334 334 334 335 337 316 316 314 314 323 329 328 328 325 308 306 307 311 308 308 308 315 315 314 314 314 314 315 316 318 319 321
341 339 340 342 342 342 339 339 337 337 331 332 330 325 330 332 331 309 307 309 312 324 326 316 308 304 305 309 308 307 306 313 312 311 310 310 310 312 314 314 315 319 321
340 339 340 340 339 339 337 336 332 330 329 329 329 329 330 329 326 325 322 320 311 315 312 320 314 312 308 311 311 311 312 311 308 308 307 308 309 309 308 309 310 314 313
338 337 339 339 337 326 319 324 330 331 324 329 330 330 329 327 325 316 316 322 322 313 315 320 319 319 318 316 313 311 310 309 307 306 306 305 305 305 305 307 311 313 311
333 333 332 331 327 324 323 315 298 299 298 297 301 318 318 303 297 296 296 294 295 297 314 317 317 316 314 312 310 308 308 305 306 305 304 304 303 303 303 306 311 312 310
334 334 330 327 326 325 323 324 321 306 296 295 296 298 302 300 296 295 295 294 294 298 314 315 314 312 311 308 306 306 304 304 305 303 303 303 303 303 303 305 309 307 310
334 316 332 330 326 323 323 324 324 323 320 315 298 301 295 295 294 294 295 300 310 308 315 313 311 309 307 307 306 303 302 302 302 302 302 302 302 302 302 304 306 304 306
330 329 330 330 330 324 321 324 324 323 321 317 313 304 300 295 294 294 296 315 314 312 310 309 307 307 307 307 304 302 300 300 300 301 301 301 302 301 302 303 305 303 304
331 319 322 329 326 326 324 324 323 321 319 317 315 316 313 308 312 313 313 312 312 311 310 309 308 308 307 305 301 299 300 302 301 301 300 301 302 302 301 302 303 306 305
330 330 321 329 327 326 325 324 323 321 319 318 318 316 306 316 315 313 312 312 311 310 309 309 309 308 305 302 300 302 303 302 300 300 300 300 301 301 302 302 302 304 305
327 326 327 327 327 324 324 324 323 322 321 319 319 313 298 315 315 313 312 311 312 312 312 311 307 305 302 301 301 302 302 300 300 299 299 300 301 301 301 301 302 302 303
325 325 326 327 327 318 322 324 322 321 320 320 320 317 313 314 311 312 311 311 311 311 309 306 304 302 301 299 301 302 301 300 299 299 299 299 300 300 301 301 301 301 301
326 326 325 324 323 324 323 322 321 311 319 319 318 316 314 312 314 313 311 311 311 310 307 305 303 301 298 297 299 299 301 300 300 300 299 299 300 299 300 301 301 301 301
325 324 324 323 322 322 320 320 319 320 319 319 318 317 317 317 315 312 311 310 309 308 305 303 302 299 296 295 295 295 291 285 292 288 299 299 300 301 300 300 300 301 301
321 322 321 320 319 320 319 318 318 318 317 318 317 316 316 316 316 315 312 310 308 306 305 303 300 298 296 295 295 290 283 283 292 284 296 300 299 299 299 299 299 299 300

GFSGL_sfc_thetae_018.txt.gz
Theta_e
362 364 364 361 361 363 361 358 357 355 354 350 351 349 347 345 346 347 344 342 341 342 343 342 342 345 338 336 336 336 334 332 327 328 331 335 338 338 338 339 338 338 336
362 364 363 363 364 359 361 359 355 353 352 350 348 349 346 345 346 344 341 340 341 340 341 342 341 339 343 344 336 339 337 336 330 330 334 331 337 340 338 338 336 335 336
360 358 360 362 360 361 360 355 353 349 349 346 346 345 343 344 344 345 345 343 341 341 341 341 340 340 341 339 339 335 333 333 334 330 329 331 332 332 334 337 337 338 333
356 358 362 362 361 356 359 353 349 344 345 343 342 338 340 343 344 344 344 343 342 341 342 342 342 341 340 340 338 340 337 334 334 329 329 329 330 332 333 327 327 329 328
357 357 360 362 361 358 356 352 348 344 342 344 337 330 332 338 340 343 343 342 341 342 343 343 343 342 338 335 336 339 340 333 328 327 326 326 326 329 330 327 325 326 330
358 358 361 361 359 357 354 351 347 347 344 334 332 333 332 334 331 330 339 340 342 343 342 343 342 340 337 331 330 329 331 331 330 326 325 325 328 329 328 325 324 322 319
358 359 360 361 358 355 352 349 347 345 342 340 338 341 336 338 327 326 330 339 341 344 342 342 341 334 337 339 331 327 327 325 325 330 328 328 328 329 330 325 324 322 320
358 359 360 359 354 351 348 346 347 342 340 339 340 343 338 338 326 324 328 341 342 343 343 342 340 340 340 337 337 334 333 334 334 330 331 330 329 328 325 324 323 322 321
356 357 358 357 353 349 347 343 344 342 339 336 340 342 339 337 323 321 328 339 340 341 341 339 337 337 329 323 330 330 331 332 326 321 318 317 317 318 319 320 319 316 314
355 357 358 356 353 349 348 346 345 342 338 337 339 341 335 341 323 319 325 338 337 335 339 338 325 329 319 317 328 329 327 327 327 327 326 323 321 324 321 323 320 316 314
356 357 358 355 353 350 349 347 341 337 338 338 342 344 344 340 340 316 316 338 334 336 334 331 336 318 312 310 311 327 324 320 322 323 321 319 321 322 322 324 324 320 316
357 357 354 350 348 347 346 342 340 340 340 341 343 343 341 345 322 318 315 316 326 334 337 333 325 312 308 308 312 310 309 308 320 320 316 316 317 317 317 318 321 321 319
355 353 347 345 345 345 341 341 341 341 339 343 338 341 343 342 336 312 310 311 315 330 333 315 309 308 306 308 311 308 307 318 318 315 315 315 315 316 318 320 321 325 326
345 344 343 342 340 341 343 343 341 340 340 340 339 339 333 332 330 322 324 325 314 320 314 321 317 314 311 311 315 313 319 318 315 313 313 314 315 313 311 311 309 311 316
346 345 344 343 339 327 320 311 329 321 318 337 338 335 334 332 329 314 319 330 329 319 324 326 323 322 321 321 321 320 318 316 314 313 312 311 309 309 308 309 309 313 313
344 343 341 338 334 334 334 329 299 300 299 301 305 321 328 310 300 297 296 297 299 301 317 320 321 321 320 319 318 316 315 311 312 311 310 309 307 306 306 307 309 312 312
342 340 337 333 335 333 332 330 326 311 297 295 296 299 302 300 297 296 295 294 295 300 317 319 319 319 319 318 315 313 311 312 312 310 308 307 306 306 305 306 308 311 313
339 322 335 335 334 332 331 330 330 326 325 321 300 305 296 295 294 294 294 298 313 309 318 318 318 318 317 314 313 311 311 309 308 306 306 306 305 305 304 305 305 309 311
337 336 336 334 332 328 330 329 329 329 329 324 315 306 300 295 294 295 297 317 319 317 317 315 316 315 314 313 312 310 308 305 303 305 305 305 305 305 304 305 305 303 306
332 322 327 331 330 332 331 330 329 329 328 325 322 321 317 311 314 316 317 318 317 316 317 314 314 314 314 312 309 307 304 305 306 304 304 304 305 304 304 304 305 305 307
332 331 324 331 330 329 328 328 328 328 325 325 324 322 310 319 319 319 317 316 316 317 316 314 315 313 312 309 306 304 305 306 306 304 304 304 304 303 304 305 305 305 305
330 329 328 328 327 327 328 328 327 325 324 324 323 317 302 318 320 319 317 317 317 318 317 316 313 312 310 306 304 304 306 305 305 303 303 303 303 304 304 304 304 304 304
330 328 328 330 329 321 327 327 327 325 324 324 323 321 318 318 320 319 317 317 317 316 316 314 312 309 309 304 304 307 304 304 303 303 302 303 303 303 304 303 304 304 304
330 329 328 327 327 326 326 326 325 315 323 323 323 321 320 320 319 319 318 317 316 316 314 312 310 308 305 302 303 304 305 304 303 303 303 303 303 302 304 303 303 304 304
328 326 324 323 326 324 326 324 325 322 321 321 320 320 319 319 318 318 319 317 316 315 312 311 309 306 303 301 300 299 289 286 295 288 301 304 303 304 303 303 303 303 304
326 326 324 325 323 323 322 321 319 319 318 318 318 318 318 317 318 317 317 317 315 314 312 310 308 305 303 301 300 289 284 285 292 284 296 302 302 303 301 302 302 302 302

GFSGL_sfc_thetae_021.txt.gz
Theta_e
369 370 370 369 368 371 367 368 367 366 363 358 356 355 351 349 349 351 349 347 345 347 346 343 342 347 337 335 336 339 336 335 327 330 336 337 346 344 341 343 340 337 337
367 371 370 371 368 367 367 368 368 364 363 359 357 355 350 346 343 342 345 343 344 343 345 346 343 338 348 347 338 344 338 340 330 334 335 333 340 343 345 345 338 336 333
364 365 368 369 368 366 368 369 367 364 356 356 356 351 349 344 342 348 348 345 344 344 344 344 343 345 344 340 346 340 336 338 342 330 330 333 334 335 336 340 342 339 336
358 360 366 369 369 367 369 369 368 363 358 356 355 353 349 347 345 346 346 344 344 344 343 343 342 343 342 345 344 344 342 337 336 331 331 330 331 336 331 330 328 332 326
362 363 366 371 371 371 368 368 368 361 359 356 354 352 349 342 339 343 344 343 345 343 342 345 346 345 340 339 337 340 344 337 331 328 328 327 327 331 328 329 327 328 330
366 365 369 372 370 370 368 367 365 361 355 354 352 348 345 334 329 332 340 341 344 343 344 343 345 342 340 334 332 331 334 335 336 330 327 326 332 331 331 330 327 323 320
367 367 370 372 370 369 367 365 362 357 353 350 348 346 338 341 326 329 334 341 343 344 346 345 342 339 339 340 333 329 329 328 327 331 330 331 330 332 333 330 328 325 321
367 368 370 372 370 367 362 361 358 354 353 349 347 344 344 346 326 325 330 340 343 343 343 347 346 345 344 341 337 338 337 337 337 332 334 333 333 332 328 326 326 325 324
363 367 368 368 368 365 359 357 354 352 350 347 345 344 343 349 324 323 329 339 339 343 346 347 345 342 333 327 334 335 334 334 330 325 324 321 319 320 321 321 319 317 316
364 364 368 369 366 360 358 357 355 351 348 346 344 344 336 347 324 319 326 339 339 337 346 348 329 334 321 321 328 331 330 331 330 330 329 325 323 325 321 324 322 318 316
359 360 363 363 364 361 355 356 351 345 345 344 344 343 343 343 342 318 317 339 335 336 342 341 338 318 314 313 314 329 327 324 327 325 323 323 325 323 322 326 330 322 316
364 363 363 363 358 356 355 353 346 346 342 342 340 340 348 350 328 317 315 316 328 336 334 334 333 313 312 310 313 313 310 311 321 320 320 319 317 318 319 321 327 324 322
362 360 359 358 355 355 351 344 339 343 340 338 339 345 344 348 346 315 314 314 316 327 329 314 314 310 308 309 312 313 309 319 319 320 318 316 316 317 324 322 325 327 326
357 352 350 347 348 348 343 342 340 340 340 343 342 341 343 345 340 337 333 322 318 320 316 321 319 317 315 314 318 316 319 321 320 316 314 316 316 314 312 312 310 310 310
349 345 344 342 344 338 328 334 343 329 326 341 341 341 337 334 332 323 321 323 324 321 328 329 325 324 323 323 323 325 321 321 317 317 315 313 312 311 309 310 309 310 309
347 345 344 341 341 341 336 328 301 302 299 300 303 318 322 313 303 298 299 300 303 307 324 323 321 322 324 322 320 319 320 318 316 316 314 312 309 308 307 307 308 308 309
346 345 341 338 340 339 337 335 332 315 299 297 298 300 305 303 298 297 296 297 299 304 319 319 319 324 326 323 320 318 315 316 318 313 311 310 308 307 306 306 307 307 307
344 327 340 339 337 336 334 333 331 329 326 324 303 306 297 297 296 296 296 300 314 310 317 318 320 323 321 318 317 316 315 314 312 310 308 308 307 306 305 306 306 307 306
340 338 339 337 336 331 333 331 330 329 329 327 317 309 302 296 296 296 297 318 320 319 319 318 318 317 316 316 315 314 313 311 307 306 307 307 306 306 305 306 306 302 304
336 327 330 334 332 331 330 328 328 328 326 324 322 322 316 310 315 316 316 319 319 317 317 316 316 316 315 314 314 312 309 307 307 307 306 306 306 306 305 305 305 305 306
332 330 327 331 331 330 329 328 327 327 327 323 323 320 310 319 320 319 319 320 318 318 318 317 316 316 315 313 310 307 306 306 307 306 305 305 306 305 306 305 305 305 305
332 329 329 328 328 328 327 327 327 325 324 324 318 313 304 321 321 321 320 320 319 320 319 319 316 314 313 310 308 305 305 305 306 305 304 305 305 306 305 305 305 305 305
329 326 327 328 328 323 327 327 326 325 324 322 319 319 321 322 321 321 321 319 319 319 319 318 316 313 312 309 306 305 305 305 305 305 304 304 305 305 305 305 304 304 305
328 328 325 326 326 326 326 325 326 316 324 322 322 322 323 322 321 321 323 321 321 319 317 317 314 311 310 307 305 304 305 306 305 304 305 304 305 304 305 305 304 305 305
327 326 323 324 324 324 322 323 323 322 322 323 322 322 321 318 318 320 321 320 319 319 317 316 314 311 308 306 305 304 292 289 297 288 302 304 305 306 304 304 303 304 304
322 323 322 322 322 323 323 320 321 321 320 320 321 320 320 320 319 319 320 318 316 317 317 315 313 311 308 306 304 290 284 287 293 285 296 301 304 304 302 303 303 303 303

GFSGL_sfc_thetae_024.txt.gz
Theta_e
367 368 368 367 368 365 363 363 361 362 361 357 356 352 350 350 351 348 346 348 345 345 343 344 344 345 340 339 341 340 338 332 328 332 335 337 339 339 338 340 342 339 336
366 367 367 368 368 366 362 365 365 361 364 360 355 352 351 348 349 346 344 344 343 343 343 344 343 342 341 342 340 339 338 337 333 329 332 334 336 337 340 339 339 336 336
364 364 366 366 365 364 365 362 364 363 359 354 355 352 350 348 346 346 346 345 342 341 342 343 341 342 341 340 341 338 339 339 336 332 330 334 333 337 333 336 335 336 335
362 362 363 365 365 364 364 364 363 364 359 356 354 352 351 349 347 345 346 345 344 343 346 344 343 342 342 341 342 340 339 337 334 332 329 329 330 332 333 329 328 331 330
358 360 362 366 366 366 364 364 363 365 361 357 353 352 352 348 346 343 344 345 344 342 344 345 344 344 342 340 340 338 337 335 332 330 328 328 326 327 325 327 325 327 328
355 358 362 364 367 365 364 364 364 364 362 358 353 352 350 346 334 333 342 344 343 342 340 343 342 343 339 335 333 333 334 333 330 328 327 326 327 329 328 327 324 322 319
359 359 361 363 365 365 365 363 363 362 360 357 352 351 349 347 328 329 334 344 342 341 343 342 342 339 340 342 334 331 331 330 329 331 327 327 328 329 330 326 324 322 319
359 362 364 365 365 365 364 363 361 363 360 354 352 350 347 345 325 325 331 340 339 340 342 343 343 342 343 341 339 339 337 336 331 330 329 330 332 332 330 325 322 320 320
359 366 364 367 367 365 364 362 362 360 357 352 348 346 344 341 323 324 328 334 336 339 342 343 344 341 336 329 335 333 334 334 333 325 329 326 323 321 322 322 318 315 314
361 362 368 370 367 366 365 363 363 358 353 353 349 347 336 339 321 320 326 337 335 335 341 342 330 337 326 322 330 333 330 331 333 331 329 326 322 323 322 322 320 316 315
365 366 369 368 368 368 364 361 358 354 351 349 346 342 340 337 336 318 318 337 336 336 339 339 340 321 316 316 318 329 326 320 326 327 324 322 323 323 325 328 325 322 318
366 366 367 368 364 362 359 354 354 350 346 345 341 339 340 342 328 316 316 320 330 339 340 340 338 314 312 314 314 315 312 314 321 320 319 319 320 320 320 321 321 320 319
363 363 364 364 362 359 354 349 346 346 340 338 337 336 337 347 345 315 313 315 317 333 334 320 312 311 312 311 312 313 313 318 318 318 318 317 317 319 321 319 321 322 322
363 361 358 351 349 348 344 342 341 340 339 338 338 340 344 343 337 331 328 324 319 324 318 317 317 317 316 320 318 314 317 320 322 320 317 317 320 316 314 314 311 310 307
353 351 350 347 345 333 320 325 340 324 326 341 345 343 339 338 337 328 329 333 330 324 321 323 321 321 320 320 321 322 321 321 320 320 318 317 314 313 311 312 310 307 306
345 344 342 343 339 332 326 319 301 302 300 300 305 325 321 312 304 302 300 301 305 311 323 331 327 325 324 321 322 321 320 320 318 320 318 315 312 310 309 309 309 309 307
347 344 341 340 340 339 336 331 320 310 300 298 299 305 306 302 299 298 298 300 305 310 327 325 322 324 323 321 320 318 315 318 319 318 316 314 311 310 308 308 307 308 307
347 328 342 340 338 339 337 337 332 325 322 317 302 305 297 297 297 297 298 305 316 313 321 319 320 322 321 319 317 316 318 317 315 313 310 309 309 309 307 306 307 306 305
341 341 341 338 337 334 336 335 332 330 329 319 313 307 301 297 297 298 299 320 321 321 319 320 322 321 320 320 319 319 316 314 310 308 308 309 310 307 306 306 306 303 304
338 327 335 337 331 334 333 330 331 330 328 323 322 318 314 311 315 316 317 319 321 322 320 319 319 319 319 318 317 316 314 312 310 311 310 309 309 307 304 305 304 304 305
336 334 322 331 331 331 331 330 330 330 328 326 325 321 310 319 319 320 319 319 322 322 322 320 320 319 319 318 316 312 309 308 309 308 307 306 308 305 307 306 305 305 305
331 330 331 330 330 331 329 331 332 328 328 325 327 316 303 319 322 322 321 321 319 323 322 323 320 319 317 314 311 310 308 308 308 307 306 306 306 306 306 304 305 305 305
328 325 324 328 326 321 322 328 323 322 325 325 324 317 316 320 324 322 322 321 319 319 319 319 320 317 316 313 311 309 308 307 307 307 306 306 305 306 305 305 304 303 304
327 325 325 327 330 325 326 324 326 318 323 323 322 322 321 322 320 322 318 322 318 317 317 315 315 316 314 312 310 308 308 307 305 304 304 303 303 305 305 305 304 303 304
326 325 322 322 324 325 323 323 324 323 323 324 320 321 323 324 323 320 319 318 318 318 317 317 315 316 314 311 310 299 289 289 298 290 301 303 303 306 306 302 304 303 305
323 323 323 323 323 325 323 322 323 321 320 321 323 320 323 321 321 322 318 319 320 318 317 316 316 316 312 309 307 290 284 288 294 288 295 299 301 305 304 303 304 302 303

GFSGL_sfc_thetae_027.txt.gz
Theta_e
359 357 359 360 359 356 356 353 351 350 349 348 348 347 344 344 343 341 336 336 337 334 335 333 334 333 330 329 333 331 328 325 320 323 327 328 332 329 332 331 332 331 331
360 360 358 359 361 357 354 354 355 349 351 350 348 347 344 342 343 340 336 338 336 335 333 331 332 336 330 330 331 329 329 328 325 321 324 326 326 327 329 330 332 335 331
360 361 360 359 359 359 356 356 356 353 351 350 350 347 344 343 342 340 337 335 336 336 335 334 334 335 331 332 332 332 332 331 328 325 323 326 327 327 328 327 327 328 331
360 359 359 359 360 360 360 356 356 356 352 349 348 346 344 343 342 340 338 337 336 335 334 336 336 336 332 331 330 330 330 329 327 326 324 323 324 325 325 322 320 323 324
358 358 357 359 361 360 360 359 355 355 354 351 347 346 345 343 342 339 339 338 337 335 335 338 338 338 339 337 332 330 330 327 326 324 322 322 321 320 319 320 319 320 321
354 355 357 357 359 359 359 358 358 354 356 351 346 345 344 345 336 335 338 337 337 336 334 336 337 341 338 336 335 333 333 327 324 322 321 320 320 321 321 320 318 315 313
349 354 355 356 357 358 358 357 356 355 356 354 348 345 344 345 331 332 336 337 337 335 334 337 337 338 337 334 331 330 330 330 329 325 321 320 320 322 321 318 317 316 314
347 350 354 355 356 358 358 356 356 357 356 354 349 347 346 345 329 327 332 334 335 335 339 339 337 335 332 332 330 329 330 330 326 327 324 325 323 325 324 321 319 315 314
347 348 352 355 356 358 357 357 356 356 353 352 350 348 346 338 323 323 327 332 331 332 333 337 336 332 331 327 329 327 326 328 331 326 326 325 324 325 324 317 314 309 308
346 351 353 355 356 358 358 357 356 355 354 350 346 345 336 336 322 319 324 330 328 330 332 335 330 332 325 323 328 327 323 324 324 322 321 322 320 319 322 318 317 310 309
352 354 357 358 359 360 358 358 356 352 349 348 345 342 340 336 327 317 318 332 331 331 332 332 332 322 318 318 320 326 324 317 319 317 317 317 316 316 320 322 320 315 311
357 358 361 361 361 360 358 354 350 347 347 343 341 338 338 337 326 316 315 320 329 332 330 331 328 316 314 315 316 314 311 313 314 314 311 311 312 312 315 313 315 317 317
358 358 359 358 358 355 350 347 345 341 341 338 337 336 336 337 333 317 314 316 318 325 328 322 313 309 311 311 313 312 313 311 311 310 309 310 309 311 309 308 307 306 306
356 353 349 348 346 345 345 344 340 338 337 336 335 334 334 334 325 321 319 318 318 321 317 315 314 314 312 314 311 310 309 310 312 311 310 309 309 306 305 305 302 301 298
347 344 343 339 330 321 311 319 333 318 329 337 336 335 334 331 327 321 320 323 322 318 316 314 311 311 310 311 312 311 311 313 315 314 311 307 304 304 303 302 301 298 296
340 341 336 332 327 323 319 313 302 301 300 302 310 324 313 312 308 304 307 310 310 308 315 316 313 313 313 312 312 313 317 318 316 315 309 305 303 302 299 300 299 298 298
338 338 335 330 328 326 324 319 313 309 301 298 299 304 308 305 302 299 298 300 304 308 315 316 315 312 314 315 315 317 315 316 314 309 305 302 299 299 300 299 298 298 297
338 325 337 334 331 329 326 322 318 318 315 312 300 301 297 297 297 297 299 305 308 307 311 310 310 312 314 314 309 309 306 307 303 299 298 297 297 299 298 297 297 296 296
337 337 337 336 336 332 332 326 320 320 315 310 304 301 297 296 297 298 301 311 310 310 309 310 309 308 308 308 307 306 304 300 298 297 296 298 300 297 296 296 298 300 299
327 327 330 330 330 332 331 328 325 322 315 311 310 308 304 303 305 306 307 309 309 311 309 307 307 307 306 306 305 303 301 300 299 299 298 298 297 296 296 297 297 296 297
327 324 325 328 324 325 322 322 325 322 317 315 315 310 304 310 309 309 308 310 310 311 308 308 307 307 306 305 304 301 299 298 298 297 296 296 297 296 297 297 296 298 297
326 324 325 324 324 324 323 323 325 324 320 318 317 310 302 311 312 312 312 312 314 313 312 310 308 307 304 301 300 298 296 297 297 296 296 296 296 297 297 296 297 297 296
325 324 323 323 323 321 320 319 320 322 322 321 317 311 308 311 313 314 314 316 314 312 314 313 311 306 304 300 299 298 296 297 297 297 296 296 295 296 297 296 297 295 294
323 324 322 322 322 322 321 319 320 316 319 319 315 312 312 313 315 315 317 315 313 314 313 312 311 307 303 300 297 296 298 296 296 294 293 293 294 295 297 297 295 295 295
323 321 321 319 319 319 319 320 318 316 317 317 315 315 316 315 317 315 317 315 314 313 312 312 309 305 302 300 295 291 289 290 290 290 292 293 292 294 295 294 294 295 295
320 321 320 319 319 320 319 317 315 315 316 318 317 318 316 316 315 316 313 311 311 310 310 309 308 306 303 298 294 288 285 288 289 288 288 289 290 293 296 294 295 296 295

GFSGL_sfc_thetae_030.txt.gz
Theta_e
351 352 351 352 350 350 353 350 348 343 344 342 345 342 341 337 336 337 333 334 332 332 332 329 329 329 328 326 329 326 324 322 318 319 323 325 328 326 328 330 330 328 330
353 353 352 353 353 351 350 353 350 348 345 345 344 343 342 340 338 338 335 335 334 331 332 331 329 334 328 326 329 326 325 325 322 319 321 323 324 326 327 327 330 333 330
353 353 354 354 354 353 352 351 352 349 347 346 345 344 342 342 340 339 338 334 333 334 333 331 330 328 331 328 328 327 328 328 325 322 322 324 325 327 325 326 326 327 328
354 353 352 353 356 356 354 352 351 352 346 347 346 345 344 341 341 340 338 334 333 334 334 333 331 331 332 330 331 332 327 325 324 323 322 322 322 324 322 321 318 320 322
354 354 353 354 355 357 356 354 352 351 352 347 346 345 344 342 340 339 338 336 334 333 333 334 334 336 337 333 331 330 328 326 324 322 321 320 320 319 319 319 318 319 319
353 354 356 356 355 355 356 356 353 352 351 348 346 344 341 343 334 335 338 336 336 334 332 332 334 339 338 334 333 332 330 326 323 322 320 318 318 319 320 319 317 314 312
352 354 355 355 355 356 356 356 355 352 351 348 345 344 342 343 330 331 335 338 337 336 334 333 333 338 336 335 331 330 329 329 329 326 321 321 319 320 319 317 316 315 314
351 353 354 355 354 356 356 355 355 355 351 350 346 345 344 344 327 328 333 339 338 337 335 334 334 334 335 332 332 329 330 329 327 327 325 326 323 323 322 321 319 316 314
348 350 353 354 353 355 354 354 354 355 353 352 349 346 344 344 325 324 330 336 336 336 337 337 338 333 329 326 330 326 325 326 328 325 325 325 323 324 324 318 317 312 310
344 346 352 353 354 353 355 355 355 355 353 353 350 348 341 344 322 320 330 335 333 333 329 332 327 331 323 321 328 325 323 325 324 321 320 320 320 320 322 319 315 310 308
345 346 347 352 353 354 356 357 355 354 353 352 347 346 343 337 325 317 319 331 331 327 328 330 332 321 316 314 318 325 322 319 320 314 313 313 312 313 314 316 318 316 311
342 343 346 350 353 354 357 356 354 353 349 345 341 339 339 335 324 314 315 319 325 327 329 332 329 316 311 311 317 317 316 316 312 310 309 309 309 308 309 310 310 315 318
344 346 349 351 353 357 356 354 350 348 345 340 339 337 335 335 328 315 313 315 319 328 333 325 313 309 310 313 316 314 312 310 308 307 307 308 308 307 306 305 305 303 302
347 354 356 356 355 356 354 352 348 343 340 339 336 334 334 335 331 324 320 317 317 323 319 317 314 313 313 315 311 311 310 308 307 308 308 308 307 303 303 302 300 299 296
354 353 351 347 339 322 320 333 339 327 337 337 336 336 334 331 326 319 318 321 323 320 317 317 313 311 311 310 310 309 308 307 308 309 309 307 304 302 301 299 298 296 294
340 338 335 330 326 324 322 316 306 305 310 310 316 325 318 318 307 304 302 303 304 307 316 312 311 310 310 309 308 309 309 311 309 310 309 304 301 301 298 297 297 295 294
335 332 330 328 328 326 324 323 317 313 305 299 300 304 308 308 302 300 300 300 301 309 314 313 312 311 312 312 310 309 310 312 312 307 303 300 298 296 297 296 295 295 295
333 320 330 329 327 327 326 321 321 322 318 311 300 301 300 300 299 298 299 303 309 308 312 311 310 310 310 310 310 307 304 300 298 297 296 298 296 297 295 294 294 294 293
335 333 331 330 327 323 322 321 319 318 315 308 305 302 298 296 297 297 302 311 309 308 306 306 307 308 306 305 304 303 301 299 298 296 294 296 297 295 293 293 295 297 297
331 327 330 331 328 326 323 320 318 315 312 312 313 309 302 305 307 307 308 309 309 309 308 305 305 305 304 304 302 301 299 298 296 296 296 296 295 294 294 294 294 293 294
325 327 325 329 330 329 325 322 320 315 313 310 311 308 302 312 308 308 307 306 308 307 306 306 304 304 304 303 300 299 297 296 295 295 294 294 294 293 294 294 293 295 294
324 324 325 324 323 323 324 324 322 318 315 314 313 307 299 309 309 308 307 308 309 309 308 307 305 305 304 303 301 299 296 296 295 294 294 294 294 294 294 294 294 294 293
321 321 320 320 320 319 321 322 322 320 318 317 314 309 306 308 309 309 310 310 310 309 308 308 307 302 300 299 298 297 295 295 295 295 295 294 293 292 293 294 294 293 292
322 321 320 319 319 319 318 318 321 317 320 318 315 311 309 310 310 312 313 312 312 312 311 312 309 304 300 298 296 295 296 296 295 295 294 292 291 292 292 292 292 292 293
324 322 322 320 320 319 318 320 320 320 321 319 316 312 311 311 311 313 313 313 313 312 312 311 307 303 300 297 295 296 292 290 291 289 290 291 291 291 292 293 291 292 293
324 323 320 318 317 316 316 316 315 315 316 316 313 312 312 312 312 313 312 310 309 310 309 306 304 303 300 297 294 291 286 287 289 288 288 288 288 290 291 293 293 292 292

GFSGL_sfc_thetae_033.txt.gz
Theta_e
346 347 348 348 349 349 348 346 344 343 342 342 343 341 338 333 336 335 332 331 329 329 329 327 327 326 325 325 326 324 322 319 316 318 321 324 325 325 326 328 331 328 328
347 347 346 347 347 348 349 349 346 342 342 341 343 341 339 337 333 336 334 334 331 328 329 329 328 330 326 327 327 326 322 323 320 317 319 322 323 325 325 325 328 331 329
345 347 347 347 348 347 347 350 349 346 342 342 342 341 340 338 335 335 336 334 333 332 329 329 329 328 326 328 327 326 327 326 323 321 321 322 323 324 324 324 325 326 328
346 346 346 347 348 348 348 347 349 350 346 342 342 342 342 341 338 337 335 335 333 333 332 331 330 329 327 328 327 326 327 326 323 321 320 321 321 322 321 320 320 319 320
346 346 347 349 349 350 350 349 348 349 349 346 343 342 343 341 341 338 337 335 334 333 332 333 332 333 334 330 329 328 328 325 325 321 319 318 319 319 318 319 317 317 319
346 347 349 349 350 351 351 351 349 348 349 346 344 343 342 342 334 334 339 337 335 334 332 332 333 337 335 333 332 331 330 326 325 321 319 318 321 320 319 318 317 315 313
348 348 349 349 349 350 352 352 350 348 348 346 345 344 342 343 329 330 335 338 335 334 334 335 334 336 334 334 331 330 330 329 329 323 321 321 322 322 320 319 315 314 314
348 349 350 350 349 350 351 352 352 351 349 348 344 344 343 343 327 326 333 339 336 337 337 336 335 335 332 332 330 328 329 328 327 328 326 326 323 325 321 320 317 315 314
346 348 350 352 351 351 350 351 353 353 351 350 347 344 343 343 324 323 329 338 337 337 337 337 336 334 328 326 329 327 327 327 327 324 324 323 324 324 323 318 316 312 310
347 348 351 352 352 352 352 352 353 354 353 351 349 347 340 344 321 320 328 338 336 336 336 336 328 331 321 320 328 327 325 322 322 321 320 319 318 317 321 319 316 311 307
346 350 350 352 352 353 353 354 354 353 353 351 350 350 345 343 327 317 323 338 337 335 334 328 328 320 315 314 318 326 323 321 321 317 314 311 310 311 311 311 313 312 308
343 344 348 350 352 352 352 353 354 353 352 351 351 346 345 338 321 315 319 325 327 331 325 326 327 317 310 309 313 314 314 318 315 312 309 307 308 309 307 307 306 309 313
338 341 342 346 350 352 351 352 353 353 351 349 346 341 338 336 327 315 315 315 319 325 327 325 315 309 306 311 314 314 314 313 310 307 306 306 308 306 305 303 303 300 300
335 337 340 342 346 350 352 353 353 351 350 344 341 338 336 334 333 325 321 320 318 323 317 318 317 316 315 316 314 312 313 309 308 306 306 307 306 304 301 301 299 297 295
336 335 339 343 343 332 317 336 352 335 344 341 338 338 334 333 331 319 319 321 325 320 318 318 317 313 314 311 310 309 308 308 307 306 307 306 305 301 301 298 297 295 293
341 335 331 328 326 324 324 320 308 313 313 313 315 327 327 317 307 305 301 304 305 307 319 319 317 315 312 310 309 308 307 310 306 306 307 306 304 300 299 296 295 293 292
330 329 329 328 330 330 328 328 326 320 310 305 302 305 312 311 301 299 300 300 302 310 319 316 312 310 310 310 309 308 308 309 309 308 307 303 301 297 295 295 293 293 293
330 320 331 332 334 329 327 326 327 326 328 319 304 304 300 299 299 299 298 303 314 313 313 312 311 311 311 310 310 309 307 304 302 300 297 295 294 295 295 293 292 292 292
331 330 331 332 330 327 328 327 327 328 324 314 308 303 299 297 297 298 302 320 317 311 309 309 309 308 308 307 306 303 300 298 297 295 294 295 296 294 292 292 293 296 295
331 324 326 325 322 323 322 322 321 317 316 319 320 311 305 309 313 312 310 311 312 310 307 306 306 306 304 303 301 300 298 297 295 294 294 294 294 293 292 293 292 292 292
328 328 324 326 324 323 322 321 318 318 317 318 318 311 305 316 312 311 311 310 308 308 305 305 305 304 303 302 300 299 298 296 295 294 295 293 293 292 293 292 292 293 292
323 324 326 325 324 321 320 319 317 315 315 313 308 303 299 312 313 310 308 307 307 307 307 306 305 304 304 303 301 299 296 295 294 294 293 293 292 293 293 293 292 292 291
320 320 320 319 321 318 321 319 315 313 312 311 310 307 306 308 309 309 308 307 307 306 306 305 305 303 303 302 301 300 296 295 295 294 293 293 292 292 292 292 292 291 290
320 319 319 318 318 318 319 319 318 312 316 313 312 309 308 308 309 308 308 308 308 309 307 305 306 307 302 299 297 296 295 295 294 294 294 293 291 291 291 291 291 290 291
320 321 319 320 319 318 318 319 319 320 321 318 315 312 309 308 308 310 310 310 309 308 308 307 307 303 300 298 296 294 292 291 294 291 291 290 289 289 290 291 291 291 291
323 323 321 320 319 319 318 319 319 320 321 319 318 314 311 309 309 310 311 310 310 309 308 307 305 303 301 298 296 293 287 288 290 287 289 289 288 287 290 292 292 291 290

GFSGL_sfc_thetae_036.txt.gz
Theta_e
346 347 347 347 348 348 347 347 346 347 348 347 348 347 344 340 339 338 336 336 335 335 334 332 333 334 331 332 332 330 327 325 324 327 328 333 335 335 335 338 337 337 336
345 347 347 348 348 347 347 348 348 346 346 347 347 346 345 341 340 338 336 336 335 334 335 333 333 332 333 333 332 332 331 330 328 328 328 330 332 334 335 334 334 335 337
344 345 346 347 347 347 348 349 348 346 345 345 346 345 344 342 338 340 339 338 336 336 335 334 334 333 332 332 332 332 332 331 331 328 328 330 331 332 332 333 334 335 334
343 344 344 346 347 347 349 350 350 348 345 344 344 345 345 343 341 339 339 338 338 337 337 335 335 334 333 333 333 333 333 332 330 330 329 328 329 331 329 327 328 328 329
343 343 344 346 347 347 347 348 350 350 348 345 344 344 345 343 342 340 339 338 337 337 337 337 336 336 335 333 334 333 334 333 331 330 327 323 327 327 327 326 325 325 327
343 342 345 346 347 347 348 347 347 349 350 348 344 344 343 343 335 333 339 339 339 337 336 337 338 336 335 331 331 331 334 334 332 331 331 325 329 328 326 326 325 326 324
343 343 344 346 346 347 348 348 347 346 348 349 347 345 344 345 329 330 334 341 340 338 338 338 336 338 336 338 331 330 330 329 332 335 332 327 329 328 330 327 326 325 324
343 344 345 346 346 348 348 348 348 348 347 347 347 347 346 345 327 326 333 342 341 339 339 338 338 337 336 336 337 336 335 335 334 335 332 334 333 332 332 331 328 326 325
344 344 346 348 347 347 348 349 350 350 349 348 349 347 346 346 325 324 329 342 340 338 339 339 338 338 330 326 335 335 335 334 327 325 326 325 324 324 328 328 324 322 320
345 346 348 349 348 348 348 349 351 352 351 350 349 349 341 347 324 321 328 341 339 338 339 338 329 335 321 321 337 335 333 333 332 324 327 324 324 323 324 328 324 318 318
344 348 349 350 350 350 350 351 351 351 352 351 350 350 347 345 340 318 320 341 339 338 337 336 337 320 315 313 321 336 333 329 325 328 326 321 319 320 320 321 323 320 317
344 347 348 350 351 352 351 351 351 351 351 351 350 348 348 348 329 317 318 328 332 339 337 335 334 315 310 309 316 317 315 321 325 322 320 317 316 318 316 317 317 320 321
341 342 348 350 352 353 352 352 351 352 351 350 349 346 346 347 338 315 316 320 324 335 334 328 316 308 307 310 313 314 315 325 322 318 317 315 317 317 316 314 314 312 312
336 338 341 344 347 352 353 352 352 351 351 350 348 346 345 337 332 329 330 330 324 324 319 321 318 317 317 319 317 317 321 322 319 318 315 316 315 314 314 312 311 308 307
336 337 340 340 327 324 322 320 329 320 331 350 349 346 335 330 328 324 326 328 328 319 319 322 321 321 320 319 318 316 317 317 315 314 315 315 315 313 312 309 307 306 305
332 330 329 328 329 330 330 325 309 311 310 309 310 320 329 319 312 312 310 310 308 309 321 322 321 320 319 318 316 315 315 315 315 315 316 316 315 313 311 306 305 304 303
330 330 330 329 328 326 325 324 322 321 308 309 311 314 311 311 308 303 301 301 303 314 326 324 323 320 319 319 317 316 316 316 316 315 315 315 314 311 306 305 303 302 303
333 319 331 330 329 328 327 326 325 324 323 325 304 301 300 302 299 298 300 306 316 319 325 324 320 318 319 318 316 316 316 316 316 316 315 313 309 305 304 303 302 302 302
330 330 333 329 329 326 329 327 326 325 324 324 311 305 300 297 300 304 305 323 322 320 320 320 321 319 317 317 317 317 315 314 311 310 307 304 304 304 303 302 302 299 300
328 322 325 327 327 328 327 326 325 325 320 318 317 314 309 311 315 319 322 324 322 319 318 318 317 317 316 315 313 311 308 305 305 304 303 304 304 303 302 302 302 302 303
330 328 323 326 324 324 324 324 323 323 323 323 320 315 308 323 320 318 317 318 319 317 314 314 312 312 312 311 309 308 307 306 306 305 304 303 303 301 303 303 302 302 302
329 328 327 325 325 323 322 321 321 322 322 318 312 309 303 318 318 316 316 316 316 316 314 314 312 312 311 310 309 309 308 307 305 304 304 303 302 302 302 302 302 302 301
326 326 326 325 324 318 322 321 320 319 318 317 317 314 315 316 316 314 314 315 314 312 312 313 313 311 311 311 311 310 308 306 305 304 303 301 301 302 302 302 301 301 300
323 324 323 322 323 323 324 321 319 312 317 315 316 316 315 316 316 316 315 314 313 313 312 312 312 312 312 310 310 309 308 306 305 304 303 302 301 298 301 301 301 300 300
324 323 324 324 322 322 322 320 319 318 317 316 314 313 313 312 312 314 315 313 314 314 312 312 312 312 309 310 309 308 300 292 302 297 303 302 300 300 299 300 301 300 300
323 323 321 321 320 320 321 322 321 320 319 319 317 315 314 312 312 313 315 314 314 314 314 313 312 312 311 309 307 298 287 288 295 291 300 299 298 297 298 300 301 301 300

GFSGL_sfc_thetae_039.txt.gz
Theta_e
354 356 356 356 358 359 358 359 361 362 362 361 360 360 360 358 358 355 354 350 347 347 346 345 345 347 341 340 341 339 337 335 330 335 337 342 344 344 342 345 343 343 341
353 355 356 357 358 358 358 359 361 360 363 363 362 360 359 358 358 355 352 349 347 346 346 345 343 342 344 344 340 343 340 340 335 337 339 338 341 345 345 345 341 339 341
353 353 355 356 357 357 358 359 361 360 361 360 361 360 359 358 357 355 354 351 349 348 347 346 344 343 342 340 341 339 339 340 340 336 334 338 339 340 340 342 343 343 341
351 352 354 356 356 357 358 359 360 360 360 360 361 361 360 358 356 355 354 352 351 349 348 347 346 344 343 344 342 342 343 340 340 337 335 335 337 340 338 336 335 338 335
351 350 352 356 357 358 358 359 359 360 359 360 359 360 359 358 354 355 354 353 352 349 348 347 347 345 339 342 341 343 344 340 337 335 334 335 335 334 335 338 333 334 337
351 350 353 355 357 357 357 358 359 359 360 359 358 357 357 354 340 337 350 353 353 351 349 348 349 342 339 333 334 336 342 342 340 336 334 334 338 337 335 334 331 330 328
351 352 354 355 355 356 357 358 358 358 360 359 357 357 357 357 331 331 336 354 353 352 352 351 348 346 340 344 332 331 332 332 336 344 339 339 340 338 334 336 336 335 332
351 352 354 355 354 356 357 356 357 357 357 358 358 357 357 356 328 327 333 352 355 354 354 353 352 350 346 346 341 337 339 342 340 340 344 345 345 342 339 341 340 338 336
350 352 353 354 355 356 355 355 356 356 356 356 359 359 357 357 326 324 332 348 352 354 354 353 352 351 337 329 341 339 342 342 332 328 330 328 328 328 333 337 332 329 326
351 352 355 356 354 355 355 356 358 358 357 356 357 359 349 358 326 322 331 350 351 351 351 352 331 344 324 322 341 344 341 340 341 338 337 329 326 332 326 338 334 326 322
352 353 357 358 358 358 357 358 354 356 359 358 356 357 357 353 353 320 321 350 350 348 347 346 344 323 317 317 325 345 341 343 336 338 335 331 331 332 331 331 331 324 320
352 354 358 359 356 354 358 354 352 352 355 356 354 348 351 357 332 318 316 324 337 348 345 345 340 317 314 314 321 322 319 329 336 334 328 328 329 328 325 326 328 327 326
351 354 356 358 357 360 357 349 353 351 351 352 350 344 350 351 350 318 315 318 322 340 342 333 320 314 312 313 316 315 317 334 332 329 330 329 328 326 326 325 324 325 325
353 354 356 356 356 358 357 357 354 354 353 353 352 353 352 352 342 327 323 326 320 326 321 321 319 320 320 325 320 320 333 334 333 331 330 328 325 322 321 321 320 319 317
349 350 352 348 342 337 335 345 345 334 347 356 356 356 350 341 326 317 323 331 329 323 327 329 326 325 325 325 325 327 331 330 330 330 327 323 322 322 322 322 320 318 314
338 339 337 337 338 341 337 328 307 307 306 306 308 318 319 312 308 307 309 309 310 313 326 327 325 327 327 325 323 324 327 328 329 326 324 322 322 321 321 319 318 315 313
338 336 335 334 338 337 336 334 330 318 304 300 301 307 312 315 308 308 309 308 306 310 328 326 325 327 327 327 326 327 326 327 327 323 322 323 323 323 319 318 316 313 310
339 322 339 338 339 338 336 334 332 329 327 324 304 305 298 300 302 299 300 305 311 322 329 327 326 328 328 327 326 325 325 324 323 323 323 324 323 322 319 316 313 311 308
337 338 339 339 337 332 334 332 332 333 331 328 320 309 301 295 295 296 299 325 324 328 328 330 330 328 326 326 325 325 325 324 324 324 324 323 323 319 315 313 310 303 304
337 323 330 333 332 333 335 334 334 333 331 327 325 323 312 315 312 315 323 326 326 328 329 327 329 329 327 325 325 325 325 322 324 324 323 320 317 315 313 309 308 307 307
332 334 326 336 336 335 335 332 329 325 326 326 326 319 306 323 320 323 325 327 327 326 330 332 329 327 325 325 325 324 323 322 321 319 316 315 314 312 310 309 308 307 307
334 332 334 332 331 331 331 330 329 326 323 320 318 313 305 325 324 325 328 330 332 332 331 328 326 326 326 324 323 321 319 318 317 316 314 313 312 310 309 308 308 307 306
336 335 335 334 332 323 330 330 330 329 325 323 320 322 326 329 330 329 328 329 328 327 327 326 324 323 323 322 321 321 318 317 316 315 312 311 310 309 309 307 307 306 305
332 333 332 332 331 331 330 328 326 318 327 323 321 321 327 327 326 326 326 326 325 324 324 323 323 321 321 320 320 319 318 317 316 314 313 311 309 306 308 307 307 305 305
329 328 328 329 329 329 330 329 329 328 326 326 327 326 326 323 322 324 324 323 323 322 322 323 322 322 321 320 319 318 303 296 311 303 312 311 310 309 307 306 304 304 305
325 325 322 322 324 323 323 323 322 321 320 321 320 319 321 326 324 323 323 324 321 322 322 322 321 321 320 320 319 305 288 289 301 294 310 310 308 307 305 304 303 303 304

GFSGL_sfc_thetae_042.txt.gz
Theta_e
363 365 366 366 365 367 365 369 370 370 372 367 367 364 363 365 367 366 364 360 358 357 353 350 352 354 342 341 342 340 338 337 332 335 339 345 348 347 345 347 347 346 342
362 366 366 368 367 365 367 368 370 371 371 371 370 366 363 364 366 365 362 359 357 355 354 352 350 347 350 351 342 351 344 347 335 340 344 339 346 348 349 348 343 341 341
360 359 362 365 365 366 368 368 369 370 371 369 370 369 366 364 364 364 363 361 358 357 355 353 350 349 348 345 345 343 341 342 342 336 336 341 340 343 344 347 345 346 343
354 356 361 365 366 366 368 369 370 371 371 371 371 372 370 366 364 362 362 364 361 358 357 355 352 348 348 349 346 347 347 342 344 338 336 336 339 344 342 337 338 342 339
359 358 360 365 367 368 368 369 370 370 370 371 371 371 369 367 359 366 365 363 364 360 360 357 354 350 342 346 343 349 352 342 337 337 335 335 334 336 338 337 337 337 341
359 358 362 365 367 368 368 369 370 369 370 371 369 369 368 362 343 340 358 363 364 364 361 358 358 347 344 335 335 337 347 351 346 336 335 336 345 340 339 338 334 333 330
359 361 363 365 366 367 367 368 369 369 369 369 369 369 368 368 334 333 340 363 363 364 364 362 355 352 348 351 335 333 334 335 338 350 345 344 343 344 346 342 339 337 334
359 361 363 364 365 367 368 367 368 368 368 368 367 368 367 367 332 329 336 360 364 366 365 365 363 361 358 354 351 345 343 347 347 343 349 348 349 351 349 344 342 341 340
359 360 362 364 364 366 365 366 365 365 363 363 364 365 367 368 328 324 334 356 358 364 364 366 363 362 345 332 351 350 347 344 333 330 330 333 332 332 337 341 336 334 330
358 360 362 364 366 365 365 365 364 363 361 359 362 364 351 364 333 321 330 353 355 355 363 365 336 355 331 325 349 347 340 341 346 342 341 333 333 336 328 342 337 332 330
356 357 361 364 368 365 367 367 366 364 364 363 359 360 363 361 360 319 319 351 352 354 355 357 358 328 319 318 329 349 343 345 339 345 339 338 341 341 337 338 341 334 326
359 356 360 364 360 358 367 366 366 366 364 362 356 353 357 359 337 323 318 322 343 355 355 353 352 320 315 315 324 326 321 329 343 337 337 337 337 335 335 336 337 333 330
358 360 361 364 362 365 363 363 359 361 356 356 355 351 352 356 356 325 319 316 323 342 357 346 325 312 311 315 319 320 321 341 340 335 335 336 333 335 337 332 333 333 332
357 359 361 361 360 361 359 360 357 356 355 354 353 352 350 350 349 352 333 325 322 330 326 328 321 322 321 324 323 323 335 338 339 337 336 334 335 332 326 327 323 323 321
357 358 359 359 359 360 360 349 357 362 342 353 354 354 353 353 354 336 334 337 336 329 328 330 331 332 329 326 328 330 334 334 333 337 335 333 330 326 324 324 323 322 319
356 354 353 355 357 357 354 341 306 305 301 300 309 329 353 312 308 307 306 308 311 312 330 331 333 332 330 330 328 328 331 332 336 336 335 331 325 324 323 324 323 321 319
353 350 349 345 351 351 351 341 336 323 304 300 300 299 302 305 303 303 302 303 306 314 328 329 329 332 333 329 329 331 331 332 335 332 331 328 327 324 322 323 321 321 319
348 325 349 349 350 348 347 344 342 339 336 333 307 304 298 298 298 298 301 309 320 322 333 331 332 332 331 330 330 332 330 333 334 330 328 326 325 324 323 322 322 319 316
345 342 344 343 343 339 341 339 338 335 334 333 332 316 305 295 296 299 305 331 326 328 334 334 335 331 332 332 332 329 332 331 330 328 326 325 326 325 323 322 320 308 309
339 326 332 338 337 337 336 334 333 336 336 330 332 332 322 322 327 323 328 329 326 328 332 334 333 331 331 328 330 332 332 328 328 327 326 326 326 324 321 319 317 312 310
339 339 328 340 339 340 340 337 337 335 332 328 329 326 311 328 328 326 326 331 330 332 334 331 329 328 328 332 331 331 329 327 327 327 326 326 325 321 319 317 313 311 311
339 338 337 335 336 336 335 334 330 328 327 327 328 320 302 331 329 328 330 333 333 332 332 332 331 333 332 332 331 329 327 325 327 326 325 323 321 320 316 312 312 311 310
338 339 336 335 336 326 332 333 332 332 330 328 326 325 327 326 327 328 329 330 332 334 336 335 335 332 333 331 330 328 326 325 325 324 322 320 318 315 313 312 311 310 309
336 335 335 334 334 333 333 333 332 322 326 324 326 329 332 334 334 334 334 334 334 333 332 330 330 328 327 326 325 324 324 323 323 322 321 318 315 311 313 312 311 310 309
331 331 332 332 330 329 331 331 331 331 332 331 330 330 330 332 330 330 330 329 329 328 327 327 326 326 325 324 323 322 304 301 315 308 318 317 315 315 312 311 311 309 308
324 323 320 320 319 322 325 325 326 327 328 327 326 328 328 327 327 328 326 326 326 326 326 326 326 325 325 323 322 302 289 293 307 295 314 315 313 312 311 310 310 307 307

GFSGL_sfc_thetae_045.txt.gz
Theta_e
369 370 371 371 372 374 370 370 371 374 377 371 373 369 370 369 371 372 370 368 365 365 363 363 359 361 344 342 343 342 339 338 333 336 340 351 356 350 348 349 346 349 343
368 369 370 372 373 371 371 371 374 373 376 376 372 372 370 369 371 371 368 362 365 362 361 360 358 350 359 358 344 355 345 350 337 351 350 344 350 355 356 355 347 342 344
365 365 368 370 371 370 371 373 373 374 374 374 373 372 371 369 369 372 370 368 365 364 363 361 358 357 359 346 348 345 343 346 345 338 337 341 343 345 349 353 353 351 343
360 362 366 370 370 370 372 374 374 375 374 374 374 373 373 372 369 370 369 369 367 365 365 363 360 357 356 357 354 352 353 345 344 340 337 336 340 349 343 339 341 343 341
361 363 365 370 373 373 372 372 374 374 374 375 375 374 374 372 366 368 368 368 369 367 367 366 363 357 347 351 350 351 350 346 338 338 337 336 335 337 341 340 337 339 342
362 362 366 369 372 372 373 372 374 373 374 375 374 373 372 368 346 340 358 366 368 368 366 367 365 351 347 338 338 339 347 351 346 337 337 339 350 345 340 338 337 335 333
361 366 366 368 368 372 373 373 372 372 374 373 373 373 372 373 339 335 341 365 367 367 369 368 365 358 351 355 337 335 334 335 341 350 345 347 355 352 352 351 348 342 337
364 361 368 368 369 371 372 372 373 373 373 372 373 374 373 372 337 329 335 361 364 366 365 366 366 363 359 354 354 345 343 343 342 343 350 351 351 357 355 353 352 349 345
362 364 363 369 369 370 370 372 373 372 372 371 372 372 371 372 333 328 334 358 360 361 362 365 365 364 348 335 354 351 345 344 334 331 332 332 335 337 343 347 338 338 333
362 365 368 370 370 369 371 372 373 372 371 367 369 372 360 371 334 324 335 360 358 356 360 360 339 357 337 326 353 354 350 345 344 342 338 335 334 336 332 346 344 335 340
361 364 369 370 371 372 373 374 373 371 367 369 368 370 371 367 364 321 322 356 354 353 354 356 360 330 328 321 329 356 350 348 338 343 340 339 340 342 339 339 343 339 339
366 365 368 371 367 366 374 373 373 371 369 369 367 366 366 372 341 322 326 330 346 357 355 356 357 323 323 318 323 334 324 332 343 340 339 338 338 339 341 340 342 343 342
369 368 370 372 370 370 370 371 365 369 360 360 358 358 357 360 365 328 323 321 321 344 359 342 324 313 314 317 321 322 324 341 340 337 336 335 337 340 340 340 342 343 340
369 370 370 370 369 369 364 363 360 358 358 356 356 354 356 357 358 360 357 341 321 332 335 347 337 328 323 330 324 326 339 338 338 339 337 338 339 337 334 334 330 329 325
363 361 365 362 363 364 359 347 359 354 338 357 357 357 355 354 354 331 341 357 350 339 340 340 334 333 328 330 331 335 339 342 339 340 340 338 333 331 330 328 327 327 322
358 357 356 357 359 360 354 343 305 306 301 301 300 321 351 319 311 312 311 312 310 312 339 334 331 330 328 329 331 333 335 336 339 336 334 332 330 328 325 326 326 325 323
365 364 356 351 358 358 359 356 351 317 302 300 299 300 299 297 300 299 297 303 302 313 335 331 330 330 330 331 331 332 332 335 337 334 333 333 328 327 326 324 325 325 321
356 329 355 354 354 354 354 350 351 350 348 342 307 307 299 298 297 298 301 313 326 327 331 329 329 329 330 328 330 329 334 334 332 337 334 327 328 329 325 326 325 322 321
351 351 351 352 351 345 348 347 344 343 340 338 333 317 307 299 300 303 308 328 327 327 332 332 332 331 330 330 330 331 332 332 332 329 328 329 329 328 327 324 323 312 316
344 330 337 345 344 345 344 342 340 340 339 339 338 338 330 327 332 329 332 335 332 332 335 336 337 336 336 332 332 331 332 328 328 329 331 331 330 328 325 324 322 319 317
342 342 334 343 342 342 341 340 338 337 338 339 337 330 309 334 333 333 330 333 334 333 336 337 337 336 336 334 333 328 328 328 330 329 327 328 329 325 326 324 322 319 315
340 340 339 338 338 337 337 336 336 335 334 331 331 326 305 331 333 334 333 334 336 337 339 338 337 335 333 331 329 330 331 330 331 331 330 329 327 325 323 320 318 315 313
336 338 338 337 336 330 335 336 334 335 334 334 333 330 331 334 336 335 331 333 336 338 337 336 333 330 331 333 332 331 330 330 331 332 330 327 325 323 321 319 315 312 312
331 331 332 332 332 332 334 334 333 324 332 333 334 335 335 336 336 336 337 337 338 338 338 336 336 336 335 334 334 332 332 332 331 329 329 325 322 317 319 316 313 313 312
328 326 326 330 330 331 331 329 329 333 333 334 332 331 332 334 333 333 334 335 335 335 335 335 334 333 332 330 329 327 304 299 321 312 325 324 322 322 316 314 313 313 312
323 322 322 323 323 325 324 322 323 323 325 325 327 329 330 330 329 327 329 329 329 329 329 328 328 328 327 326 324 301 289 296 310 296 318 320 318 316 315 314 314 312 311

GFSGL_sfc_thetae_048.txt.gz
Theta_e
365 366 365 366 365 363 359 362 361 364 366 372 370 365 364 365 365 367 364 363 362 360 360 358 355 353 350 351 348 349 346 344 337 340 347 350 347 345 343 348 346 345 340
365 366 365 367 368 366 362 362 364 366 368 367 369 367 365 363 365 365 363 359 361 359 357 359 358 353 352 354 354 346 345 347 342 339 347 346 346 347 348 350 347 343 343
365 365 366 366 367 367 366 364 365 364 367 367 370 366 364 364 363 364 364 363 358 362 360 357 355 355 351 347 349 348 346 349 350 341 341 348 347 348 346 348 349 347 347
360 364 364 366 366 367 368 368 366 367 364 367 367 367 367 365 364 363 364 364 363 361 362 359 358 354 351 352 347 345 347 345 343 343 340 338 344 345 344 342 341 345 342
357 360 362 365 368 368 368 368 369 367 367 366 367 367 366 366 364 363 362 364 363 362 361 362 360 357 348 348 350 349 344 344 342 338 337 338 338 341 338 340 338 341 340
358 358 363 364 365 367 367 367 368 368 367 368 367 367 366 365 348 343 357 362 364 362 361 360 361 352 348 340 340 342 346 342 340 337 335 333 336 339 344 339 338 337 332
358 362 363 364 364 366 367 367 366 367 368 367 367 368 366 367 341 337 342 361 360 362 362 361 359 360 350 352 338 337 337 337 339 342 336 338 340 343 340 342 341 339 337
361 361 365 365 364 366 367 367 367 366 367 367 366 367 367 367 340 333 337 357 359 360 361 361 360 359 358 354 350 343 343 341 339 342 343 342 347 349 348 344 342 341 341
359 360 362 366 365 365 366 366 367 367 367 367 368 367 366 366 336 332 334 353 356 357 358 360 361 360 348 335 351 347 343 342 334 332 337 336 338 339 345 343 338 335 332
359 360 365 363 365 365 365 366 369 369 366 367 367 368 357 367 340 328 334 359 355 354 356 356 338 353 337 328 348 349 346 343 342 338 337 331 333 335 334 344 340 333 331
361 364 364 365 363 367 368 368 368 368 367 366 366 367 368 364 364 325 323 361 359 354 352 350 354 329 324 322 327 352 348 349 341 341 338 337 336 337 336 338 340 337 332
365 365 365 367 363 365 367 368 369 368 365 365 364 365 366 368 341 326 320 327 346 357 354 355 355 324 321 321 322 335 326 332 348 340 337 335 334 334 337 337 338 338 338
375 369 367 367 367 366 367 366 366 367 364 363 361 361 361 365 366 327 319 319 325 342 349 340 322 317 310 316 319 324 323 342 341 337 334 335 335 337 338 338 338 336 334
372 370 369 368 366 367 367 367 365 364 363 361 360 358 361 361 360 365 342 332 326 333 337 341 339 328 325 329 330 325 340 345 340 336 332 332 335 337 336 338 333 331 325
369 367 367 366 364 366 354 347 362 345 337 362 359 360 357 357 352 331 336 354 358 343 344 352 351 346 341 340 335 335 340 343 337 333 330 330 334 335 330 330 328 326 322
365 364 360 360 364 363 344 337 304 304 301 300 303 333 328 311 304 303 303 303 308 313 341 344 337 336 335 335 331 333 336 337 337 334 334 334 332 328 327 327 326 323 320
366 362 359 352 361 360 353 347 333 314 300 299 299 301 303 300 300 300 301 301 305 321 341 334 331 329 328 328 330 332 333 333 337 336 333 331 330 328 325 324 322 321 320
367 330 359 357 361 359 357 357 352 340 336 328 306 307 298 300 300 300 303 314 331 330 332 330 328 328 329 328 329 329 331 333 333 332 331 330 328 325 324 322 322 320 321
358 362 364 361 361 354 355 355 352 355 349 330 323 315 307 299 300 303 311 335 332 332 332 333 335 333 331 329 328 328 329 331 332 331 330 327 326 324 322 323 322 316 318
350 333 342 351 349 349 347 345 344 344 342 339 338 331 328 324 331 334 335 334 333 332 332 336 337 336 336 333 334 334 333 329 330 328 328 327 326 326 323 323 323 318 318
344 344 337 344 344 344 344 342 342 341 339 339 333 321 307 336 335 333 332 334 333 333 336 337 336 336 337 336 334 331 331 330 330 328 328 328 328 326 325 323 322 318 317
342 341 343 341 342 341 340 341 339 338 335 333 332 325 306 333 333 333 334 334 335 339 338 337 335 336 335 335 334 334 331 331 331 330 329 328 328 326 324 324 321 319 315
340 338 338 338 337 331 335 335 334 334 334 333 331 330 331 333 333 333 334 334 336 338 340 338 337 335 336 336 335 334 332 331 331 330 325 324 324 325 325 322 319 316 313
333 332 332 332 332 331 330 332 332 324 332 333 334 334 333 334 335 335 337 336 336 337 337 337 335 334 333 335 334 334 332 331 332 332 330 326 324 319 322 320 317 314 312
323 324 326 325 324 327 327 327 327 324 324 325 328 327 325 328 328 327 335 338 340 340 338 338 337 336 335 333 332 331 302 304 324 316 330 329 326 325 322 319 316 314 313
318 319 319 320 321 322 321 321 321 323 322 320 319 319 320 321 322 324 324 325 324 324 329 335 336 335 336 335 322 297 290 298 306 297 326 327 325 323 320 318 318 313 314

GFSGL_sfc_thetae_051.txt.gz
Theta_e
354 353 355 355 354 351 354 350 350 350 352 358 357 357 357 356 359 356 353 354 354 352 351 350 347 344 337 336 337 335 331 330 324 327 331 334 333 337 336 334 338 337 332
356 356 355 357 358 354 351 353 350 349 353 353 360 359 358 358 357 357 354 356 352 352 351 348 348 349 341 339 342 334 334 334 328 324 334 336 333 334 334 336 338 340 338
356 357 357 357 358 357 355 352 354 352 351 356 356 358 358 357 357 357 358 357 352 353 353 351 349 348 343 342 340 340 336 335 336 328 332 335 337 337 337 339 339 338 340
355 357 357 358 358 359 360 357 354 356 354 358 356 357 358 357 356 358 357 357 356 353 355 354 352 350 347 344 340 339 337 335 334 333 329 330 335 338 336 334 334 338 337
354 356 357 359 360 360 360 361 360 356 358 355 359 357 359 359 358 356 357 357 357 356 354 356 355 352 348 345 345 341 338 336 335 332 330 330 328 334 336 335 334 335 337
346 354 357 359 360 360 361 361 361 361 357 359 355 358 359 360 346 342 353 356 357 356 356 355 356 350 347 339 340 341 342 336 332 336 332 331 332 332 336 336 336 332 330
348 349 355 358 358 359 361 361 360 361 362 358 359 358 358 360 339 337 342 357 356 357 357 357 356 357 348 351 338 337 337 337 336 334 335 333 332 335 336 335 334 332 330
347 350 351 355 357 358 359 360 360 361 360 361 360 360 360 360 338 333 337 356 356 355 358 358 357 356 355 352 350 344 344 342 341 339 336 337 336 337 337 339 336 335 336
349 351 353 356 356 358 357 359 360 360 360 360 362 360 360 361 333 331 333 351 355 355 356 357 358 358 346 333 351 347 344 344 337 331 334 332 332 336 341 339 334 332 328
350 353 356 357 358 357 358 359 361 361 360 361 360 362 353 361 337 327 332 356 353 353 355 355 338 347 333 327 348 350 345 344 343 341 334 333 332 337 335 340 338 331 328
351 352 355 358 358 359 359 360 361 361 361 360 360 360 362 359 358 325 323 356 358 356 354 352 353 328 325 321 325 353 349 349 343 342 339 337 338 339 340 340 339 335 332
353 352 353 354 356 360 359 360 361 361 360 360 359 359 362 363 337 328 321 325 344 358 357 357 352 325 316 317 322 330 329 329 349 345 340 336 336 336 336 338 339 340 340
354 353 354 356 357 353 359 359 359 360 359 358 358 357 358 361 361 327 320 321 324 346 360 351 330 318 319 315 316 319 319 337 347 346 342 339 337 337 336 337 336 338 335
349 354 356 356 356 354 359 360 360 360 359 358 358 357 357 357 358 359 339 330 323 328 335 344 334 328 323 330 328 320 329 336 342 345 344 339 337 335 334 335 333 334 327
349 357 358 357 355 352 319 318 349 329 336 360 358 356 355 353 352 330 337 340 341 334 337 345 347 339 339 336 333 331 329 334 338 342 341 336 333 332 331 334 334 330 324
352 355 355 354 356 345 327 320 303 302 300 299 305 337 320 312 306 304 304 305 308 310 334 341 343 343 339 336 334 332 334 335 339 341 340 337 330 330 329 331 329 327 323
356 353 353 348 355 346 337 331 323 313 302 300 299 303 312 306 302 300 301 304 311 320 335 332 332 330 329 330 330 330 331 333 333 334 331 331 329 329 326 326 326 324 320
355 337 349 349 351 351 343 338 331 326 327 320 306 303 303 305 302 301 302 314 326 326 328 328 327 328 326 326 325 327 329 332 332 333 330 329 327 327 325 323 322 320 318
349 351 350 352 352 352 349 344 338 336 325 320 318 311 305 299 301 301 303 327 324 324 324 324 324 323 323 323 323 323 324 330 330 330 329 328 327 325 323 322 320 314 314
344 332 337 344 345 347 348 346 343 332 327 323 324 320 322 317 324 325 325 325 325 324 326 325 326 327 325 326 323 323 323 325 329 328 327 327 325 322 321 321 320 315 313
343 342 334 340 339 340 339 337 335 334 329 326 322 316 312 326 325 325 325 325 324 325 325 327 330 330 326 325 324 325 325 327 325 323 325 323 323 321 321 321 319 316 314
338 339 339 338 336 335 335 334 334 331 328 327 322 318 305 327 327 325 325 326 328 329 329 329 329 327 327 326 325 325 327 326 323 322 322 322 322 322 320 318 315 312 311
335 333 334 331 331 327 329 328 328 327 326 324 322 321 324 327 326 327 329 328 328 332 332 331 329 328 328 329 328 327 327 327 325 325 323 322 321 320 318 318 318 314 310
328 327 326 325 325 325 325 324 324 318 323 323 323 324 324 324 324 327 328 329 329 331 330 330 330 329 327 327 327 327 327 327 326 327 327 321 321 318 319 313 312 310 310
323 322 322 322 322 321 322 322 319 319 318 318 317 318 318 318 317 318 318 320 316 313 321 324 327 328 328 327 327 327 314 307 322 316 327 326 321 318 318 313 309 307 305
319 318 317 316 314 314 314 313 313 313 312 312 311 309 308 308 308 307 308 309 307 304 302 302 301 298 298 301 302 297 289 295 301 302 320 319 318 317 316 313 310 306 305

GFSGL_sfc_thetae_054.txt.gz
Theta_e
347 350 349 347 345 350 349 343 344 344 348 346 351 352 353 354 352 350 349 350 350 350 350 347 344 343 341 335 333 331 327 327 322 323 330 331 332 335 333 335 330 328 329
348 349 350 350 349 345 348 351 347 345 345 349 353 352 352 354 354 352 350 353 352 350 351 349 348 347 341 337 333 333 331 328 324 322 324 333 329 333 334 333 330 331 328
348 348 349 351 351 350 347 348 352 348 346 347 354 354 353 354 354 355 354 352 352 352 352 350 350 347 345 343 335 334 334 332 329 324 323 331 331 332 330 330 330 332 336
350 350 348 350 352 354 353 350 348 351 349 344 350 355 356 356 355 355 355 354 352 352 352 352 351 348 347 344 339 337 334 334 330 330 325 329 331 334 332 330 330 334 335
350 350 351 352 353 355 355 354 352 349 351 351 348 351 356 356 356 354 354 354 354 353 352 353 353 351 347 345 346 342 337 334 333 332 328 326 327 331 332 331 331 333 336
348 350 352 354 354 355 355 356 355 352 350 351 351 351 352 356 344 340 351 353 353 352 351 352 352 349 346 340 339 340 342 339 334 333 333 331 331 331 332 334 332 328 328
348 350 352 353 355 355 356 356 357 356 355 352 353 352 351 355 336 336 340 353 353 353 352 352 353 354 347 352 339 336 336 335 337 335 331 333 332 332 331 332 333 333 332
346 350 352 354 354 356 356 356 357 358 357 357 354 355 355 354 334 332 336 352 354 354 354 354 353 353 353 351 351 346 344 345 340 339 338 335 335 336 334 334 335 335 334
341 342 350 354 354 355 355 356 357 358 358 358 359 357 355 356 330 330 333 349 353 354 355 355 355 355 344 333 350 349 347 346 340 332 333 333 329 329 332 336 334 331 330
342 344 346 349 354 355 356 356 358 359 358 359 358 359 351 358 334 326 332 353 352 353 355 356 337 347 334 328 347 351 348 349 347 346 340 334 331 334 330 338 337 332 331
345 344 349 349 350 354 356 357 356 357 357 357 357 358 359 356 355 324 323 354 356 355 355 354 355 328 324 321 324 353 350 352 347 347 347 345 340 339 338 339 341 338 334
348 347 350 352 352 354 354 355 356 356 356 355 355 356 358 359 335 325 321 326 344 356 356 358 356 327 319 319 322 329 326 326 350 351 348 344 341 337 339 340 341 341 340
347 346 348 350 353 355 354 353 354 355 355 355 355 355 356 358 359 324 319 320 323 346 359 350 333 321 316 317 316 318 318 334 339 344 346 348 348 342 341 340 341 340 338
346 343 347 348 349 348 356 356 355 356 355 355 355 355 356 357 356 355 339 330 323 328 334 344 334 327 323 329 330 324 328 335 337 340 343 346 349 340 337 337 336 336 333
348 349 347 349 346 346 330 331 349 342 343 357 357 357 355 352 354 342 342 345 344 336 338 340 337 334 337 337 335 334 329 330 333 336 338 340 342 336 334 334 333 330 325
344 349 350 351 348 334 325 317 303 303 300 302 312 338 334 315 311 309 309 309 312 311 334 339 342 343 342 340 336 333 333 332 334 337 338 339 333 329 329 330 330 328 324
340 345 351 344 349 333 330 328 324 315 302 298 299 306 313 312 301 301 300 303 303 313 337 335 335 334 332 332 330 331 330 331 332 333 333 332 327 327 325 327 327 324 322
342 331 345 348 349 341 336 334 330 328 327 323 308 304 299 299 299 300 302 314 330 326 329 330 327 327 327 327 323 321 325 327 331 332 328 328 327 327 325 325 324 322 320
343 345 345 345 347 344 342 337 332 329 325 320 319 312 304 300 299 300 304 328 325 324 324 323 323 322 322 322 320 321 322 326 329 329 328 327 326 325 324 324 321 313 314
341 333 333 340 344 348 344 339 335 328 324 323 324 323 321 319 327 326 326 323 322 321 322 322 322 322 321 321 320 320 320 325 328 328 326 327 327 325 323 321 317 315 313
342 342 334 338 337 345 347 342 335 328 325 325 324 321 309 325 323 323 322 322 322 322 323 323 324 323 323 321 321 322 321 324 324 327 326 325 323 320 319 318 316 314 313
338 340 339 336 337 336 335 334 331 328 327 324 321 317 303 321 323 322 322 323 324 323 325 325 325 324 324 324 322 322 326 326 326 322 324 322 319 318 317 316 315 313 311
335 333 331 331 331 328 330 330 328 326 323 320 320 321 324 325 323 322 323 325 326 327 328 327 325 324 325 325 325 325 327 327 323 322 321 320 319 319 318 315 314 311 309
327 327 326 328 326 325 324 323 322 315 320 319 319 319 318 318 317 316 314 311 310 311 308 314 316 323 325 324 325 325 325 325 324 324 323 321 319 316 319 316 315 312 311
323 325 324 323 323 320 319 317 316 315 314 313 311 310 309 308 307 308 307 305 303 302 301 299 297 298 298 299 302 309 300 295 316 312 325 322 320 320 320 315 314 311 307
310 314 315 316 315 315 314 312 311 309 307 306 305 304 304 303 303 302 303 302 300 298 298 297 296 295 295 295 293 288 285 287 295 291 320 326 324 321 316 313 311 310 310

GFSGL_sfc_thetae_057.txt.gz
Theta_e
344 345 344 345 345 344 342 342 342 341 340 343 348 349 351 352 351 348 348 349 349 348 347 344 342 340 339 337 331 330 325 324 320 322 325 329 330 331 334 335 332 328 327
344 345 345 345 346 347 346 342 341 343 343 344 345 348 350 352 352 350 348 350 349 348 349 347 346 346 339 337 334 330 329 326 324 322 322 328 328 330 332 331 333 331 327
342 345 345 344 344 343 348 350 345 342 342 342 348 348 348 350 351 351 350 349 349 349 349 349 349 345 344 341 337 333 330 330 326 323 324 324 330 329 329 329 329 329 329
343 343 345 346 346 345 344 344 349 350 345 343 345 347 350 350 351 352 351 350 350 350 350 351 350 349 348 346 342 340 337 331 329 327 326 324 327 330 330 327 327 328 330
343 343 344 346 348 349 348 346 345 346 350 348 346 346 350 352 353 352 352 351 350 350 350 351 351 351 347 346 348 345 339 336 334 330 329 324 326 327 328 328 330 330 332
344 344 345 345 347 349 350 349 348 346 346 349 347 346 347 351 342 340 349 352 352 350 349 350 351 348 346 340 339 341 344 340 337 335 335 332 331 329 332 331 329 325 326
344 346 346 347 346 348 350 351 351 349 348 345 347 347 347 348 334 335 340 352 351 350 350 350 350 352 346 350 340 336 336 335 340 346 336 336 335 334 332 328 331 330 330
344 345 347 348 349 349 350 351 352 353 351 349 347 348 348 348 333 331 336 350 352 352 352 351 350 350 350 348 349 347 344 345 342 341 344 346 343 340 335 335 334 335 335
343 345 347 349 349 351 351 351 353 353 354 354 353 351 350 351 329 328 332 348 350 351 352 352 352 352 342 333 348 348 348 347 339 332 333 334 333 332 333 333 331 330 329
342 345 348 350 350 350 352 353 353 355 354 356 356 357 347 352 332 325 330 349 349 350 353 354 336 347 333 329 344 349 347 350 350 348 345 337 333 337 329 336 336 331 331
338 340 344 350 351 352 353 354 355 354 355 355 355 357 357 353 353 324 322 349 352 352 351 352 353 328 324 324 325 352 349 351 349 350 350 349 349 344 341 338 337 336 334
341 340 342 343 348 352 352 353 354 354 353 353 353 354 356 357 334 324 321 324 342 354 353 355 354 327 320 319 322 329 325 327 346 350 351 350 348 347 344 342 341 338 340
343 343 344 346 346 347 349 350 352 352 351 351 352 352 353 355 356 324 320 320 323 343 357 348 333 320 316 319 317 320 320 335 340 342 343 344 347 350 351 343 342 341 340
343 345 343 345 346 349 350 350 350 351 351 351 351 352 352 352 354 352 337 332 323 329 334 343 334 331 326 332 330 322 329 336 338 339 342 343 343 343 341 340 337 336 328
340 342 343 345 342 344 342 337 349 352 345 352 353 354 353 352 353 341 343 348 346 338 339 343 339 339 340 338 337 338 337 332 332 333 335 336 337 338 334 334 332 329 324
338 338 339 342 345 343 334 323 304 303 302 302 305 328 350 329 320 312 310 311 312 310 337 341 344 344 342 342 339 336 333 332 333 333 334 333 332 330 329 329 329 327 323
336 338 341 339 344 336 333 332 331 316 301 298 298 303 304 319 305 305 304 303 303 314 340 339 341 340 340 338 337 335 332 330 332 329 327 328 328 326 325 324 327 325 323
334 323 338 342 343 341 335 334 333 330 328 326 305 303 299 299 298 298 300 311 323 326 337 335 332 330 329 329 326 324 324 323 325 328 329 326 326 324 324 323 323 322 322
332 335 338 338 339 340 339 334 332 330 329 325 320 311 301 297 298 301 304 332 334 333 331 330 327 326 323 321 320 320 320 321 322 325 328 327 326 325 324 324 321 312 315
333 329 327 334 336 338 341 337 331 328 325 323 326 325 320 318 327 327 327 327 327 327 326 323 322 321 320 319 318 318 318 322 324 325 327 327 326 324 324 322 319 314 313
334 337 332 334 334 335 342 340 335 329 327 325 327 323 311 329 327 327 326 325 325 324 323 321 321 320 320 319 319 319 318 322 323 325 325 326 325 323 323 320 315 314 312
333 335 334 333 332 333 339 339 332 328 326 325 324 317 301 327 325 324 322 321 322 322 322 322 322 322 322 321 320 321 322 324 320 325 325 324 323 322 321 319 314 313 311
331 333 332 330 329 323 326 326 325 326 325 324 324 322 321 324 323 321 321 320 321 321 321 321 322 322 322 322 323 322 322 323 323 320 322 323 319 317 316 314 314 313 310
325 328 327 324 324 325 324 322 320 315 322 321 320 321 318 318 312 310 310 309 308 305 304 304 304 304 305 309 318 325 325 323 322 322 321 319 318 313 316 314 313 312 311
314 316 321 323 322 320 319 318 318 318 317 314 312 310 308 307 306 304 302 302 302 301 298 297 297 298 297 297 296 294 290 286 302 305 321 320 319 318 318 316 315 313 310
306 307 308 307 307 308 309 308 306 306 306 305 304 304 303 302 302 302 301 301 299 298 298 297 296 295 295 294 292 288 285 286 292 288 310 322 321 322 318 316 316 314 313

GFSGL_sfc_thetae_060.txt.gz
Theta_e
343 343 344 344 345 345 342 342 342 342 341 344 348 349 350 353 354 352 352 353 351 352 351 350 348 347 346 345 340 338 334 331 330 335 332 338 341 341 342 344 341 341 341
343 344 344 345 345 344 344 343 343 342 342 344 347 349 351 353 354 352 351 353 352 351 352 352 351 350 348 348 343 342 338 335 333 332 335 335 339 342 341 341 340 338 338
343 343 344 344 344 344 344 344 345 345 345 345 345 346 349 351 353 354 354 352 352 353 353 352 352 352 351 350 347 345 341 340 336 332 334 334 337 338 338 338 338 340 340
342 343 343 344 344 345 346 346 344 344 344 345 347 348 349 351 352 354 354 353 353 352 353 353 353 353 352 353 350 350 347 342 338 335 336 335 335 339 337 336 336 336 336
340 343 343 344 345 345 346 348 350 348 345 345 345 346 348 351 351 352 354 354 353 352 353 353 354 353 347 348 352 352 350 346 345 340 339 340 337 337 336 340 335 338 339
340 340 344 345 346 345 345 344 345 348 350 350 347 346 346 348 339 337 349 353 354 353 352 353 354 349 347 340 339 341 348 348 346 344 343 341 343 343 342 338 336 334 331
342 342 343 345 346 347 348 347 346 344 345 348 349 349 348 348 333 333 338 352 353 353 354 354 353 354 348 354 342 336 337 335 340 351 347 345 344 347 346 341 337 337 335
342 343 344 345 345 347 348 348 349 349 347 345 346 348 349 348 331 329 334 351 353 353 354 354 354 354 354 353 353 353 351 350 347 346 349 351 353 355 351 347 345 341 337
342 343 345 346 346 346 346 348 350 351 350 349 349 348 348 349 328 327 331 347 350 352 354 355 354 354 342 333 352 351 352 353 343 333 334 334 333 332 337 344 338 333 332
343 345 347 348 348 348 348 348 351 352 352 353 352 353 343 350 330 324 329 349 348 349 353 354 336 348 333 327 347 352 350 352 355 355 354 343 334 339 331 339 343 337 336
344 346 348 349 349 351 352 353 352 352 353 354 355 356 357 351 351 324 321 348 350 350 351 353 355 329 324 322 325 353 350 353 352 353 354 354 352 352 353 347 341 339 337
343 345 347 349 351 351 351 352 354 353 353 353 354 355 357 359 333 325 321 323 340 352 353 355 355 326 320 319 324 329 326 329 350 349 351 351 352 351 352 349 346 341 341
340 341 343 348 350 352 352 352 352 354 353 353 353 353 355 358 359 324 320 320 321 344 357 348 333 320 317 320 318 321 320 337 342 344 345 348 352 353 349 347 348 347 344
346 346 347 345 344 347 352 353 353 352 352 352 352 352 354 355 357 358 344 334 323 329 333 344 337 332 328 334 333 327 330 338 342 343 346 347 344 343 342 344 342 341 329
342 345 348 349 347 349 349 346 351 354 345 352 353 354 353 353 354 341 343 352 351 341 340 348 345 345 347 343 344 346 341 340 338 341 340 337 338 340 340 341 337 333 330
340 342 342 347 350 348 344 335 305 306 303 302 305 324 354 328 321 313 311 311 313 311 336 346 345 345 345 347 346 344 342 337 340 338 337 338 337 332 333 333 332 333 329
331 337 341 339 347 345 341 338 338 320 302 300 301 302 302 317 309 306 305 304 304 311 346 346 346 348 346 347 346 343 339 340 340 339 337 331 333 332 331 329 330 332 326
327 317 334 341 344 346 343 340 340 338 338 334 304 304 302 301 303 301 302 308 328 318 343 346 345 342 343 343 342 339 336 336 335 332 331 335 332 330 327 328 329 327 324
324 330 335 338 340 336 344 343 339 338 338 336 327 311 302 296 296 297 300 343 345 340 340 338 338 336 335 338 336 334 334 332 332 331 331 333 333 330 329 328 326 316 317
324 323 324 336 339 340 342 342 340 338 337 334 331 333 320 316 328 329 332 335 336 335 334 334 332 330 329 331 330 330 330 325 327 329 330 333 329 329 326 326 323 322 321
321 327 328 336 338 339 340 342 340 338 337 334 334 329 313 334 333 332 332 331 330 329 329 329 326 327 327 329 329 328 328 327 327 328 331 330 329 328 327 327 325 325 323
320 324 330 334 337 338 339 343 341 338 335 333 330 321 304 333 332 329 328 328 328 329 330 330 328 328 330 330 330 329 329 328 326 326 328 328 327 327 327 326 326 324 322
320 322 326 333 335 327 331 337 339 335 332 331 330 324 327 330 330 328 324 325 323 319 319 324 327 326 327 330 331 331 330 330 331 331 329 327 326 325 324 326 324 321 319
319 323 325 329 332 332 331 330 328 317 327 328 328 326 326 323 321 317 314 312 309 306 307 308 307 306 306 306 306 307 309 309 326 331 331 329 326 319 325 326 325 324 323
312 314 319 322 320 318 314 311 310 309 308 309 309 309 310 310 309 307 305 305 303 302 301 300 300 300 299 298 298 297 291 286 297 300 330 330 329 328 327 327 326 324 323
304 303 302 302 301 302 302 302 301 301 301 301 301 301 301 301 301 302 302 301 300 300 298 298 298 298 298 298 296 289 285 287 297 287 316 329 329 328 327 326 326 324 323

GFSGL_sfc_thetae_063.txt.gz
Theta_e
352 353 354 354 354 354 353 354 356 356 356 356 357 357 358 358 360 362 361 360 362 362 363 361 360 362 357 356 354 350 347 344 339 341 345 348 351 352 351 353 352 353 350
352 353 353 355 356 353 354 354 355 355 356 356 357 358 358 358 360 360 358 357 358 360 361 362 361 359 362 361 357 358 355 354 345 347 348 346 351 353 354 354 351 348 349
351 350 352 354 353 355 355 356 355 356 356 355 356 355 356 357 358 360 360 359 360 360 361 362 362 362 361 359 359 356 355 355 352 346 345 348 349 348 350 352 351 353 349
349 350 352 353 355 355 357 357 355 356 356 356 356 357 357 357 357 357 358 360 361 361 362 363 362 362 362 362 361 361 360 356 356 351 349 348 350 355 350 345 345 348 346
350 350 352 354 356 357 357 357 355 356 357 358 358 357 356 355 353 357 358 360 361 361 361 362 362 359 350 353 359 364 363 357 353 349 347 347 346 347 347 348 347 348 351
351 351 354 355 356 356 357 357 357 355 355 356 355 356 355 353 339 337 351 356 360 360 360 363 364 354 352 340 339 341 353 363 359 353 350 350 358 355 354 351 350 348 345
351 352 354 355 355 356 357 357 358 358 357 357 355 355 356 357 333 332 337 355 359 361 362 361 358 356 355 362 345 336 337 335 340 359 359 359 360 361 361 357 359 355 351
350 351 354 355 355 356 356 355 357 355 357 358 357 358 357 358 332 329 333 353 359 361 362 363 363 362 363 361 360 359 362 361 359 353 357 358 362 364 365 362 357 351 349
350 351 352 354 355 356 355 356 357 355 354 355 356 358 358 359 329 327 333 352 354 359 361 363 363 363 347 334 358 358 361 361 348 336 337 335 333 332 338 349 346 343 341
351 352 354 355 355 355 357 358 359 357 356 355 355 357 347 359 332 324 331 351 354 352 360 364 338 352 334 327 355 357 358 358 361 363 364 350 340 350 332 345 349 342 343
351 353 356 357 356 358 358 360 360 358 359 358 358 360 359 355 356 323 320 353 353 354 354 355 358 328 325 321 325 360 358 358 356 362 361 360 361 360 362 361 349 347 343
356 354 357 358 356 355 360 359 359 359 359 359 357 358 359 363 335 327 320 322 343 357 357 360 361 326 318 318 324 331 326 330 357 357 355 353 355 357 356 355 355 349 349
356 357 357 359 357 360 359 358 356 358 355 356 355 355 356 360 364 326 319 318 322 348 360 351 333 320 318 324 319 322 322 345 347 347 350 353 356 358 358 355 352 354 355
353 354 355 355 356 358 356 356 355 355 355 355 355 355 357 360 362 364 356 341 323 331 335 350 345 336 331 337 338 334 338 347 348 350 349 354 355 353 349 348 347 346 343
351 350 351 351 354 355 357 355 356 361 350 356 357 358 357 358 359 346 348 363 361 348 345 353 352 349 348 347 349 353 354 348 343 344 347 347 346 345 345 341 343 340 337
348 353 349 354 354 353 352 350 308 311 307 306 308 331 358 331 319 314 310 311 313 312 343 351 350 352 352 353 351 350 350 343 346 348 348 348 343 340 339 338 340 338 337
332 339 343 342 355 350 353 352 351 326 304 303 304 304 305 316 307 306 306 303 305 313 349 351 353 353 352 351 352 351 348 350 355 350 346 344 342 342 335 338 335 336 334
327 316 341 347 350 354 351 350 351 350 351 353 311 311 302 299 301 301 301 309 331 321 345 352 354 354 356 353 351 350 350 348 346 345 344 343 339 336 333 334 333 332 333
323 323 330 339 346 343 352 353 351 349 349 353 343 316 307 297 298 298 299 351 356 355 354 352 355 357 353 349 350 347 346 343 343 340 337 338 335 333 333 334 332 319 324
323 319 319 329 339 346 348 349 349 350 351 352 352 351 335 320 335 335 329 338 353 357 357 355 349 342 341 340 340 340 341 338 340 338 335 340 339 339 335 332 330 332 329
321 323 320 326 331 339 345 346 348 348 348 349 351 347 316 343 348 347 340 344 351 354 349 347 340 338 335 335 335 335 337 338 335 335 336 337 337 333 334 331 330 331 330
319 322 324 325 328 333 340 345 347 347 346 345 349 345 304 331 349 350 349 348 347 346 344 337 335 339 338 337 337 334 335 336 335 333 334 333 333 331 330 329 329 329 332
318 321 325 326 328 326 335 338 342 346 343 343 344 345 331 337 346 347 345 343 340 337 340 340 340 338 339 339 340 339 337 336 336 335 333 332 330 330 330 328 329 329 331
316 320 325 328 328 330 331 334 339 320 335 336 335 332 330 331 327 324 326 326 325 322 325 329 328 328 325 326 326 327 329 332 336 335 335 331 330 325 328 329 332 330 330
307 307 308 309 312 317 320 319 317 316 316 314 312 312 310 309 307 306 305 307 307 308 309 311 312 313 311 311 307 307 296 288 303 304 332 333 332 330 328 329 332 332 332
301 301 300 300 299 300 301 301 301 302 302 302 302 302 302 302 301 301 300 300 300 300 301 301 301 302 303 299 295 289 285 286 297 289 325 331 332 333 332 332 332 330 330

GFSGL_sfc_thetae_066.txt.gz
Theta_e
358 360 363 359 359 360 358 360 362 363 362 362 360 358 358 360 363 364 364 361 362 365 365 363 363 366 356 354 355 353 349 348 342 343 345 351 358 358 357 358 356 357 352
358 363 361 361 362 357 359 359 362 362 363 363 362 361 358 358 362 362 361 358 359 360 363 365 364 362 366 367 358 362 358 359 349 355 355 349 358 362 359 357 355 352 351
357 355 358 358 358 361 360 360 361 362 362 362 362 361 360 358 360 362 362 360 359 360 362 363 364 365 365 363 364 359 357 356 358 353 351 351 352 355 359 364 361 362 355
354 354 359 361 362 358 363 363 361 362 362 362 364 363 361 359 357 358 359 361 361 360 363 365 365 365 365 367 366 367 365 362 360 353 348 347 348 357 352 349 350 352 351
357 356 360 364 364 365 365 364 363 364 362 363 363 362 361 359 353 358 357 358 361 361 363 365 366 362 351 354 362 370 373 361 354 351 349 348 348 348 352 351 352 353 359
360 358 362 364 365 365 366 365 365 364 363 363 363 361 360 356 338 336 350 354 357 360 361 363 366 356 354 342 341 341 352 366 368 357 351 350 365 361 358 355 354 352 351
361 361 363 365 365 366 366 366 366 366 364 363 362 362 362 363 334 331 337 354 355 358 364 362 359 355 355 363 345 338 339 337 339 359 361 362 364 367 370 366 364 361 358
361 361 363 365 364 366 366 366 367 364 364 365 362 364 363 362 333 329 333 356 360 362 363 364 367 366 366 362 361 360 362 363 362 357 360 360 362 364 366 368 369 358 359
359 361 363 364 364 364 363 364 365 363 363 364 364 364 366 366 330 328 336 355 354 362 362 365 366 367 349 335 359 362 363 362 346 335 337 337 336 336 343 357 353 353 348
358 360 364 364 365 363 365 366 366 363 361 360 361 364 353 366 333 325 335 355 356 352 362 369 340 353 335 328 360 361 359 358 360 362 365 353 338 353 334 354 360 353 352
356 357 361 363 366 367 368 367 366 364 364 363 362 364 363 359 360 322 321 358 353 352 352 353 357 330 327 325 324 363 360 358 356 364 364 365 367 367 367 370 364 358 351
360 358 362 364 359 359 367 365 366 367 364 366 363 360 360 365 337 324 319 324 343 357 355 354 359 325 319 320 326 332 325 331 357 358 359 360 358 358 364 366 367 361 358
360 361 361 363 360 365 364 362 359 363 358 358 357 358 358 360 365 326 318 319 323 346 359 349 329 318 314 323 318 321 322 354 357 355 354 354 360 365 366 363 360 359 359
359 359 360 360 359 360 360 360 358 357 357 356 356 356 357 359 361 365 357 341 324 335 340 351 348 337 330 341 349 343 355 360 360 358 358 362 363 360 356 356 349 352 349
357 358 359 359 359 360 361 358 359 365 351 358 357 359 357 358 359 347 351 367 364 351 351 361 360 359 356 355 356 359 362 364 355 354 355 354 354 352 349 351 347 346 346
353 353 354 354 357 357 357 357 311 315 309 309 311 329 360 331 322 315 318 316 310 313 353 359 357 354 354 354 355 357 359 354 359 355 353 351 348 347 348 345 346 347 342
344 352 355 351 354 354 356 356 355 334 308 308 308 307 309 312 310 306 302 304 307 318 359 359 357 358 357 359 360 359 357 358 359 353 351 350 351 351 343 347 347 343 341
334 317 351 355 358 358 355 351 349 353 354 356 316 315 307 304 302 303 302 311 344 329 354 356 357 360 361 361 361 361 361 359 357 354 352 350 349 350 349 347 343 341 339
331 336 338 347 351 344 350 342 342 347 353 354 352 319 313 300 298 298 299 353 360 359 360 360 360 360 360 360 360 359 357 353 350 347 346 350 351 349 346 342 340 323 327
326 323 325 335 341 345 348 342 341 343 349 349 350 351 344 328 343 345 334 341 358 361 361 363 361 362 362 363 360 356 351 347 349 346 347 351 351 345 341 340 339 338 336
324 328 324 329 327 338 344 344 345 345 345 347 350 349 324 354 357 358 359 355 358 362 364 363 363 364 361 358 355 352 351 346 345 346 347 346 345 342 343 341 338 338 338
325 325 326 326 328 331 336 342 343 343 345 345 343 341 309 349 356 358 358 359 360 361 361 359 357 358 357 353 351 351 349 347 346 343 342 342 341 341 340 338 337 336 336
323 324 326 328 328 323 330 334 337 338 341 345 341 343 346 346 353 356 357 356 353 352 351 349 348 348 349 348 348 347 345 344 344 344 341 340 338 338 337 335 333 332 335
314 316 318 323 327 330 330 331 334 328 337 341 341 341 340 337 335 329 332 334 334 334 338 339 333 327 335 337 339 339 340 325 331 341 341 339 337 330 334 332 332 331 332
303 304 305 305 306 311 316 317 318 318 316 313 312 313 314 313 312 311 312 312 314 312 310 313 314 310 305 310 313 313 298 287 299 297 331 335 334 333 333 332 333 335 333
299 298 298 298 298 299 298 298 299 300 300 300 301 301 302 302 301 301 302 301 300 299 300 299 297 299 302 300 300 290 285 287 299 287 307 330 333 333 334 333 334 333 333

GFSGL_sfc_thetae_069.txt.gz
Theta_e
363 365 364 363 363 362 363 367 368 370 372 368 366 363 362 363 367 371 371 366 368 369 366 366 368 372 356 354 354 353 349 347 342 345 347 356 366 366 361 364 359 362 354
362 365 364 366 364 362 359 365 369 370 372 372 370 367 363 362 368 368 362 362 361 361 363 368 364 357 371 370 358 368 359 364 349 357 357 354 363 367 367 367 357 357 358
361 360 363 365 364 362 365 366 367 369 370 368 370 369 367 364 365 367 367 364 361 362 364 366 365 368 371 363 368 361 357 360 359 354 353 356 356 356 359 367 367 366 360
356 356 361 364 365 364 367 368 368 371 370 370 372 371 369 366 364 362 364 367 366 361 363 365 366 367 369 372 369 372 368 363 359 353 353 353 354 364 358 353 353 356 355
358 358 360 365 367 368 366 368 368 370 370 372 372 370 369 365 359 363 364 365 367 365 365 365 366 363 352 358 360 368 371 363 354 352 351 350 350 350 355 356 353 357 361
360 359 362 366 367 367 366 367 369 369 370 371 370 369 368 359 342 338 354 360 364 366 366 368 370 359 355 343 342 342 353 366 368 356 352 351 361 359 358 356 358 355 352
363 363 364 367 367 368 367 367 368 369 370 371 370 370 369 370 336 333 338 359 361 363 366 368 365 355 357 369 347 340 341 338 342 361 361 361 362 366 368 366 361 360 359
362 366 365 368 367 369 369 368 369 369 369 370 370 371 371 369 337 329 334 359 359 362 365 368 368 366 365 366 369 367 367 366 363 357 362 363 367 370 369 368 368 366 365
363 365 366 367 368 370 368 368 370 369 369 370 372 372 372 370 332 328 335 356 356 362 364 365 365 366 350 337 363 361 362 362 346 334 336 338 339 337 345 357 356 356 353
364 364 367 369 369 369 370 371 371 371 369 363 367 371 359 372 336 326 335 356 357 354 363 367 341 354 337 330 362 363 360 363 364 364 367 357 340 349 333 353 361 357 358
362 365 369 369 370 372 373 373 372 369 366 369 369 371 372 367 368 325 322 360 355 353 352 351 355 331 327 325 327 363 360 363 359 363 364 365 368 369 372 370 365 367 359
366 366 368 370 366 365 372 372 373 371 370 371 368 367 363 372 341 326 320 326 346 357 354 348 352 324 319 321 327 331 327 332 357 357 357 358 361 364 366 367 376 373 368
367 367 368 369 368 369 369 370 365 370 360 361 358 356 356 359 364 327 318 320 324 348 357 343 327 320 316 321 318 323 323 355 358 357 357 359 362 365 373 373 372 369 364
365 367 367 367 366 369 364 364 360 358 358 355 356 354 354 355 356 361 352 338 325 336 341 352 346 335 322 337 349 338 354 362 361 361 362 364 365 366 367 366 360 354 351
363 361 364 361 362 363 363 361 360 363 352 358 354 354 351 353 355 345 349 363 359 349 351 358 357 356 358 360 363 364 364 365 364 364 363 364 364 363 361 360 352 350 351
357 358 357 358 359 358 358 356 314 322 313 314 314 335 356 321 312 313 312 312 317 318 351 357 357 359 361 360 360 357 362 357 363 365 363 359 356 354 353 352 350 349 349
348 360 357 352 358 358 359 357 355 335 314 310 312 313 314 313 310 311 308 306 313 323 361 361 359 360 361 359 358 361 360 362 365 364 361 358 356 354 347 348 349 348 348
337 323 354 358 358 356 358 358 357 355 353 354 321 322 310 305 309 307 308 314 355 343 358 359 360 363 363 361 362 361 363 364 367 364 359 356 356 352 348 344 346 348 350
328 328 332 345 366 353 359 358 354 353 351 349 353 324 315 302 300 301 303 353 356 359 360 360 361 361 362 364 364 365 365 362 361 361 359 356 354 352 347 348 351 330 332
335 324 328 339 345 348 353 347 347 346 345 344 347 349 341 328 345 345 339 348 354 357 358 358 358 361 364 365 364 368 362 358 358 355 355 355 355 354 349 348 349 346 342
336 338 329 337 336 334 340 346 348 348 343 345 346 346 324 349 354 353 356 356 356 357 360 360 366 363 366 368 364 363 360 358 356 355 353 353 353 350 350 347 345 343 341
324 324 330 338 341 342 336 339 342 340 342 342 345 344 314 355 356 354 354 356 360 361 363 368 364 363 361 360 358 357 355 354 353 352 350 349 350 348 346 344 343 341 340
321 324 327 330 330 325 335 336 340 340 339 342 343 345 347 345 347 344 344 340 348 350 351 353 352 354 354 355 354 353 350 349 344 348 347 345 344 343 343 341 340 339 338
313 315 317 318 317 325 322 326 329 320 325 328 325 328 329 331 328 328 326 326 324 323 324 322 329 322 323 323 328 334 317 311 317 339 345 344 342 336 339 338 337 334 333
303 302 303 305 307 309 309 306 310 311 312 309 309 309 309 308 308 308 308 308 308 307 304 305 306 310 306 303 303 305 295 288 300 296 325 339 339 339 338 336 334 332 334
297 297 296 297 297 298 298 297 297 297 297 298 297 298 298 298 298 298 298 298 298 297 296 296 296 296 297 296 294 290 286 287 295 288 313 332 334 336 334 333 332 331 334

GFSGL_sfc_thetae_072.txt.gz
Theta_e
359 357 357 354 355 354 356 356 361 363 374 369 369 367 366 365 368 368 365 363 362 363 363 365 363 365 362 361 360 359 354 354 346 348 354 355 363 361 355 359 362 358 356
360 359 357 360 357 354 351 356 364 362 367 375 368 370 366 365 366 365 362 359 361 362 364 364 364 363 365 364 361 360 360 364 357 352 356 355 355 356 362 362 360 356 355
361 360 359 358 359 358 352 357 359 362 367 364 370 364 366 363 363 364 364 361 363 363 364 365 363 365 364 361 362 358 358 357 357 354 351 358 359 359 355 363 362 358 358
359 359 359 359 358 358 360 354 361 362 361 366 365 366 365 364 362 361 363 363 363 362 363 361 363 362 363 364 363 364 364 361 359 357 353 352 353 356 358 353 354 360 357
356 358 358 361 361 361 360 359 354 362 363 365 365 365 365 365 362 361 360 362 362 363 363 363 363 362 354 358 362 364 363 361 358 355 353 353 351 354 352 354 351 356 359
355 356 359 361 361 361 360 360 360 359 362 364 364 364 364 363 345 340 353 357 363 361 360 361 364 353 351 343 341 343 352 361 358 356 354 350 353 355 357 356 354 351 348
356 357 359 360 360 360 361 361 361 360 361 363 363 365 364 365 339 334 340 356 356 358 362 361 362 359 352 363 345 340 341 338 342 354 352 353 352 355 357 357 356 355 355
357 358 358 359 359 361 361 360 361 361 361 362 363 364 365 365 339 332 334 352 356 358 360 360 361 360 361 363 363 362 359 358 355 349 352 356 359 362 363 361 361 360 360
359 358 359 359 359 361 360 361 361 361 361 361 363 365 364 364 335 333 333 350 352 355 356 357 360 362 348 339 353 353 353 354 347 334 341 342 342 341 347 360 353 347 348
356 359 363 361 362 361 362 362 362 362 361 362 363 365 356 365 338 328 333 355 353 352 356 358 339 348 336 331 352 356 354 355 358 359 360 354 337 342 332 343 349 348 352
359 363 361 366 363 364 365 365 363 363 363 362 362 364 367 363 363 326 322 356 355 354 353 353 357 333 327 324 326 356 353 355 355 360 360 360 362 364 366 357 359 358 356
364 360 365 366 364 365 365 366 366 364 363 361 362 362 364 367 341 328 321 327 344 356 354 354 353 325 321 322 325 331 328 330 355 355 354 354 356 359 365 369 371 369 367
366 362 365 366 365 365 364 365 364 365 362 360 360 359 362 364 367 329 321 320 325 350 358 346 327 323 316 316 318 323 322 344 350 352 354 356 361 363 365 368 371 369 367
365 361 365 365 362 364 365 365 364 362 362 360 359 360 360 360 361 365 344 333 325 333 339 350 344 335 325 336 345 328 342 354 356 358 358 362 364 365 363 366 364 361 353
364 362 363 363 361 363 362 363 363 364 359 360 359 358 358 356 355 344 349 354 351 342 347 354 354 353 351 351 357 362 357 358 358 359 359 359 360 362 363 366 360 351 347
363 362 360 360 361 361 359 355 315 326 318 319 327 343 342 319 309 307 310 321 322 319 346 354 354 355 355 355 355 357 363 357 362 362 363 362 362 359 356 356 353 349 347
336 339 358 351 358 358 359 359 354 334 309 307 313 316 326 316 306 305 306 307 315 320 356 356 357 359 360 360 364 363 358 358 361 362 362 362 358 355 349 351 349 348 346
326 316 332 341 355 358 359 358 358 353 351 351 316 319 308 308 306 306 306 319 346 343 361 361 362 364 365 364 362 360 359 361 364 363 362 360 356 353 351 349 348 347 346
326 320 324 333 337 347 360 358 357 358 357 357 355 321 309 301 304 304 308 359 359 359 360 359 359 360 361 366 366 367 365 363 362 363 364 361 356 354 350 349 348 329 335
328 326 323 330 335 334 344 353 347 348 349 349 350 355 340 328 340 343 342 350 352 356 356 358 362 361 362 362 362 364 366 364 363 360 354 353 353 353 352 350 350 348 347
319 333 328 332 334 339 338 339 344 345 346 346 344 343 328 348 352 354 344 349 348 351 355 354 357 366 369 370 369 365 360 363 361 360 357 356 353 352 353 352 351 345 340
322 324 331 327 329 334 334 335 341 340 338 334 338 335 310 347 351 339 335 334 330 333 343 347 338 335 328 331 351 358 357 357 359 355 352 353 353 352 351 347 347 347 342
314 316 318 317 320 320 328 326 321 322 324 324 323 325 324 326 325 324 321 320 319 317 321 323 319 317 316 316 316 318 312 310 311 320 333 346 347 345 345 343 341 340 339
306 306 306 306 305 310 310 310 311 307 309 311 312 312 311 311 311 312 313 310 309 306 307 308 305 302 303 302 302 303 301 297 302 312 315 321 336 336 340 340 339 338 337
300 299 298 299 300 299 299 299 300 301 302 302 301 302 302 301 300 302 302 302 301 299 295 295 296 297 296 295 295 295 289 287 298 292 311 321 328 332 335 334 335 335 335
297 296 295 295 295 296 295 294 294 295 295 295 295 295 297 297 296 296 295 295 295 294 294 293 293 292 292 292 290 288 285 287 293 291 307 318 320 318 315 323 330 332 333

GFSGL_sfc_thetae_075.txt.gz
Theta_e
347 349 343 343 349 349 346 347 352 350 356 357 356 356 356 356 355 354 350 353 350 349 351 352 350 350 348 349 352 349 343 340 334 336 342 345 349 349 350 347 348 348 348
348 350 349 343 347 349 347 344 349 350 352 356 358 357 356 354 355 354 353 353 352 351 352 350 352 355 351 350 350 347 348 349 342 339 344 344 344 347 348 348 352 356 351
350 348 350 349 343 346 346 345 344 352 351 355 356 355 354 355 353 355 354 353 352 353 354 354 353 353 350 351 348 347 347 348 346 344 342 346 349 351 350 348 353 355 356
351 350 349 349 350 344 345 344 348 353 355 354 357 354 357 354 353 354 355 354 352 353 355 354 355 354 352 352 354 353 353 351 349 348 347 346 345 349 348 346 344 348 349
352 352 351 351 351 352 349 347 343 351 353 355 355 357 356 357 357 352 354 355 353 353 353 354 354 353 352 351 356 354 354 351 351 349 347 345 343 341 342 346 346 348 348
353 353 354 353 352 351 352 352 345 347 352 352 354 355 356 359 345 343 350 352 355 354 353 353 355 351 350 344 343 344 353 352 350 349 346 344 342 344 347 347 346 342 343
349 353 354 354 354 353 353 352 351 345 349 355 354 356 355 357 339 337 343 352 351 354 354 353 353 356 349 353 344 339 338 337 342 349 345 345 345 346 346 346 347 348 347
348 350 353 354 353 354 354 353 352 351 346 347 355 356 356 357 339 333 337 349 350 349 354 354 354 353 351 349 350 351 350 348 347 345 344 348 350 351 351 353 352 350 353
348 349 353 354 353 354 353 353 353 353 353 350 352 355 356 357 334 333 332 338 346 348 350 351 353 353 344 337 348 347 348 352 349 335 337 337 338 338 344 352 352 347 347
350 351 353 353 354 354 353 354 354 354 354 355 353 355 350 357 336 330 332 349 342 344 346 348 337 347 336 331 346 348 345 347 347 350 348 339 334 340 335 344 350 347 344
352 353 354 354 353 355 355 355 355 354 354 354 354 356 356 356 356 328 323 353 352 347 346 346 349 330 323 321 325 346 344 346 344 347 350 352 354 354 356 342 343 345 343
355 352 353 355 355 356 356 356 355 355 353 353 353 354 356 358 338 330 322 326 343 351 349 350 348 328 322 321 323 328 327 328 345 347 347 346 347 349 353 357 358 353 356
335 353 354 356 355 356 356 356 355 356 354 353 352 352 354 357 360 329 322 321 324 349 354 346 333 325 316 316 318 322 322 332 340 342 344 346 349 353 355 355 358 360 358
335 355 353 354 356 356 358 358 357 356 355 354 353 353 354 355 357 361 344 332 324 331 339 344 331 331 330 337 334 324 326 335 339 341 344 349 353 354 353 355 353 354 350
329 355 354 356 353 357 358 358 359 359 355 357 356 356 354 353 354 346 349 352 348 340 342 348 347 346 347 347 343 347 337 339 344 349 350 350 351 351 352 355 353 347 346
328 345 352 356 355 356 355 348 315 325 322 321 325 345 353 326 325 321 316 320 321 318 337 347 346 347 347 346 345 343 351 345 349 351 353 353 352 351 353 353 352 350 347
323 323 335 335 353 355 355 353 349 333 313 307 310 320 315 328 306 309 309 309 309 319 345 345 347 348 348 349 349 349 347 353 356 353 352 353 353 350 347 349 348 347 346
326 317 325 333 338 344 355 354 353 349 347 340 311 314 306 306 306 304 306 312 323 328 347 346 348 350 352 353 353 353 353 353 352 352 352 352 352 349 349 347 346 345 345
320 324 323 329 332 330 342 354 353 350 348 347 328 317 305 304 305 305 306 346 342 344 348 350 351 352 352 353 355 353 352 352 352 353 355 354 353 351 348 347 345 329 335
317 319 324 327 332 332 336 344 347 344 344 341 340 336 325 323 331 332 334 338 341 342 346 348 347 347 348 349 351 355 353 351 352 352 351 350 350 352 350 348 348 343 341
318 321 326 330 332 329 330 335 341 340 336 336 332 326 320 340 335 329 324 328 328 329 329 324 323 319 317 319 320 326 347 349 349 350 349 348 347 345 346 346 344 343 342
312 314 313 318 323 321 319 323 324 324 323 324 323 318 312 323 321 318 315 311 311 313 313 323 316 312 309 307 308 310 313 314 317 318 326 336 345 346 344 343 341 340 340
307 308 308 308 309 310 311 311 313 316 316 314 312 311 310 309 308 308 309 307 304 303 304 304 303 302 303 303 304 304 304 304 306 311 313 319 326 334 339 339 337 333 332
299 300 303 303 303 302 304 303 303 303 305 303 303 301 301 301 301 301 301 303 299 298 299 301 298 297 298 298 299 300 299 297 304 306 308 315 322 324 329 332 332 332 332
296 296 296 297 297 296 297 299 299 299 298 296 297 297 297 297 297 297 297 296 296 295 295 294 295 294 293 294 294 292 288 288 296 293 312 316 320 315 315 322 326 329 330
296 295 294 294 293 294 293 293 293 294 293 293 294 294 294 294 294 295 295 295 294 294 293 292 293 291 292 291 291 289 286 287 292 290 305 307 306 304 307 311 313 317 321

GFSGL_sfc_thetae_078.txt.gz
Theta_e
344 341 340 341 346 341 342 344 349 345 346 348 350 353 352 351 349 350 348 348 348 345 346 347 347 347 345 345 346 345 342 337 331 333 337 341 344 347 346 347 348 343 345
345 344 341 340 343 346 345 342 348 347 351 351 350 354 352 352 351 350 348 349 348 347 347 347 347 351 347 347 346 344 342 343 336 335 338 340 342 345 347 347 352 354 351
345 345 344 339 340 344 347 345 341 348 348 353 352 352 353 352 351 352 351 349 348 349 349 348 348 348 347 346 347 345 344 345 343 340 342 343 346 348 347 345 346 348 354
345 345 345 344 340 340 346 344 344 343 346 349 353 352 352 353 352 352 351 349 349 349 351 350 351 350 349 348 348 347 348 348 346 344 342 343 344 346 344 343 343 343 346
345 344 345 347 346 340 340 345 343 343 346 349 351 353 353 353 353 351 351 350 348 348 349 351 352 352 348 347 350 348 348 347 346 345 344 342 344 343 342 343 343 343 344
346 346 345 347 348 346 341 341 342 343 347 348 350 352 351 355 341 340 348 350 350 349 348 349 351 349 347 341 341 342 348 348 347 345 347 346 346 341 341 341 341 338 340
347 347 348 346 347 348 348 343 342 340 341 347 350 352 352 354 336 336 341 350 351 351 350 349 349 354 347 351 342 337 337 337 341 350 347 347 343 343 342 340 341 341 342
345 349 350 350 348 348 348 349 347 346 340 343 347 348 352 353 335 333 337 350 349 349 352 351 350 350 348 348 348 348 348 347 342 342 344 347 348 348 346 348 347 345 347
342 347 352 352 351 350 348 348 350 349 346 342 347 351 349 350 331 330 334 347 350 348 348 352 352 351 341 334 347 346 347 348 344 333 334 334 334 334 339 343 344 344 343
339 342 348 353 352 351 351 351 351 351 350 348 345 346 346 353 332 328 332 350 345 345 347 346 335 346 333 329 345 347 345 347 346 341 342 337 332 338 333 340 345 342 343
334 340 344 351 353 353 353 353 352 352 351 350 349 348 348 350 351 325 324 353 351 347 345 344 347 328 324 321 325 347 345 346 344 345 347 346 348 350 351 347 343 346 342
330 332 338 351 353 354 353 353 353 352 350 349 350 351 352 353 335 327 322 326 343 352 349 348 346 325 319 318 320 326 324 326 339 340 342 345 347 348 350 350 351 345 349
326 330 337 351 353 353 352 352 351 352 350 349 349 349 350 353 354 326 321 321 324 346 354 344 330 321 316 320 319 322 319 329 334 338 341 344 347 349 348 349 352 354 353
322 326 330 348 350 351 353 354 352 351 351 350 349 349 350 351 353 356 342 332 324 329 337 345 337 330 326 331 329 324 325 330 334 336 339 342 342 345 347 350 349 349 350
321 324 325 350 349 351 352 353 353 354 350 352 352 352 350 350 351 342 345 351 348 339 339 347 342 334 338 338 338 339 336 331 333 336 337 339 343 347 349 350 350 350 350
318 324 322 328 351 354 352 353 316 324 321 319 323 341 353 334 324 318 316 316 318 315 333 347 345 346 344 346 347 347 345 341 342 342 343 345 347 348 348 351 352 351 349
315 321 323 325 336 352 352 353 350 331 313 311 312 314 317 330 311 310 313 309 304 316 346 343 346 345 346 347 347 347 345 345 347 346 346 348 350 350 346 352 350 348 346
313 316 322 325 330 334 347 351 350 351 349 345 310 314 308 305 303 303 304 311 322 322 345 347 345 346 347 347 347 347 348 347 346 351 351 352 351 350 346 347 347 346 340
311 316 320 324 329 330 336 346 347 346 347 351 327 312 304 301 303 301 305 339 334 333 338 344 344 344 346 347 349 351 351 351 350 350 350 350 350 350 349 348 347 326 331
314 318 318 326 330 331 335 343 346 344 342 342 337 334 324 326 336 337 336 338 338 338 340 341 338 332 326 325 331 339 340 337 341 342 338 340 346 345 344 345 345 345 340
311 312 314 318 319 320 327 330 336 337 332 324 322 325 314 338 328 322 318 315 316 316 322 318 316 316 318 319 322 325 327 326 328 331 332 329 330 342 342 342 344 341 340
307 308 309 308 310 310 311 319 319 320 320 317 315 312 310 318 315 309 307 306 307 306 306 306 306 306 307 311 309 313 316 317 316 319 325 326 327 332 338 339 340 340 339
302 304 303 304 304 305 306 305 308 309 307 307 309 309 309 309 305 306 304 303 303 302 300 300 300 299 300 300 301 301 302 304 306 309 313 318 322 326 328 330 331 333 332
298 298 299 299 299 299 301 301 302 300 302 301 300 300 301 301 302 300 299 299 297 296 297 296 296 295 296 296 296 297 296 297 303 308 315 320 323 320 321 324 326 327 326
296 295 295 295 296 295 296 296 297 296 297 298 297 297 296 297 296 295 295 294 294 294 293 293 294 293 293 292 292 291 288 287 295 298 313 314 310 310 313 315 314 318 319
294 294 294 294 294 295 293 293 293 293 295 294 293 295 295 295 294 294 293 293 293 293 292 292 292 292 292 291 290 288 286 286 292 292 304 305 303 302 305 306 308 308 308

GFSGL_sfc_thetae_081.txt.gz
Theta_e
340 342 342 342 342 337 339 342 345 345 344 344 348 349 348 347 348 347 345 346 346 345 344 344 343 344 343 343 343 343 339 334 330 333 334 339 342 342 345 346 348 347 346
341 340 339 340 342 342 339 340 342 345 344 345 345 349 349 349 347 347 347 348 345 344 345 343 344 348 344 344 344 342 340 339 336 333 336 339 341 345 346 347 350 351 349
341 340 339 338 338 341 343 341 341 344 345 346 347 346 349 350 349 348 348 346 346 346 346 345 345 344 343 343 343 344 343 344 340 338 340 342 344 345 345 346 346 346 349
342 341 339 338 338 339 340 344 341 342 344 347 349 348 350 350 350 350 349 347 346 347 348 348 348 347 346 345 345 345 344 343 344 342 340 340 342 345 343 342 344 344 344
341 342 341 341 339 339 339 341 345 343 343 346 348 350 349 350 351 349 350 349 347 346 346 348 349 349 347 345 348 346 344 343 342 341 340 340 342 340 340 342 340 342 342
341 342 343 343 342 338 338 339 341 343 343 342 345 348 349 351 340 338 347 348 348 347 346 345 347 347 345 340 339 340 345 344 341 341 342 341 343 341 340 339 338 335 340
343 343 343 344 343 343 339 337 338 340 341 342 344 345 347 350 335 334 339 349 348 347 346 346 346 351 345 349 341 336 335 335 339 347 344 344 344 345 340 338 338 337 338
344 344 345 344 344 345 344 339 337 339 339 338 341 345 346 347 334 331 335 348 348 348 348 348 347 347 346 347 347 346 347 346 342 340 342 347 348 349 343 346 343 341 342
342 343 345 346 343 344 344 344 343 340 339 339 338 339 344 347 330 328 332 346 348 347 348 349 349 348 339 332 344 344 345 345 341 332 333 333 332 331 335 339 341 337 340
330 333 338 346 349 345 345 345 347 346 344 344 341 341 337 344 328 326 331 349 347 348 350 347 334 344 331 326 341 344 343 345 344 343 340 335 331 336 331 337 341 339 339
327 330 332 336 343 351 348 347 347 348 348 347 345 344 344 345 346 322 323 349 348 347 347 347 346 327 323 320 323 347 344 345 341 340 341 342 343 345 347 341 341 343 341
323 325 328 332 339 347 351 349 349 348 347 347 347 346 346 345 331 324 321 326 340 350 348 348 347 323 319 318 319 324 324 326 339 335 335 338 340 342 346 348 350 346 348
319 321 324 329 332 340 349 350 348 348 348 347 347 346 347 349 347 323 320 320 324 345 353 344 330 320 316 318 317 321 320 331 334 332 335 337 341 345 344 344 346 347 346
315 319 323 324 324 337 350 351 350 349 348 348 347 347 347 350 350 352 338 329 323 330 337 344 337 331 327 331 328 325 328 331 333 335 338 339 338 338 339 342 342 345 345
311 315 321 324 324 330 349 350 351 353 348 350 349 349 347 347 349 341 342 347 344 337 338 344 348 340 343 341 337 338 335 330 330 333 333 334 335 336 339 343 345 346 346
309 313 316 320 324 330 344 349 315 317 316 314 316 338 350 330 319 314 313 313 315 314 333 346 346 347 347 345 345 344 341 338 338 337 336 338 339 339 341 343 346 348 350
306 309 313 316 323 327 332 349 347 333 308 309 310 312 313 329 309 311 309 308 306 311 347 345 346 347 346 347 346 346 346 346 346 344 343 342 342 343 341 345 347 350 348
305 307 311 319 321 325 330 334 351 349 346 347 316 313 307 307 307 308 304 310 320 320 345 348 346 347 347 346 346 346 346 345 343 343 343 344 344 346 347 347 346 346 344
305 311 316 317 322 325 330 333 339 344 346 347 333 314 310 302 301 305 304 345 343 341 337 343 347 348 347 346 346 345 345 345 343 344 345 348 346 346 345 343 343 324 328
308 313 313 314 321 322 325 329 337 344 344 345 341 340 321 321 326 328 324 335 340 336 334 334 329 329 328 331 336 342 341 341 340 337 335 334 336 341 342 340 339 337 339
307 309 311 311 313 313 315 320 325 338 333 326 323 323 313 336 339 333 320 315 316 317 316 315 313 312 313 313 317 323 327 327 329 330 331 331 332 331 333 331 331 333 340
304 306 306 306 307 307 307 310 313 317 316 314 312 309 303 316 314 315 313 313 310 310 310 307 306 306 306 307 308 310 312 315 316 317 321 325 328 331 333 335 333 332 337
301 302 302 301 302 303 304 304 305 306 305 306 307 307 305 304 304 304 304 304 304 303 306 306 304 303 303 303 301 299 301 302 305 308 312 316 321 326 327 328 329 330 331
297 298 298 298 298 297 298 298 300 299 300 299 298 298 298 298 297 297 297 298 298 296 296 295 295 295 296 294 294 295 293 293 300 306 313 317 318 316 320 324 324 326 328
295 295 294 294 295 295 295 294 296 295 296 297 297 297 295 295 294 294 294 294 294 294 293 292 292 292 292 292 292 291 288 288 294 294 307 308 308 310 312 313 315 316 316
294 293 293 293 293 293 294 294 294 294 293 293 294 294 294 294 296 295 294 294 293 292 292 291 291 291 291 290 289 287 285 287 291 289 301 302 302 302 304 304 303 304 304

GFSGL_sfc_thetae_084.txt.gz
Theta_e
342 343 343 340 339 339 341 345 347 349 349 349 351 352 352 351 352 351 351 352 351 351 350 351 351 351 350 349 350 349 346 341 340 345 342 348 353 356 359 359 359 360 358
341 343 343 343 342 339 339 341 346 348 348 349 348 352 352 352 352 351 350 351 350 350 351 348 349 349 351 352 350 351 349 348 345 344 347 348 353 357 357 357 358 358 358
341 341 342 343 342 342 340 340 343 345 347 348 349 348 351 352 351 351 352 352 352 351 351 350 351 350 350 350 351 350 351 350 348 345 347 352 353 354 356 358 358 359 357
341 340 340 340 341 343 344 342 341 343 345 347 348 349 350 352 353 352 351 351 352 352 352 352 352 352 351 352 351 352 352 351 351 350 349 349 350 354 352 350 353 357 353
341 340 339 340 341 341 342 344 344 343 344 345 348 351 351 352 351 352 353 352 351 351 352 352 353 352 346 348 354 354 353 351 350 349 349 348 349 350 351 353 349 351 352
341 341 342 341 341 340 340 341 344 344 344 345 345 348 351 352 339 338 349 352 352 352 351 352 353 348 347 340 338 340 350 354 352 349 349 348 351 350 353 350 349 347 345
339 341 343 343 342 341 340 340 341 343 344 343 344 346 348 351 334 334 339 353 352 352 352 353 351 352 347 353 342 336 336 335 340 354 351 351 352 355 354 353 352 347 347
342 342 343 344 343 344 343 339 339 341 342 343 343 345 345 347 332 330 335 350 352 352 352 352 352 353 352 352 353 353 353 353 350 345 349 353 355 356 356 355 352 351 352
329 334 341 345 344 344 343 343 341 340 340 341 343 344 345 345 327 328 333 349 350 352 352 353 353 353 340 332 351 351 351 352 341 332 334 334 333 332 338 347 346 346 345
324 327 331 333 339 344 345 345 345 342 341 341 341 342 337 344 327 325 330 348 347 348 352 352 334 347 331 326 347 350 348 350 352 353 351 342 334 343 330 343 348 345 346
323 325 328 331 333 338 347 347 347 346 346 344 343 343 342 339 342 321 322 347 346 346 347 348 352 327 323 320 324 351 348 351 348 350 350 349 349 351 351 349 350 348 348
321 324 326 327 331 335 340 349 347 346 345 346 345 345 346 345 328 321 319 324 338 348 347 350 349 323 319 317 320 326 324 326 346 347 347 346 347 348 349 351 355 352 354
319 320 324 326 329 330 331 337 348 348 346 346 346 346 347 349 347 322 317 319 324 344 351 343 330 320 316 319 317 321 319 335 340 341 343 344 347 348 351 353 355 357 357
315 316 320 323 325 328 331 336 345 350 347 346 346 347 348 349 350 350 337 328 322 329 336 344 337 333 329 335 333 328 333 338 340 341 343 345 347 347 347 350 350 351 350
311 313 316 319 322 325 329 333 340 352 348 349 349 350 349 348 350 339 339 344 342 336 339 347 348 348 347 345 344 345 344 340 338 341 342 343 343 344 344 349 349 350 349
308 310 311 313 317 322 327 331 321 317 313 314 316 338 350 329 321 312 311 312 313 311 335 345 344 346 347 346 345 347 347 342 345 345 345 343 343 343 344 347 348 350 349
306 307 309 310 317 319 324 328 330 331 311 307 306 307 308 329 308 308 307 308 306 312 347 345 346 347 345 346 347 347 347 350 351 347 345 346 345 347 343 345 347 349 348
305 306 308 312 317 318 321 326 330 332 335 347 316 314 307 306 304 306 305 308 323 316 345 348 348 348 348 348 348 348 349 352 351 350 349 349 348 346 344 344 344 347 348
303 306 310 314 315 317 322 323 328 333 336 342 349 318 308 303 305 303 300 343 344 341 339 345 349 351 349 349 350 350 352 352 352 352 351 350 349 347 346 349 347 330 336
304 306 309 312 314 318 319 319 323 328 332 340 345 350 330 321 325 327 324 332 345 347 349 342 340 339 340 341 343 347 349 348 350 350 349 348 348 348 348 347 347 344 340
302 304 308 310 312 312 313 314 316 321 325 326 323 314 303 334 339 336 328 324 327 321 321 317 316 316 318 318 322 326 330 330 327 331 334 334 336 338 342 342 343 341 341
301 303 305 305 307 308 308 308 311 312 315 315 313 311 305 317 314 313 313 313 316 315 316 311 308 309 311 310 311 314 316 316 316 318 323 327 330 333 336 338 339 339 338
299 301 303 301 302 302 304 304 304 305 305 304 305 304 303 302 303 302 301 302 304 304 307 310 306 300 300 303 303 303 306 307 308 312 317 323 326 327 329 331 331 334 338
297 297 298 298 298 297 298 298 299 298 300 299 298 297 297 297 296 296 296 297 298 297 301 298 296 295 296 296 296 295 295 299 306 310 313 314 315 314 318 319 320 319 322
295 295 294 294 295 295 295 295 295 295 296 297 296 295 295 295 295 295 295 295 295 294 293 294 297 295 294 294 295 294 289 289 294 295 308 308 307 308 308 309 311 312 312
293 293 293 293 293 293 293 293 293 294 293 293 294 294 294 293 293 293 293 293 292 292 293 293 293 293 293 293 289 287 286 288 292 290 302 302 303 302 303 302 303 305 307

GFSGL_sfc_thetae_087.txt.gz
Theta_e
350 354 355 352 351 353 351 354 357 360 361 361 362 362 362 363 364 362 361 361 360 361 361 361 360 362 355 355 356 356 354 352 346 349 356 359 363 366 365 367 363 363 359
352 354 352 353 352 350 351 352 355 357 361 362 362 362 362 362 363 362 360 358 359 359 359 360 358 357 361 362 357 360 357 359 352 352 357 355 361 365 365 366 362 359 364
349 349 352 351 351 350 351 352 353 356 358 359 362 361 361 361 362 363 362 361 359 358 359 359 359 360 359 357 359 357 356 358 358 354 353 357 358 359 360 364 363 365 360
348 347 350 352 354 351 354 353 352 353 356 358 359 359 360 362 361 361 361 361 361 359 360 360 360 360 360 362 360 362 361 358 358 356 353 353 354 360 360 354 353 356 357
348 347 348 353 353 354 355 355 352 353 354 357 356 356 358 358 358 360 360 360 360 360 360 361 361 358 349 352 356 360 362 359 355 353 351 350 349 349 352 354 353 352 359
348 347 350 350 351 352 353 354 354 353 353 355 354 355 356 353 340 339 354 360 361 360 359 361 362 352 351 340 339 340 350 360 358 352 349 349 356 356 354 354 351 349 345
347 349 349 351 349 350 349 351 352 353 354 352 354 354 356 358 333 334 339 359 360 361 361 361 359 357 353 361 343 336 337 335 340 359 355 356 356 358 360 358 357 354 352
346 347 348 350 349 350 351 349 352 351 352 354 353 354 355 354 332 330 335 357 361 362 362 362 361 362 361 360 361 360 360 360 358 354 357 358 360 363 363 362 360 359 358
336 340 340 346 349 350 349 350 350 349 350 351 352 355 354 355 328 327 334 353 355 361 361 362 362 362 347 334 358 358 359 359 344 336 336 336 336 334 340 355 351 349 346
327 330 332 334 336 344 351 352 352 350 349 348 349 353 344 355 332 323 332 348 350 350 360 364 337 352 334 327 355 357 355 355 356 357 359 348 338 349 331 352 355 349 348
327 330 331 332 334 336 342 346 350 351 350 350 350 352 353 351 352 322 320 351 349 348 348 349 351 328 325 320 327 360 355 355 351 358 356 356 358 359 359 358 360 355 351
322 329 333 333 337 340 342 345 347 348 347 348 348 349 351 355 332 326 318 322 340 351 351 350 351 322 319 318 322 330 326 331 355 352 352 350 351 353 355 359 364 362 360
318 320 325 332 334 337 338 341 344 344 346 345 346 346 349 354 354 322 317 317 321 345 353 346 330 318 314 320 318 322 320 346 350 350 349 349 351 354 360 360 361 364 364
314 315 318 323 327 331 333 338 339 342 344 345 345 346 348 352 355 356 346 335 322 329 338 348 342 336 332 340 342 332 344 352 351 351 350 351 354 355 354 356 355 356 355
314 312 315 318 321 325 329 331 337 342 335 345 347 349 349 352 355 343 345 353 350 341 343 351 351 351 350 351 352 353 355 354 351 352 353 352 352 354 354 356 356 355 352
313 313 311 312 317 321 324 326 316 313 313 308 306 324 353 334 319 313 314 312 312 314 342 350 349 348 348 348 350 350 350 346 354 355 353 353 352 352 353 355 355 353 353
312 313 313 312 315 318 322 322 323 325 312 309 306 304 309 324 309 308 307 308 309 316 345 349 349 349 349 349 349 349 348 351 354 355 353 353 354 355 352 353 353 350 348
311 306 310 313 316 318 320 321 323 324 326 329 324 312 308 309 310 305 307 311 324 318 347 349 348 351 352 352 351 350 351 351 353 353 354 357 357 356 354 350 350 350 347
308 309 311 312 315 315 318 320 323 322 324 328 334 331 316 307 304 307 302 341 349 345 340 348 352 355 355 358 357 354 352 352 352 353 354 354 354 354 351 351 351 331 336
308 307 307 310 313 314 316 317 319 320 321 324 327 339 333 321 330 330 326 334 350 355 356 348 350 351 354 354 355 357 354 351 352 354 355 356 356 356 351 352 353 351 350
305 305 306 307 309 312 314 313 315 315 316 318 322 317 302 315 336 340 339 335 337 339 332 336 331 325 321 321 322 325 330 333 332 335 341 343 341 342 344 345 346 349 350
303 302 304 305 307 309 309 310 310 311 312 313 315 313 301 320 319 316 318 319 320 322 321 320 316 315 319 320 321 322 322 320 318 320 325 329 333 335 336 336 337 340 341
302 301 302 304 305 304 304 306 305 305 306 306 305 305 305 306 306 305 304 304 302 304 304 307 309 308 306 306 308 310 312 311 312 316 320 324 325 327 330 331 330 332 337
298 298 299 301 301 301 300 301 300 299 301 300 299 299 298 298 299 297 298 297 298 298 298 299 301 303 304 303 302 300 302 305 312 315 319 321 317 317 319 318 316 315 315
295 296 296 296 297 297 297 297 296 296 297 297 296 296 295 296 295 296 296 298 296 295 295 295 296 295 297 299 300 299 290 290 301 300 312 312 311 311 313 313 311 310 310
294 294 294 294 294 294 294 294 294 294 294 294 294 294 294 293 293 293 293 293 293 292 293 293 293 292 292 292 290 287 285 288 295 290 307 306 306 306 305 306 305 305 305

GFSGL_sfc_thetae_090.txt.gz
Theta_e
358 358 359 358 360 361 359 358 360 361 362 363 365 365 363 362 365 366 364 361 360 359 360 361 362 364 356 352 353 353 351 350 344 346 352 358 366 366 366 368 364 362 354
357 358 358 360 360 358 359 357 359 359 362 364 364 364 364 364 366 366 362 358 360 359 358 361 360 357 363 363 355 360 358 358 351 355 359 354 362 366 365 366 360 357 359
356 355 357 358 358 358 358 359 359 359 360 360 362 362 362 364 365 365 365 362 361 361 361 361 359 359 360 357 359 354 353 354 356 352 351 353 355 359 361 367 362 364 355
353 354 356 357 359 358 359 360 359 360 359 359 360 362 363 363 363 363 363 364 364 363 363 363 362 359 360 362 361 363 362 359 359 352 350 349 352 362 358 352 349 352 352
352 352 354 358 359 359 360 359 359 360 359 360 359 359 361 361 359 362 364 363 364 363 364 364 363 359 349 352 356 364 365 359 354 350 349 350 349 348 353 349 348 350 356
352 350 355 357 358 359 360 359 359 359 359 360 358 356 356 354 340 339 355 362 363 363 363 364 365 354 352 342 341 341 349 359 358 350 345 345 361 355 351 349 349 346 344
351 352 352 355 355 357 358 359 358 359 359 359 358 358 358 358 334 333 341 360 361 364 364 363 361 358 356 363 344 338 339 336 340 358 356 356 358 359 362 361 362 355 352
341 348 351 352 353 356 355 356 357 357 358 358 358 359 359 359 331 329 335 358 360 364 364 364 364 364 363 361 362 361 362 362 360 356 358 359 363 363 364 364 365 363 360
326 331 337 350 352 354 352 354 356 356 355 356 357 359 361 361 328 327 335 351 351 362 363 366 365 366 349 334 361 360 360 359 344 337 338 337 334 334 341 356 350 346 342
326 326 331 335 340 348 353 357 357 357 355 353 355 357 348 360 334 323 333 351 351 345 358 367 339 355 336 329 361 360 358 356 354 355 358 351 342 353 334 355 356 348 344
328 328 327 335 336 342 346 345 351 358 360 357 355 355 358 355 357 323 320 354 350 349 343 343 350 330 328 323 327 365 360 358 352 354 353 354 355 358 359 362 366 357 349
328 327 328 327 331 338 345 348 351 351 354 352 349 351 353 359 336 329 319 322 341 353 353 349 350 321 320 321 327 334 327 331 352 345 344 347 347 348 350 357 372 370 365
326 326 326 327 328 334 339 342 343 347 348 350 347 347 348 354 356 325 319 318 321 344 354 345 327 316 312 320 320 324 323 349 349 346 344 347 348 350 363 366 368 374 372
322 323 323 322 322 326 330 333 335 338 339 339 354 349 348 350 356 357 357 340 322 331 337 345 342 336 329 340 343 334 346 352 351 348 347 350 351 351 349 352 353 354 354
322 319 322 319 318 320 324 327 329 336 332 332 339 346 348 349 351 340 341 359 357 342 345 352 351 351 352 354 354 355 356 355 352 352 351 351 351 351 350 351 352 352 351
321 320 318 319 318 317 318 321 315 311 310 306 304 320 339 322 315 314 308 312 313 315 344 349 352 353 354 355 354 354 355 350 355 355 354 353 352 351 350 349 350 351 350
319 320 319 316 316 316 319 321 322 323 306 306 304 303 302 311 308 307 307 308 311 318 350 352 351 354 356 357 356 354 353 355 359 356 354 353 353 351 348 348 349 350 351
316 311 316 317 317 317 319 321 322 322 323 326 316 313 311 304 304 302 305 312 329 323 348 349 351 353 357 355 354 355 355 356 355 355 354 355 352 351 349 350 351 352 353
312 315 316 317 317 316 318 319 320 323 324 326 327 322 320 307 304 300 303 331 344 344 342 345 351 356 357 358 359 359 360 358 356 355 355 354 354 358 357 357 356 335 341
311 311 310 312 314 316 317 318 319 321 322 324 325 326 331 321 321 329 335 326 333 345 352 349 352 353 358 364 366 365 365 360 359 357 354 355 355 355 353 354 353 352 352
308 311 312 310 312 313 315 317 319 318 320 321 322 322 300 315 320 325 327 334 334 338 340 330 343 352 353 350 348 347 353 349 345 343 343 343 345 351 349 347 349 351 351
304 307 309 310 311 312 312 316 318 315 313 316 317 316 301 316 313 313 313 311 312 319 325 325 320 317 317 322 327 331 333 333 330 331 332 336 339 339 339 338 338 338 338
301 301 303 305 306 306 306 311 312 313 310 311 312 309 308 306 305 304 304 305 306 306 308 312 313 309 308 309 311 312 319 319 318 321 325 329 330 332 333 335 337 335 336
298 298 299 301 303 304 305 306 307 303 304 306 305 303 302 301 300 299 299 299 300 301 303 304 306 306 307 307 308 308 310 312 317 320 324 326 326 322 330 326 323 323 323
295 295 296 297 298 300 301 301 302 302 302 301 300 298 298 297 296 296 297 298 297 296 297 298 299 298 297 298 300 303 295 294 310 304 316 318 316 318 318 316 316 315 316
293 294 294 295 295 296 296 297 297 297 297 296 296 295 295 294 294 293 293 293 293 293 293 293 293 294 293 292 290 288 286 289 297 294 311 312 310 312 312 312 314 312 312

GFSGL_sfc_thetae_093.txt.gz
Theta_e
361 364 365 363 362 365 362 362 363 363 366 362 358 365 362 362 365 366 367 364 362 365 364 362 363 370 356 352 351 350 349 348 343 345 351 359 367 370 369 371 365 367 357
360 363 361 363 364 361 362 362 364 365 367 365 364 364 364 363 369 363 360 357 360 358 359 363 360 355 370 370 356 366 358 362 351 357 356 352 364 373 374 375 363 358 360
357 358 360 361 361 362 364 365 365 367 367 361 367 366 365 363 363 366 364 361 358 358 360 360 358 361 365 359 364 356 353 356 357 351 351 352 354 356 360 370 371 367 360
354 355 361 361 363 361 365 368 366 368 368 366 368 368 367 365 365 362 364 366 364 360 361 362 360 360 364 367 363 367 364 359 357 351 349 349 351 363 357 353 352 352 352
351 355 358 363 365 365 367 368 365 367 366 369 367 366 365 363 358 366 364 365 368 366 365 364 363 359 351 355 355 365 368 359 351 349 347 347 348 351 355 351 350 350 358
348 349 356 357 365 364 364 365 368 367 368 369 367 365 362 353 341 339 356 363 366 368 367 368 370 358 353 343 342 342 350 361 366 350 344 344 361 354 348 347 348 346 342
341 338 340 357 356 359 363 363 365 366 365 367 367 366 365 364 335 334 340 360 364 367 369 370 364 356 357 366 345 340 341 338 340 360 361 360 360 364 365 365 360 357 351
332 333 336 339 346 353 357 358 361 362 364 366 365 366 367 364 335 329 335 362 363 366 368 368 369 368 369 366 367 364 363 362 362 355 358 361 364 367 368 365 366 368 363
330 330 331 337 340 341 349 354 355 358 360 360 362 363 367 366 331 328 334 351 354 362 366 369 369 371 352 338 363 366 367 366 347 341 344 343 343 339 344 356 350 346 342
329 331 331 331 335 341 343 345 354 361 359 356 356 360 350 364 338 325 332 352 353 350 357 363 342 355 339 331 363 364 363 364 364 360 361 350 343 352 336 354 355 349 346
328 329 332 334 333 334 341 348 351 354 358 359 359 362 362 359 362 324 321 356 354 352 352 352 353 332 328 325 327 366 362 364 359 361 359 357 355 358 362 364 366 357 351
329 328 329 331 331 330 337 342 346 350 351 353 357 355 360 363 338 333 320 323 345 355 355 354 354 322 321 323 328 335 331 335 359 355 352 349 347 348 351 358 370 370 365
326 329 328 329 329 330 330 333 335 345 343 345 348 352 354 354 354 329 323 319 322 344 357 348 323 317 312 319 320 325 325 350 354 352 351 351 352 350 356 362 370 379 377
323 326 329 326 326 327 326 327 327 331 335 337 338 340 351 354 355 355 361 346 325 335 339 349 343 334 323 334 342 333 344 353 353 352 353 355 355 351 351 353 352 352 353
322 322 325 325 324 324 325 324 325 329 324 327 331 332 333 339 346 321 321 334 339 340 336 353 353 351 351 354 356 358 359 356 353 354 355 355 354 352 351 353 353 351 349
320 321 321 322 322 321 320 320 312 309 306 305 304 314 331 318 311 306 304 306 306 306 337 346 350 353 354 354 355 356 360 354 359 358 356 355 354 353 353 354 355 352 350
317 318 320 318 320 320 320 318 317 318 307 305 302 303 302 307 302 300 301 301 301 306 337 350 352 350 355 357 357 357 357 359 362 358 358 359 357 357 352 353 354 354 351
312 309 314 317 318 319 319 319 319 318 319 321 310 310 303 301 300 300 300 301 327 320 337 349 355 353 354 358 357 358 362 359 359 358 357 358 358 355 352 352 352 351 350
308 308 312 315 317 317 319 319 319 319 319 319 322 315 314 302 303 302 301 328 337 341 339 342 350 352 352 357 359 361 362 364 359 355 355 357 357 359 356 352 351 331 338
306 309 310 311 314 315 316 316 317 319 320 320 321 321 325 325 326 326 330 335 333 335 340 346 344 348 351 355 358 361 361 360 359 357 354 357 357 358 356 355 357 355 359
303 304 307 309 310 314 315 315 316 317 317 319 320 319 299 325 323 322 325 326 325 324 329 335 336 333 346 352 352 354 356 354 351 352 355 356 357 352 354 355 354 354 354
301 302 302 303 305 306 310 313 315 316 316 317 320 320 303 320 319 319 318 317 315 314 312 315 322 320 318 321 326 330 333 337 334 334 334 336 338 338 340 340 340 340 342
299 299 300 301 302 303 305 307 308 311 313 316 316 315 316 316 314 312 311 308 307 305 308 310 311 312 312 313 315 315 321 328 327 327 328 331 332 335 336 336 336 336 336
297 297 297 298 299 299 300 301 304 303 306 309 309 309 311 311 308 305 303 302 301 301 302 302 304 305 307 308 308 307 307 311 318 324 327 329 330 324 332 329 326 325 325
294 294 294 295 296 296 297 298 300 303 304 305 305 305 304 303 301 300 299 298 297 296 296 298 298 297 297 297 299 300 294 291 309 306 323 324 324 323 320 320 319 319 320
293 292 292 293 293 294 295 295 296 299 299 300 299 299 299 297 296 296 295 294 293 292 292 293 293 294 294 293 292 291 289 291 302 297 314 315 316 315 316 317 317 316 316

GFSGL_sfc_thetae_096.txt.gz
Theta_e
362 363 362 363 365 367 365 366 368 365 362 353 352 355 362 363 365 367 364 359 358 360 364 361 362 366 361 360 357 357 354 353 350 353 356 361 362 365 363 367 368 366 361
362 364 363 364 364 364 364 365 366 366 365 359 354 357 361 365 365 364 363 360 358 359 361 359 359 357 364 364 360 358 357 359 354 349 352 351 351 355 368 367 367 360 360
357 361 362 362 363 363 365 366 367 366 366 364 366 364 364 363 364 365 364 364 362 360 362 362 360 363 362 359 363 359 357 360 359 354 351 358 356 358 355 362 366 365 365
349 351 358 361 362 363 365 366 367 368 365 365 363 364 367 365 364 363 361 363 363 361 360 362 363 361 361 362 361 361 360 358 357 355 351 350 351 354 359 357 353 352 351
346 346 349 347 361 363 366 367 366 366 366 366 365 364 365 364 360 363 363 362 361 362 364 364 363 361 355 357 358 360 360 358 354 351 351 352 350 350 350 352 349 353 350
340 338 344 349 351 360 364 366 367 368 366 366 364 363 362 360 343 340 356 360 363 361 361 364 365 359 353 343 342 342 350 358 355 356 352 345 348 354 353 352 350 345 342
333 334 336 344 347 348 356 360 364 364 366 364 364 363 362 362 339 332 339 360 360 362 362 362 363 358 353 362 343 339 340 338 342 350 349 351 352 355 358 357 355 354 351
333 332 332 334 340 343 345 350 356 359 359 360 361 362 362 362 338 333 334 353 358 359 363 363 362 360 361 362 363 360 356 357 353 347 348 349 351 354 358 357 356 356 357
331 331 331 333 331 338 342 344 347 351 354 358 358 360 361 361 334 331 333 351 352 357 359 360 362 364 349 340 358 359 361 362 349 341 342 341 340 339 346 357 351 347 343
329 331 334 334 332 331 335 339 346 350 353 355 355 360 351 361 338 327 330 352 351 349 352 357 340 350 338 330 354 357 354 355 360 361 354 344 340 346 336 350 354 347 345
328 332 332 334 335 338 339 340 343 342 347 354 353 356 358 357 358 325 323 355 354 353 352 351 352 332 327 325 325 359 356 356 354 358 359 357 356 357 358 353 353 350 347
328 327 332 334 331 329 335 335 337 340 342 347 350 350 353 356 339 335 320 322 341 354 354 354 354 324 317 320 325 331 330 335 357 356 354 352 351 351 352 352 358 359 357
324 327 327 332 333 332 332 330 332 336 340 339 341 347 351 355 355 327 325 322 323 334 352 345 327 323 318 319 317 320 320 342 349 349 350 351 352 352 352 351 353 366 363
321 324 326 326 329 331 328 327 325 325 328 333 331 333 340 339 345 336 339 342 330 332 333 343 338 334 327 333 335 340 333 342 345 346 348 350 351 351 350 351 347 344 355
317 320 323 323 325 328 329 326 326 330 322 323 324 327 327 329 337 318 317 329 328 324 320 337 343 347 350 351 351 351 352 346 344 348 348 348 349 351 350 352 349 346 346
311 315 317 318 321 323 324 325 316 308 307 304 303 311 326 316 310 304 301 302 306 308 320 332 339 344 347 350 351 351 351 348 352 351 350 350 349 350 350 351 349 346 344
309 310 313 313 315 316 318 321 321 320 310 303 301 302 302 309 304 300 299 300 301 305 320 330 339 345 346 348 350 355 353 354 356 354 353 353 353 351 348 349 348 349 347
306 306 309 312 313 315 317 318 320 319 319 321 313 305 303 299 299 298 299 303 327 315 326 331 336 344 347 351 353 352 352 355 355 349 346 350 349 352 352 350 349 348 347
305 306 306 307 309 311 312 315 316 318 319 319 321 315 314 298 298 300 299 328 328 330 333 339 341 343 348 350 351 351 352 353 351 353 353 353 353 352 349 349 348 328 333
304 305 306 305 306 307 309 312 313 315 316 317 318 320 322 318 325 329 329 329 329 328 328 330 334 337 341 347 350 351 350 348 349 348 350 352 352 350 349 348 349 347 347
302 302 304 303 304 304 304 305 308 309 308 314 316 318 300 323 324 324 325 324 325 322 320 320 319 322 325 328 330 341 345 343 340 338 341 339 338 333 332 330 333 337 346
300 300 300 300 300 301 303 303 304 304 307 309 312 316 301 318 322 322 320 317 316 316 314 313 312 315 317 316 317 321 326 332 337 337 335 335 336 336 333 333 333 334 335
298 297 297 297 297 299 300 301 301 302 303 305 308 310 310 313 315 315 314 313 310 308 307 307 307 308 312 312 312 312 313 317 319 322 326 332 334 335 334 333 333 335 336
297 295 294 294 294 294 295 297 298 297 299 300 303 305 308 308 311 311 309 308 305 303 302 301 302 302 302 302 305 306 307 305 308 316 322 325 329 324 332 333 328 327 325
296 294 293 292 292 292 293 293 295 296 297 298 300 303 304 305 305 305 303 301 299 297 297 296 297 297 296 296 296 298 294 289 302 301 320 322 324 324 323 321 320 320 320
296 295 293 292 291 291 290 291 292 294 294 296 298 300 301 300 300 299 297 296 295 294 293 294 293 293 294 293 292 288 285 287 298 293 314 316 315 315 315 315 315 315 315

GFSGL_sfc_thetae_099.txt.gz
Theta_e
351 353 354 354 354 352 355 353 354 348 346 343 346 349 352 354 353 350 349 351 348 348 349 349 346 350 352 350 351 347 345 345 336 340 347 350 347 346 346 352 358 358 356
346 350 353 355 355 354 354 355 354 349 348 344 346 346 350 353 353 352 351 351 350 347 348 349 347 352 347 352 347 347 348 345 341 336 341 343 343 347 347 351 360 361 355
347 347 347 353 355 354 353 356 353 354 352 350 347 342 347 353 354 354 353 352 350 348 348 350 348 349 348 348 345 348 347 350 349 345 344 347 346 345 345 346 349 355 353
347 344 343 347 348 353 355 356 358 357 355 354 355 355 354 354 353 355 353 351 353 352 352 353 351 349 349 350 349 348 347 347 346 344 343 342 343 347 347 347 340 343 344
341 341 347 348 346 346 351 355 357 357 356 356 355 353 355 358 356 354 353 351 351 352 351 354 353 355 352 351 352 350 350 347 346 344 342 342 339 341 342 344 341 343 341
333 336 343 344 343 344 346 350 351 353 355 357 355 354 355 357 346 342 351 353 354 352 350 352 354 353 351 345 344 344 350 347 344 344 345 343 340 340 344 343 343 341 338
328 332 336 341 341 342 346 347 349 350 350 351 354 355 354 354 339 334 338 351 352 353 351 352 353 357 350 355 342 338 337 337 340 341 338 338 339 342 342 342 342 343 343
326 326 328 331 335 340 340 342 343 345 345 349 350 352 353 356 337 336 336 338 346 352 353 354 353 352 352 353 354 353 347 347 343 341 342 344 343 343 343 344 345 346 349
322 326 327 328 328 332 334 336 341 342 346 347 351 351 351 352 334 328 333 341 342 345 351 352 354 354 345 337 347 349 351 355 347 337 338 337 337 337 340 348 347 342 344
319 321 325 325 325 328 330 334 338 340 341 347 350 352 344 348 335 329 329 343 340 344 343 348 338 346 336 331 346 351 348 351 350 353 345 340 336 341 334 342 346 341 343
318 320 321 325 325 323 325 326 327 329 337 340 343 347 350 348 348 327 325 343 347 345 347 347 345 329 324 324 325 349 348 350 350 348 351 352 351 350 348 344 347 349 346
315 316 319 320 323 326 323 323 322 324 327 329 336 343 343 344 333 331 320 319 330 341 348 350 349 320 318 315 319 324 323 327 341 350 350 350 349 350 350 351 351 349 351
313 315 316 319 321 324 322 319 319 319 318 321 331 329 332 337 334 320 318 319 322 331 337 331 320 317 317 319 318 320 321 330 333 337 341 344 347 351 351 345 344 345 350
308 310 314 314 315 317 322 322 318 316 316 316 317 316 321 331 337 334 331 332 328 333 330 330 327 324 322 329 331 339 336 333 335 336 338 342 345 346 346 348 346 346 344
306 307 309 310 311 312 315 317 318 318 315 312 312 314 314 315 321 322 319 328 329 323 317 328 331 334 335 339 346 348 348 347 337 340 341 341 342 344 344 346 345 345 343
302 304 305 306 308 309 310 311 311 308 306 302 301 304 312 311 307 304 301 301 301 304 318 322 326 329 333 338 340 343 348 346 347 344 343 343 343 343 343 345 346 345 344
299 300 301 304 305 307 308 309 309 312 307 306 303 302 299 303 302 298 297 299 299 303 315 318 322 324 327 331 336 341 344 347 349 347 347 347 345 344 342 344 345 344 344
299 303 300 301 301 302 304 304 306 308 308 311 310 306 305 300 298 297 296 301 317 307 316 322 325 328 332 336 339 343 347 349 346 346 346 346 346 345 339 335 335 339 343
298 298 298 299 300 301 302 303 304 306 307 309 311 310 309 305 298 295 296 316 320 321 323 323 325 328 329 332 334 336 341 345 344 346 346 344 345 340 335 333 332 320 330
297 302 301 298 298 299 300 300 301 302 302 304 305 306 309 309 313 315 313 317 321 321 318 318 320 319 317 317 320 324 326 332 340 342 344 343 344 344 342 339 338 334 332
296 296 300 295 295 296 297 297 298 299 300 301 301 304 301 304 311 315 318 317 314 313 312 310 312 312 312 313 315 316 318 322 328 336 339 337 336 336 333 333 332 332 331
295 294 294 293 294 294 294 294 296 297 297 298 300 302 300 305 308 310 311 309 308 307 308 306 306 307 308 309 311 312 312 314 318 325 328 334 334 334 334 332 330 330 329
292 292 291 291 292 293 292 292 293 293 295 296 297 297 298 300 303 305 309 310 308 304 302 303 304 303 304 305 305 306 307 308 311 313 315 321 328 333 334 332 331 330 331
291 291 290 292 292 292 291 291 291 292 293 293 294 294 296 299 302 303 306 303 302 303 298 298 299 299 300 300 300 300 302 304 305 305 309 315 321 324 330 333 332 330 330
291 291 291 290 291 290 290 289 289 290 291 292 293 294 296 296 297 300 303 301 297 296 296 297 296 296 295 295 295 296 294 290 290 294 306 316 320 324 327 324 322 321 321
292 291 290 289 291 290 289 289 288 288 289 289 290 293 294 296 298 298 299 297 296 295 294 294 294 293 293 294 293 289 286 285 289 289 302 316 317 317 317 317 317 316 315

GFSGL_sfc_thetae_102.txt.gz
Theta_e
346 349 350 351 352 350 350 349 347 347 348 348 347 346 349 350 349 348 346 346 347 345 345 345 345 345 344 348 348 343 342 340 333 336 344 345 345 343 345 345 348 352 356
346 347 346 347 352 350 350 352 351 346 345 345 344 346 348 349 349 348 345 349 347 345 345 344 345 348 344 346 345 343 344 343 340 337 340 342 342 345 344 344 349 355 354
344 343 341 341 346 347 350 351 351 348 345 344 341 343 345 348 350 350 349 348 346 346 345 344 345 344 342 343 344 343 344 345 345 342 340 343 342 343 343 344 345 344 347
344 342 340 340 344 343 346 347 349 351 347 346 345 344 342 343 349 351 351 350 350 349 346 345 346 346 344 344 344 344 343 342 341 340 340 339 341 344 343 341 342 341 343
340 341 341 343 345 341 341 344 349 350 352 349 349 349 350 350 352 350 351 349 347 347 350 350 350 350 346 344 347 346 345 343 342 340 340 340 341 339 339 342 340 340 340
334 337 345 344 341 340 341 341 345 348 351 351 350 352 350 354 345 340 348 349 348 346 346 348 351 350 348 342 341 342 345 344 342 341 339 338 338 338 339 339 337 335 333
328 331 335 340 341 343 342 343 344 343 343 345 350 349 348 351 338 335 338 349 350 350 349 349 348 352 348 352 344 337 337 337 340 342 338 337 335 337 336 334 334 336 336
325 326 329 329 332 336 337 339 341 344 344 345 346 346 348 352 337 332 335 340 341 347 350 350 349 349 347 349 349 349 350 347 341 340 342 344 341 343 337 338 336 339 343
318 319 324 325 326 330 331 331 336 339 340 343 347 346 344 345 332 328 332 340 341 342 345 349 351 351 341 333 345 345 346 348 344 333 334 334 334 334 337 341 340 338 341
314 316 318 320 322 322 324 328 330 330 335 340 340 346 342 346 332 325 328 342 341 344 344 344 334 344 333 330 345 347 346 348 347 348 348 337 333 338 332 339 345 340 340
314 315 316 318 318 321 320 321 319 320 325 328 333 342 341 338 341 323 322 339 344 345 345 346 345 327 319 318 321 344 345 341 341 344 347 349 348 347 347 344 343 345 342
310 311 313 315 317 320 319 320 317 317 316 320 329 326 335 337 321 318 317 319 325 340 342 344 339 317 313 315 320 321 319 322 333 337 339 341 344 347 350 351 350 347 349
306 307 309 312 312 313 314 316 317 316 313 315 314 315 317 327 334 321 319 319 320 331 337 331 323 316 317 325 323 318 318 329 331 332 335 339 342 345 346 348 347 349 349
303 304 306 306 307 308 311 312 311 311 312 312 311 309 310 314 318 323 331 328 324 328 328 328 324 320 318 323 328 333 335 337 336 337 340 342 343 341 342 344 344 346 344
300 301 301 302 302 305 307 307 309 309 305 306 309 309 310 311 312 312 314 319 322 317 315 321 325 329 330 331 332 335 341 344 343 340 341 342 343 342 341 342 342 342 341
297 298 299 299 301 302 303 304 305 304 304 301 300 301 309 305 303 300 299 297 300 302 318 320 318 320 323 325 329 333 336 337 343 346 343 342 341 340 341 341 341 339 339
295 296 297 299 299 298 299 300 300 304 303 303 301 300 301 298 299 298 296 295 299 302 315 314 315 318 321 323 326 331 335 339 344 345 345 346 345 343 340 341 342 343 342
295 300 294 295 296 296 297 298 300 299 300 303 304 302 301 299 298 299 295 298 306 305 313 315 317 321 326 326 323 322 323 327 330 333 337 344 345 344 343 343 344 342 340
294 295 295 294 294 297 296 296 297 298 298 299 301 302 302 300 299 300 296 305 310 314 317 317 319 318 314 316 315 315 318 320 320 322 329 337 340 342 341 342 341 322 326
294 300 298 293 293 293 293 294 294 295 296 297 297 298 300 300 301 303 307 313 315 317 315 313 310 309 309 310 310 311 313 314 315 317 320 324 333 338 339 338 336 334 333
293 292 297 291 291 291 292 291 292 292 292 294 295 297 297 298 298 300 305 308 312 312 310 309 305 304 305 308 308 308 308 310 312 314 315 318 324 328 336 339 339 338 334
290 290 290 289 290 290 290 290 290 290 290 291 292 294 295 295 296 296 298 301 307 311 310 308 305 305 303 304 305 305 304 305 307 310 311 314 314 318 324 333 333 332 332
290 289 289 288 289 291 289 289 290 290 291 290 290 291 293 294 294 295 296 299 303 307 305 305 304 302 300 301 304 303 302 301 304 306 306 307 308 311 318 325 331 332 330
290 290 289 288 289 289 290 289 289 289 289 289 289 290 291 292 293 295 296 298 299 302 303 301 300 299 299 299 299 300 300 300 301 301 301 301 302 305 311 318 324 330 332
290 289 288 288 287 288 287 287 288 288 288 288 288 289 289 289 291 293 295 297 299 301 299 299 297 296 295 295 293 293 292 290 291 290 292 294 298 303 309 315 320 326 330
290 290 288 287 286 285 288 288 286 286 287 288 288 287 287 288 289 291 292 294 296 296 296 296 296 295 294 293 292 290 286 285 287 286 289 293 299 305 312 316 319 323 324

GFSGL_sfc_thetae_105.txt.gz
Theta_e
344 345 346 347 347 345 343 342 342 345 345 346 346 343 346 348 348 347 344 344 343 342 342 342 343 342 342 346 346 341 341 338 334 337 340 343 343 342 345 345 348 349 349
343 343 343 344 344 345 345 346 350 345 346 347 346 344 344 347 348 346 345 346 344 344 343 342 342 346 342 342 344 340 342 341 338 334 338 340 341 342 343 342 346 348 343
342 339 338 341 341 342 344 346 347 346 343 343 343 343 343 346 347 347 347 345 345 345 345 342 342 342 341 340 340 341 341 343 342 339 338 340 341 341 341 343 344 342 344
341 338 338 339 339 338 340 343 347 348 344 342 342 341 341 344 346 348 348 347 347 347 346 345 343 342 342 342 340 341 341 340 339 338 337 337 338 342 340 339 340 340 340
339 337 339 339 341 341 340 339 342 345 348 346 345 344 343 343 344 344 348 348 347 347 348 349 348 347 345 343 345 343 342 341 339 338 337 336 337 336 335 338 337 336 336
339 339 341 343 341 339 339 339 339 342 343 346 349 347 347 349 340 337 345 348 348 346 345 345 347 347 346 340 338 340 343 342 340 339 338 337 337 336 336 336 333 331 329
329 329 331 340 340 341 341 338 338 342 343 343 344 345 348 349 336 334 339 348 349 348 346 346 347 351 344 349 342 337 336 335 339 344 340 339 337 337 336 333 331 332 332
322 324 327 328 331 334 335 337 339 341 339 343 344 343 346 348 332 327 333 341 344 346 348 348 348 349 347 346 347 346 347 347 342 339 342 345 342 344 338 339 336 334 337
315 317 320 323 325 326 325 328 328 330 335 337 339 340 343 346 330 325 327 340 342 342 342 344 347 348 340 333 342 345 346 346 341 332 333 333 332 332 335 338 338 334 340
312 314 316 318 320 321 322 324 326 326 327 332 335 339 336 340 328 322 325 339 339 342 343 342 332 341 331 326 341 345 343 345 345 346 346 340 333 337 331 338 342 339 342
309 311 313 314 316 317 317 319 318 319 318 326 328 332 336 331 334 319 319 336 340 341 341 344 344 322 318 319 319 338 342 335 336 337 340 343 346 346 346 341 341 343 342
306 307 308 309 311 312 314 313 316 314 314 314 315 316 318 324 321 321 316 319 325 334 337 341 340 322 316 315 321 325 322 322 330 333 335 338 340 342 345 348 348 345 348
303 302 303 305 306 308 308 308 310 310 310 309 310 309 311 315 317 314 316 318 321 328 331 324 316 316 317 323 321 322 322 332 332 331 335 338 342 344 345 342 344 349 348
299 299 300 300 302 304 306 307 306 305 305 306 307 307 307 309 311 309 310 313 318 320 323 324 321 318 317 321 327 331 334 333 333 334 336 340 342 341 341 342 341 341 339
297 297 297 298 298 299 300 302 304 303 302 302 304 304 305 305 305 301 299 302 302 305 307 318 319 319 320 321 323 328 332 335 336 339 339 339 341 342 342 342 340 339 336
295 295 296 296 296 297 297 298 302 302 301 299 298 300 304 303 298 298 297 297 295 300 312 314 315 316 316 318 320 324 326 330 333 335 338 342 342 343 342 342 339 338 337
293 294 293 294 294 294 295 296 295 298 300 299 297 297 297 297 297 296 295 296 297 300 308 309 311 313 315 319 327 326 322 321 323 326 326 329 333 337 340 341 341 340 339
293 299 292 292 292 293 293 294 294 294 294 295 298 298 297 296 295 295 295 299 309 308 307 309 312 314 321 321 318 315 314 314 316 316 318 322 325 328 333 336 338 340 341
293 293 292 291 291 293 291 292 293 293 292 293 294 296 296 296 295 296 297 302 307 309 312 315 316 314 313 312 308 308 309 310 311 312 313 315 319 321 322 328 334 322 327
292 299 295 289 289 289 290 290 290 290 290 290 291 292 294 294 293 294 296 298 300 303 309 312 311 310 309 308 307 307 309 309 309 309 310 311 313 316 318 321 323 327 332
290 290 295 289 289 289 289 289 289 289 288 289 289 292 293 290 291 292 293 294 295 297 300 304 310 308 308 307 306 306 304 305 307 307 308 308 310 310 313 315 317 319 328
289 288 289 288 288 288 288 288 287 288 288 289 289 290 291 289 290 291 292 293 295 296 298 301 304 307 306 305 305 304 303 303 303 305 304 306 307 307 308 309 312 316 320
289 289 288 288 288 290 287 287 287 287 287 287 288 288 289 288 289 290 290 291 293 296 298 299 299 301 303 303 301 302 301 301 302 303 302 302 303 304 305 305 308 310 313
289 289 289 288 287 287 286 285 286 287 287 287 288 288 288 288 288 289 290 290 291 295 296 298 298 300 301 299 299 299 300 300 301 300 300 300 299 298 300 302 304 308 311
289 289 288 287 286 285 285 284 285 285 288 288 288 288 288 288 287 288 289 289 290 291 292 294 298 298 298 297 297 297 295 291 293 293 295 293 293 294 296 298 301 304 307
289 289 288 287 286 285 284 283 284 287 288 289 289 289 288 288 288 288 288 289 290 291 292 293 293 294 295 295 295 292 288 287 289 287 289 290 291 293 296 298 301 305 309

GFSGL_sfc_thetae_108.txt.gz
Theta_e
345 346 348 349 346 344 345 345 345 345 348 347 350 350 350 349 351 351 350 350 348 349 349 349 349 350 349 351 353 349 349 345 342 346 346 352 354 354 356 356 355 358 352
341 345 346 347 348 349 349 348 348 348 348 347 349 349 347 350 352 351 350 351 349 348 348 348 348 349 350 350 350 350 350 349 347 345 348 349 351 353 353 354 354 353 353
341 339 341 342 343 345 346 348 350 350 350 348 348 348 347 348 350 352 351 351 349 350 350 349 349 348 348 347 347 347 347 348 348 347 346 349 349 350 352 354 354 355 350
342 339 340 341 341 341 342 343 345 349 350 348 347 346 347 348 349 351 351 351 351 351 351 351 350 348 348 349 348 348 348 347 347 346 345 345 347 352 349 346 348 349 347
340 338 339 341 343 342 341 341 343 345 348 351 349 348 347 345 345 347 351 352 352 351 352 353 353 351 344 346 352 352 350 350 347 346 345 346 347 347 347 348 345 345 348
338 335 338 344 342 341 341 341 341 342 346 347 348 350 349 348 338 335 344 348 350 351 351 353 353 347 348 339 337 338 346 352 351 347 348 347 349 347 347 346 345 344 342
326 328 329 334 340 342 343 340 340 343 345 346 347 348 348 351 332 330 335 348 351 352 352 351 351 352 348 354 343 337 337 334 339 354 351 351 350 352 350 347 345 343 344
321 323 324 327 328 329 330 330 333 338 340 341 342 343 346 348 326 325 330 343 347 350 351 354 353 354 354 353 354 352 353 355 351 345 349 353 354 356 351 353 350 347 346
316 318 320 323 324 325 325 325 325 328 332 334 338 341 343 340 321 323 329 345 345 346 348 348 349 351 339 329 348 349 351 352 343 331 334 334 333 331 337 347 346 345 346
312 314 316 318 319 319 322 323 324 326 327 334 336 337 330 336 323 318 329 342 341 343 347 348 333 332 318 318 336 346 346 350 352 353 354 345 335 344 331 343 349 345 346
310 311 311 312 314 315 316 318 318 318 320 319 320 322 323 321 320 312 316 334 332 335 336 339 343 324 322 320 320 333 339 334 339 343 344 346 348 350 352 352 350 348 347
307 307 308 308 310 311 312 313 313 313 313 314 314 314 316 318 311 310 310 312 321 329 330 336 334 316 317 317 322 323 322 325 335 338 340 342 345 346 349 351 356 353 353
303 303 304 306 306 307 309 310 308 308 309 309 310 310 311 312 311 308 308 310 313 318 325 321 315 311 312 320 322 322 320 332 336 335 336 340 345 346 349 351 353 355 355
301 301 301 302 302 302 304 306 305 304 305 306 307 306 308 308 306 305 306 310 310 312 312 315 318 316 313 317 324 331 336 339 339 339 341 344 347 346 345 348 346 347 346
298 299 298 299 299 299 301 302 304 304 302 304 302 303 303 303 301 299 298 302 303 303 305 318 321 322 322 325 327 331 335 336 337 334 334 335 338 340 342 346 345 345 341
297 297 297 297 297 297 297 298 300 300 299 297 296 299 303 299 297 296 294 294 296 298 312 315 316 318 317 319 322 328 332 326 324 326 328 326 324 329 334 339 343 341 339
296 295 295 295 295 295 295 295 294 297 298 296 295 296 296 295 294 294 294 294 298 304 311 312 313 316 318 320 324 325 321 319 320 320 318 320 322 323 323 328 333 337 337
297 297 294 294 294 293 294 294 294 293 292 293 295 295 294 293 293 293 294 297 301 305 308 310 311 313 317 316 315 313 313 315 315 315 315 315 318 318 318 320 322 326 330
296 295 293 293 294 293 293 293 293 292 292 292 293 293 294 292 292 292 294 297 296 297 299 302 307 312 312 312 311 311 311 310 310 310 310 311 312 314 315 317 319 313 314
298 297 294 292 292 292 292 291 291 291 291 291 291 291 292 292 291 292 294 295 295 296 297 298 300 301 303 310 311 310 309 308 308 308 309 309 310 310 310 311 315 315 316
294 296 295 292 292 292 291 290 290 290 290 290 290 291 292 290 290 291 292 292 293 293 295 297 298 301 304 303 306 308 308 307 307 307 307 307 306 306 309 311 311 310 312
293 292 292 292 292 292 291 291 290 289 289 289 289 290 290 290 290 290 290 291 291 292 293 295 297 299 300 300 300 303 303 303 304 304 305 304 305 305 304 305 308 309 310
292 292 292 292 292 292 291 290 289 289 289 289 290 290 290 289 289 289 289 290 290 291 292 294 294 296 297 299 302 302 301 300 300 302 301 301 301 301 301 301 302 304 305
293 293 292 292 292 292 291 290 289 289 289 289 290 290 290 289 289 289 289 289 289 290 291 291 292 293 295 296 297 297 299 299 300 299 299 298 298 297 298 298 298 300 301
293 293 293 292 292 291 291 290 289 289 290 290 290 291 291 290 289 289 289 289 290 290 291 291 292 293 293 293 293 294 293 290 293 293 296 296 295 294 294 294 294 296 298
293 293 293 292 292 291 291 290 290 290 290 291 291 291 291 291 290 290 289 289 289 289 290 291 291 292 292 292 293 291 288 287 289 287 290 291 291 291 292 293 294 296 297

GFSGL_sfc_thetae_111.txt.gz
Theta_e
352 354 355 356 357 357 356 357 356 357 358 358 359 359 359 360 361 361 361 360 358 359 359 359 358 361 354 355 358 358 355 354 345 347 354 357 361 361 361 364 361 362 356
354 355 355 358 358 357 357 358 357 355 357 360 357 358 359 359 361 360 358 358 358 357 357 358 356 355 360 361 355 359 356 358 351 350 355 354 359 363 364 364 358 354 357
353 354 355 355 357 357 358 359 360 360 360 359 360 359 359 358 358 358 359 359 359 358 359 357 357 359 358 356 357 354 353 353 355 352 352 356 357 360 360 362 362 364 359
346 347 350 351 352 353 356 357 358 361 361 360 360 360 359 357 358 357 357 359 360 358 360 359 359 358 359 361 359 360 359 355 356 354 352 353 355 360 359 355 355 356 356
345 345 346 350 350 350 350 352 352 355 357 361 360 360 359 357 355 356 357 357 359 358 359 361 360 357 348 350 355 365 360 359 356 349 348 350 350 350 352 355 354 354 357
342 341 342 347 346 348 347 348 348 350 354 358 358 359 359 356 336 335 345 355 357 357 356 358 361 350 351 340 338 339 350 359 357 349 347 349 355 356 355 354 353 350 345
333 339 339 336 345 348 348 348 346 349 352 353 354 356 357 356 327 329 334 354 357 359 360 360 359 356 353 361 344 336 337 335 340 361 357 358 357 361 363 358 358 355 351
326 331 331 329 330 334 338 340 343 346 347 348 348 352 345 333 322 323 329 358 358 359 360 361 360 361 359 356 359 359 360 361 360 356 358 362 366 366 365 362 359 358 357
321 326 328 329 329 329 330 329 331 335 337 344 346 344 341 328 317 319 338 352 354 355 356 357 356 355 323 323 350 353 356 358 348 334 335 334 335 334 341 355 351 350 348
321 322 323 324 327 326 327 328 332 335 335 334 333 329 320 322 312 312 330 338 338 342 344 344 327 331 321 319 337 338 341 351 352 356 358 351 341 351 331 351 354 351 351
319 319 320 322 321 322 321 323 325 325 327 326 325 324 322 315 313 309 311 329 328 331 335 340 340 319 316 315 317 336 333 332 335 344 349 351 355 358 359 367 361 359 353
317 317 317 318 318 319 321 319 320 320 321 322 323 321 320 320 308 308 308 310 314 326 326 329 330 313 309 311 319 321 317 321 335 334 338 344 345 348 350 349 355 357 357
314 313 313 314 315 316 316 315 315 315 316 315 316 317 317 316 313 306 307 308 312 320 321 317 311 311 312 320 317 316 316 336 336 338 338 341 346 348 349 350 354 360 361
310 309 310 310 311 312 312 312 311 311 313 310 309 308 310 310 307 307 308 311 311 317 317 322 320 317 315 319 325 329 337 339 340 341 339 340 342 342 342 346 345 345 348
307 306 306 307 307 308 308 308 309 306 305 307 306 307 307 303 298 298 298 302 305 309 305 321 322 322 323 324 326 329 333 335 333 332 332 332 331 329 330 337 339 341 343
305 304 303 304 304 304 305 303 298 299 297 295 295 299 303 296 295 294 293 294 295 299 313 315 316 318 319 321 322 326 330 328 327 326 325 324 323 324 324 325 327 329 333
304 303 301 302 302 302 302 302 301 299 297 295 294 294 293 292 293 292 292 293 298 302 309 311 312 313 315 317 318 317 319 320 322 323 323 323 323 323 323 323 324 323 323
303 299 301 301 300 300 301 301 301 301 300 300 295 295 293 292 292 292 293 297 303 303 303 304 305 308 310 312 315 316 316 316 315 316 319 318 316 317 319 320 321 322 322
302 300 300 300 300 299 300 300 300 300 299 299 299 297 296 293 292 293 294 301 300 300 301 302 303 303 304 305 307 309 311 312 314 314 314 315 317 315 314 316 317 311 313
301 298 299 299 299 299 299 299 299 298 298 298 297 296 297 298 298 298 299 298 298 298 298 299 300 302 303 303 304 303 305 307 308 309 310 311 313 314 313 311 312 314 316
301 300 298 300 299 299 298 298 297 297 297 297 296 294 290 296 296 296 296 296 296 297 297 297 297 298 300 301 302 303 303 303 306 305 304 305 306 305 306 306 306 307 310
301 300 300 299 299 298 298 298 297 297 297 296 297 296 291 297 296 296 295 296 296 296 296 295 294 295 297 298 299 298 299 301 303 303 302 302 302 303 303 303 303 303 304
300 300 299 299 300 296 297 297 297 297 297 297 297 297 296 296 295 295 295 295 294 293 294 293 292 293 294 294 295 297 298 297 296 297 298 299 299 300 301 300 299 299 300
300 300 300 299 299 299 298 297 297 293 297 298 298 297 297 296 295 293 293 293 293 293 293 292 293 294 294 295 295 295 295 295 296 296 295 296 296 297 299 297 296 296 296
300 300 300 300 299 299 298 298 298 299 299 299 298 298 298 298 297 296 295 292 292 292 292 292 293 293 292 293 293 293 292 288 291 290 292 292 292 293 294 294 295 295 295
300 300 300 301 300 299 299 299 298 299 299 299 299 299 298 297 296 296 294 292 291 291 291 291 291 291 291 292 292 290 287 286 288 286 288 289 289 290 291 292 292 293 294

GFSGL_sfc_thetae_114.txt.gz
Theta_e
355 357 356 357 358 361 360 362 363 365 365 363 364 362 361 360 362 362 362 360 361 360 361 360 360 362 353 351 352 353 351 350 345 347 351 355 363 362 362 365 359 357 352
357 358 359 358 359 357 358 360 362 362 364 364 364 364 360 360 362 360 358 357 359 358 358 359 358 354 361 361 353 358 357 358 351 354 359 353 359 363 363 365 359 355 357
357 356 358 356 357 357 359 358 360 362 362 363 365 363 363 364 363 361 361 359 358 358 359 359 358 358 360 356 358 356 353 352 353 349 348 351 353 357 359 364 361 362 354
356 356 358 358 358 357 359 361 362 364 361 361 361 362 362 361 363 362 361 361 360 359 358 358 358 358 359 360 358 359 358 357 357 352 350 350 350 360 357 350 347 351 352
348 350 353 356 358 360 360 361 361 361 360 362 361 361 362 361 359 362 361 360 360 358 358 358 359 356 349 350 355 360 361 355 349 347 346 346 346 350 351 349 348 349 355
344 345 348 353 353 354 355 356 358 359 360 361 360 360 360 357 336 338 349 360 360 360 359 360 361 353 352 342 340 339 348 359 357 352 347 347 360 357 353 352 351 349 346
343 344 346 349 347 350 351 353 352 354 356 357 359 360 358 353 323 327 337 359 361 362 364 362 359 354 354 360 344 338 339 335 339 360 355 356 359 360 362 360 362 355 353
340 341 345 345 337 336 345 349 352 352 354 355 355 354 347 332 317 320 330 360 361 362 362 363 363 363 348 353 362 360 360 361 360 359 361 362 363 365 366 364 363 364 361
329 334 339 338 331 332 334 338 343 348 348 348 345 342 339 327 313 316 333 360 359 355 351 345 353 347 326 325 352 357 359 360 349 336 335 334 333 334 341 356 352 349 348
328 333 336 337 337 336 335 338 341 342 342 337 331 327 321 324 311 312 324 347 349 348 346 342 328 332 318 317 342 350 350 353 355 355 357 354 344 354 335 355 357 351 351
325 327 329 332 333 334 335 338 339 337 337 335 331 328 323 322 314 310 312 329 334 336 339 341 340 316 312 311 314 338 337 332 337 344 347 350 352 357 362 364 364 362 357
324 324 325 328 329 329 330 330 332 333 331 331 330 327 326 325 309 308 309 310 315 331 328 329 329 311 309 310 318 317 315 320 336 335 335 338 340 342 348 351 355 355 355
322 323 323 325 326 328 327 327 326 327 326 326 323 324 324 322 320 309 308 310 313 323 323 319 312 310 310 317 315 316 315 339 339 338 338 338 340 342 348 349 354 356 357
319 319 320 320 321 323 322 323 324 325 323 323 319 317 317 313 308 308 309 313 313 318 318 321 321 317 315 321 325 328 334 336 336 336 334 335 337 336 335 335 335 338 338
315 315 316 315 317 316 313 311 313 306 305 318 316 316 314 311 302 297 296 302 308 309 309 320 321 321 322 323 325 327 329 334 334 332 330 330 330 329 329 331 329 328 327
313 312 311 312 312 313 310 307 297 298 296 294 294 300 304 295 294 294 293 293 295 298 313 315 316 318 318 320 321 324 326 325 326 326 326 327 326 327 328 329 329 329 327
313 310 308 308 310 309 309 308 304 298 296 294 293 293 293 292 293 293 292 293 296 301 310 309 310 310 312 314 316 316 317 320 324 321 321 322 323 323 322 324 325 326 325
310 301 308 308 308 308 309 309 310 308 307 304 295 296 293 293 293 292 293 297 308 308 308 308 308 308 309 309 310 312 312 312 315 316 316 318 319 318 319 319 319 321 322
307 306 308 307 307 305 307 307 307 307 307 306 305 297 298 294 293 294 295 306 305 305 305 305 306 306 307 308 309 309 310 309 307 311 311 311 314 314 315 317 317 310 311
306 302 306 305 304 305 305 305 305 305 306 306 304 302 303 305 305 304 305 304 304 303 303 303 304 304 305 305 306 307 307 307 308 308 309 307 307 308 307 308 308 308 310
305 303 303 306 305 306 306 305 305 305 304 304 303 296 290 302 304 303 303 303 302 302 301 302 301 302 302 302 303 302 303 304 304 304 305 305 306 304 304 304 304 305 305
306 304 304 304 304 304 304 305 304 304 304 303 303 299 294 303 304 303 302 302 302 301 301 300 300 299 300 299 299 299 299 298 297 298 299 299 298 300 301 303 303 303 303
305 305 304 304 305 299 302 303 304 304 303 304 305 305 305 304 304 302 301 301 302 301 301 300 298 297 298 297 297 296 296 296 297 297 296 296 296 297 299 299 300 300 300
305 304 304 304 304 303 303 303 303 297 304 303 304 305 306 306 305 303 304 302 300 300 300 299 298 296 296 296 296 296 296 296 295 294 295 294 294 295 296 297 298 299 298
305 304 304 304 304 303 303 303 303 303 303 303 304 306 306 306 304 304 302 301 299 297 296 296 295 295 294 294 295 294 292 287 290 289 290 290 290 291 292 293 293 294 295
305 304 304 304 304 304 304 303 303 303 303 304 304 306 306 306 306 305 303 301 299 298 297 296 295 294 294 293 294 290 286 286 289 286 287 288 288 288 289 290 291 292 292

GFSGL_sfc_thetae_117.txt.gz
Theta_e
355 357 357 356 357 359 357 358 361 364 366 364 363 362 360 361 362 363 365 364 361 361 361 363 360 368 356 352 353 351 348 347 343 346 350 356 365 369 362 366 360 364 353
355 359 357 357 357 355 355 359 361 362 371 365 363 363 362 361 364 362 358 356 357 357 357 361 358 354 366 369 354 365 356 358 347 354 353 350 362 370 371 371 357 353 357
360 357 358 357 357 356 356 359 361 362 363 366 367 364 364 362 363 362 362 360 358 357 357 357 356 358 362 357 361 358 353 352 356 348 347 351 353 355 362 368 368 365 356
354 359 360 359 359 357 357 359 359 362 362 366 364 364 362 362 361 360 361 361 360 358 359 358 357 357 361 360 361 364 362 358 356 350 347 347 348 358 360 351 348 350 351
347 353 357 360 362 361 360 361 360 361 360 365 361 361 361 359 354 361 363 361 362 359 358 358 358 356 350 351 355 366 367 358 350 346 344 343 343 350 350 351 350 350 355
342 346 353 356 357 358 360 360 361 362 361 364 362 359 360 353 326 331 347 358 360 360 358 360 361 355 353 344 342 342 349 358 360 352 349 348 359 356 353 350 350 346 344
344 346 349 350 352 355 355 357 356 357 360 359 359 359 353 342 321 326 335 358 362 361 363 364 359 352 355 360 345 340 340 337 341 361 358 359 359 364 365 364 360 357 353
345 345 346 348 347 348 351 352 353 357 355 357 357 357 345 331 317 319 329 357 362 361 360 361 364 362 341 344 360 361 360 362 357 358 362 365 366 367 366 365 364 363 361
339 343 344 346 345 343 335 335 339 347 345 344 342 343 339 327 314 317 328 361 359 350 350 345 354 350 326 325 348 355 357 360 349 336 336 336 335 337 341 354 352 350 348
333 338 341 340 338 336 332 337 343 344 341 339 337 334 324 325 311 312 324 352 352 351 354 350 325 327 316 317 338 343 347 348 343 344 349 350 348 355 338 354 357 352 352
328 332 338 340 340 340 341 341 340 339 339 334 333 331 328 323 315 310 311 331 331 337 339 340 334 317 314 312 313 340 335 331 335 338 339 339 345 350 360 366 364 362 351
325 328 331 332 332 334 338 339 342 340 337 336 335 330 328 323 312 310 309 311 316 332 330 331 329 312 310 310 317 318 317 319 339 341 341 341 341 343 344 348 358 359 360
322 323 328 329 332 332 332 334 332 335 333 333 331 329 327 325 323 311 309 311 314 320 326 318 313 311 311 318 317 317 316 335 336 335 334 336 336 338 350 346 349 352 359
324 324 323 326 327 328 328 329 329 327 327 328 327 328 325 321 315 310 308 312 313 318 318 318 319 318 314 319 320 328 332 332 332 334 334 333 334 333 332 334 332 332 332
320 320 320 319 322 320 312 306 316 305 301 318 318 322 317 319 306 297 297 304 307 305 303 320 320 322 322 323 325 327 329 330 329 328 326 325 326 327 327 330 329 330 329
317 316 316 316 318 316 314 308 298 297 295 294 294 302 303 296 295 294 293 294 295 297 312 315 317 317 317 316 317 319 321 322 322 322 322 322 321 321 322 323 324 324 325
316 315 313 310 313 314 313 311 305 298 296 294 294 294 294 293 294 293 293 294 296 299 312 312 312 311 311 312 311 312 313 315 319 315 316 317 316 318 319 318 320 321 320
315 305 312 312 312 312 312 313 312 310 309 306 295 297 294 294 293 293 294 297 310 308 310 310 309 310 310 311 311 310 311 311 311 311 311 313 314 313 313 314 315 316 316
311 309 310 311 311 309 311 310 310 311 311 309 306 297 298 295 296 295 296 309 308 307 307 308 308 308 308 308 309 309 310 309 308 309 310 311 310 309 308 308 308 305 306
309 305 306 309 307 308 309 308 308 309 308 308 307 305 308 304 307 308 308 308 307 306 306 306 306 306 306 306 306 306 305 306 306 306 306 307 307 305 304 306 307 305 305
307 305 308 306 307 308 308 307 308 307 307 307 305 299 292 305 307 306 306 306 305 305 304 304 304 304 304 304 303 303 302 302 303 302 302 301 301 301 302 302 302 303 304
307 306 304 306 306 306 306 307 306 306 306 306 305 301 296 304 307 307 306 305 305 305 305 304 303 302 302 302 301 301 300 300 300 300 300 298 297 297 298 299 300 301 302
307 306 306 305 306 304 305 305 305 305 305 306 307 305 305 306 306 305 305 305 305 305 305 304 303 302 302 301 301 300 299 298 298 297 296 295 295 294 295 295 297 299 300
307 306 305 305 306 305 304 305 306 300 305 305 305 306 307 306 306 305 306 306 305 304 303 303 302 300 300 300 300 299 298 297 296 295 294 293 291 291 291 291 292 293 296
308 306 305 305 305 304 305 305 305 304 304 305 305 305 306 307 307 307 307 306 305 304 302 302 301 300 299 298 297 296 292 287 291 289 292 292 290 290 289 289 289 290 291
308 305 306 306 306 306 305 305 305 305 305 305 305 306 306 306 306 306 307 306 304 303 302 302 301 299 297 296 297 290 286 286 289 286 289 290 289 290 290 290 290 290 290